GFSNE_prec_precacc24_024.txt.gz
Total_Precipitation_Accumulation
0.08 0.10 0.15 0.13 0.14 0.13 0.15 0.23 0.29 0.18 0.05 0.02 0.01 0.01 0.03 0.03 0.02 0.04 0.04 0.02 0.03 0.04 0.05 0.04 0.04 0.08 0.14 0.17 0.21 0.29 0.38 0.45 0.48 0.48 0.57 0.69 0.76 0.83
0.04 0.06 0.08 0.10 0.12 0.14 0.15 0.15 0.21 0.29 0.16 0.02 0.02 0.04 0.05 0.03 0.02 0.06 0.07 0.11 0.11 0.10 0.09 0.08 0.07 0.10 0.12 0.15 0.18 0.22 0.28 0.33 0.35 0.37 0.40 0.44 0.49 0.58
0.02 0.04 0.06 0.08 0.09 0.08 0.09 0.10 0.11 0.19 0.24 0.04 0.04 0.05 0.06 0.03 0.04 0.07 0.06 0.05 0.05 0.09 0.11 0.12 0.14 0.14 0.15 0.15 0.17 0.20 0.24 0.27 0.29 0.31 0.34 0.43 0.52 0.52
0.00 0.01 0.02 0.03 0.05 0.09 0.11 0.10 0.12 0.14 0.24 0.14 0.02 0.03 0.03 0.03 0.03 0.06 0.07 0.10 0.09 0.08 0.10 0.12 0.15 0.18 0.19 0.18 0.16 0.16 0.18 0.23 0.32 0.40 0.42 0.40 0.42 0.47
0.00 0.00 0.00 0.00 0.00 0.02 0.06 0.09 0.12 0.16 0.23 0.28 0.13 0.07 0.07 0.06 0.06 0.08 0.11 0.11 0.12 0.15 0.18 0.19 0.22 0.22 0.23 0.24 0.27 0.30 0.31 0.33 0.36 0.41 0.49 0.58 0.59 0.54
0.00 0.00 0.00 0.00 0.00 0.00 0.03 0.09 0.15 0.18 0.20 0.22 0.17 0.10 0.09 0.08 0.12 0.12 0.12 0.11 0.13 0.16 0.22 0.28 0.35 0.42 0.45 0.47 0.48 0.43 0.39 0.37 0.42 0.47 0.47 0.50 0.55 0.63
0.00 0.00 0.00 0.00 0.00 0.01 0.05 0.07 0.16 0.19 0.23 0.27 0.25 0.24 0.28 0.30 0.26 0.26 0.37 0.37 0.38 0.36 0.35 0.36 0.42 0.47 0.44 0.45 0.47 0.45 0.46 0.50 0.52 0.56 0.60 0.67 0.72 0.70
0.00 0.00 0.00 0.00 0.00 0.02 0.05 0.08 0.11 0.19 0.21 0.29 0.35 0.44 0.39 0.40 0.42 0.49 0.55 0.63 0.62 0.33 0.28 0.37 0.39 0.43 0.43 0.46 0.49 0.45 0.42 0.46 0.46 0.47 0.51 0.54 0.52 0.54
0.00 0.00 0.00 0.00 0.02 0.02 0.02 0.04 0.08 0.14 0.18 0.17 0.21 0.25 0.34 0.28 0.31 0.40 0.46 0.50 0.45 0.33 0.41 0.51 0.47 0.52 0.51 0.52 0.56 0.51 0.50 0.50 0.52 0.53 0.51 0.46 0.48 0.51
0.00 0.00 0.00 0.01 0.02 0.03 0.05 0.11 0.08 0.04 0.03 0.06 0.08 0.09 0.19 0.30 0.48 0.61 0.69 0.81 0.66 0.48 0.45 0.50 0.34 0.37 0.39 0.43 0.55 0.41 0.35 0.37 0.42 0.47 0.47 0.45 0.44 0.52
0.00 0.00 0.02 0.01 0.01 0.06 0.14 0.14 0.03 0.01 0.02 0.05 0.10 0.14 0.18 0.20 0.27 0.48 0.68 0.69 0.68 0.47 0.38 0.43 0.35 0.35 0.34 0.33 0.43 0.47 0.44 0.43 0.43 0.42 0.39 0.39 0.41 0.43
0.02 0.02 0.01 0.01 0.04 0.17 0.10 0.03 0.07 0.03 0.04 0.04 0.02 0.02 0.04 0.11 0.23 0.29 0.54 0.94 0.78 0.63 0.38 0.55 0.48 0.41 0.51 0.34 0.43 0.53 0.45 0.40 0.36 0.35 0.33 0.32 0.34 0.32
0.07 0.02 0.00 0.05 0.16 0.08 0.02 0.03 0.07 0.07 0.07 0.04 0.02 0.02 0.04 0.07 0.14 0.24 0.52 1.04 1.14 0.87 0.48 0.70 0.71 0.47 0.51 0.35 0.38 0.48 0.42 0.42 0.37 0.38 0.40 0.34 0.28 0.23
0.05 0.03 0.07 0.14 0.04 0.01 0.02 0.03 0.05 0.06 0.03 0.02 0.04 0.05 0.08 0.15 0.23 0.31 0.40 0.54 0.66 0.79 0.57 0.59 0.77 0.49 0.52 0.49 0.41 0.47 0.49 0.45 0.47 0.43 0.39 0.41 0.37 0.37
0.04 0.12 0.12 0.02 0.01 0.01 0.02 0.03 0.03 0.02 0.05 0.12 0.16 0.17 0.21 0.32 0.35 0.37 0.46 0.47 0.49 0.55 0.60 0.61 0.71 0.72 0.66 0.50 0.37 0.41 0.54 0.59 0.58 0.58 0.48 0.35 0.25 0.25
0.16 0.13 0.02 0.01 0.02 0.02 0.01 0.02 0.02 0.06 0.12 0.24 0.29 0.21 0.28 0.38 0.38 0.50 0.66 0.62 0.76 0.75 0.71 0.62 0.58 0.51 0.40 0.34 0.34 0.36 0.44 0.55 0.64 0.61 0.47 0.43 0.42 0.33
0.06 0.01 0.00 0.01 0.01 0.01 0.00 0.01 0.02 0.06 0.14 0.17 0.26 0.27 0.33 0.44 0.50 0.65 0.82 0.89 0.87 0.74 0.63 0.49 0.36 0.29 0.30 0.30 0.33 0.37 0.37 0.46 0.64 0.53 0.36 0.45 0.62 0.48
0.01 0.01 0.02 0.03 0.02 0.02 0.03 0.03 0.03 0.07 0.13 0.24 0.26 0.28 0.39 0.52 0.63 0.82 1.01 0.94 0.74 0.59 0.52 0.43 0.31 0.22 0.24 0.30 0.31 0.33 0.34 0.47 0.58 0.50 0.38 0.26 0.47 0.57
0.01 0.04 0.03 0.03 0.03 0.04 0.06 0.10 0.13 0.12 0.28 0.40 0.46 0.48 0.52 0.62 0.77 0.89 0.90 0.74 0.58 0.45 0.34 0.22 0.18 0.20 0.24 0.23 0.23 0.30 0.27 0.38 0.34 0.31 0.28 0.20 0.23 0.44
0.05 0.05 0.03 0.03 0.04 0.08 0.13 0.21 0.25 0.26 0.40 0.48 0.55 0.54 0.56 0.73 0.85 0.84 0.73 0.54 0.37 0.23 0.12 0.06 0.08 0.16 0.22 0.22 0.19 0.33 0.30 0.30 0.18 0.15 0.20 0.21 0.26 0.35
0.05 0.03 0.03 0.03 0.05 0.11 0.17 0.24 0.31 0.48 0.62 0.69 0.65 0.64 0.66 0.79 0.78 0.67 0.48 0.29 0.12 0.07 0.06 0.04 0.02 0.06 0.11 0.12 0.14 0.20 0.36 0.27 0.11 0.06 0.10 0.10 0.16 0.18
0.03 0.03 0.03 0.03 0.07 0.12 0.19 0.26 0.38 0.46 0.52 0.54 0.60 0.62 0.68 0.71 0.56 0.35 0.17 0.10 0.08 0.07 0.05 0.02 0.00 0.01 0.04 0.06 0.09 0.12 0.16 0.18 0.13 0.07 0.05 0.06 0.06 0.08
0.03 0.04 0.04 0.05 0.08 0.13 0.20 0.29 0.46 0.52 0.53 0.62 0.64 0.60 0.55 0.39 0.16 0.07 0.06 0.07 0.08 0.07 0.06 0.06 0.03 0.01 0.02 0.04 0.05 0.07 0.08 0.09 0.08 0.05 0.08 0.08 0.08 0.09

GFSNE_prec_precacc24_027.txt.gz
Total_Precipitation_Accumulation
0.00 0.02 0.04 0.05 0.07 0.08 0.12 0.20 0.26 0.16 0.04 0.02 0.01 0.01 0.03 0.03 0.02 0.04 0.04 0.02 0.03 0.04 0.05 0.04 0.04 0.08 0.14 0.18 0.21 0.29 0.38 0.45 0.48 0.48 0.58 0.69 0.77 0.84
0.00 0.00 0.00 0.00 0.01 0.02 0.06 0.10 0.16 0.24 0.14 0.02 0.02 0.04 0.05 0.03 0.02 0.03 0.04 0.08 0.07 0.07 0.07 0.07 0.07 0.09 0.11 0.14 0.18 0.23 0.28 0.34 0.35 0.37 0.40 0.44 0.49 0.58
0.00 0.00 0.00 0.00 0.00 0.00 0.01 0.03 0.05 0.13 0.16 0.02 0.03 0.05 0.06 0.03 0.02 0.04 0.02 0.02 0.01 0.03 0.05 0.08 0.09 0.10 0.12 0.14 0.17 0.20 0.24 0.28 0.31 0.33 0.36 0.45 0.54 0.53
0.00 0.00 0.00 0.00 0.00 0.00 0.00 0.01 0.03 0.07 0.16 0.09 0.02 0.03 0.03 0.03 0.03 0.04 0.03 0.05 0.04 0.04 0.07 0.07 0.08 0.10 0.15 0.16 0.15 0.16 0.18 0.23 0.33 0.41 0.43 0.42 0.45 0.50
0.00 0.00 0.00 0.00 0.00 0.00 0.00 0.00 0.01 0.03 0.08 0.15 0.06 0.04 0.04 0.05 0.06 0.06 0.06 0.06 0.06 0.08 0.12 0.14 0.16 0.17 0.19 0.23 0.26 0.30 0.31 0.33 0.37 0.42 0.51 0.60 0.62 0.57
0.00 0.00 0.00 0.00 0.00 0.00 0.00 0.01 0.03 0.05 0.05 0.07 0.10 0.08 0.06 0.06 0.10 0.10 0.07 0.05 0.06 0.09 0.12 0.19 0.31 0.38 0.42 0.45 0.47 0.42 0.39 0.38 0.43 0.48 0.49 0.52 0.58 0.66
0.00 0.00 0.00 0.00 0.00 0.00 0.02 0.03 0.06 0.08 0.13 0.18 0.15 0.12 0.11 0.16 0.16 0.17 0.30 0.29 0.28 0.25 0.24 0.25 0.34 0.38 0.37 0.41 0.44 0.43 0.46 0.50 0.54 0.59 0.63 0.70 0.74 0.72
0.00 0.00 0.00 0.00 0.00 0.01 0.02 0.03 0.06 0.13 0.15 0.23 0.26 0.18 0.07 0.06 0.13 0.26 0.35 0.38 0.42 0.22 0.17 0.22 0.25 0.30 0.37 0.42 0.48 0.46 0.43 0.48 0.49 0.51 0.55 0.58 0.55 0.56
0.00 0.00 0.00 0.00 0.01 0.01 0.01 0.04 0.08 0.17 0.18 0.12 0.09 0.06 0.07 0.06 0.18 0.32 0.33 0.31 0.20 0.12 0.24 0.32 0.32 0.38 0.42 0.49 0.56 0.51 0.51 0.52 0.54 0.55 0.52 0.47 0.49 0.52
0.00 0.00 0.00 0.01 0.02 0.03 0.04 0.11 0.10 0.06 0.02 0.02 0.05 0.07 0.13 0.17 0.25 0.25 0.21 0.24 0.27 0.24 0.28 0.35 0.24 0.31 0.35 0.42 0.54 0.41 0.35 0.37 0.44 0.50 0.51 0.48 0.46 0.53
0.00 0.00 0.03 0.02 0.01 0.07 0.15 0.19 0.05 0.00 0.01 0.04 0.09 0.10 0.07 0.03 0.04 0.15 0.35 0.41 0.40 0.25 0.23 0.32 0.29 0.30 0.31 0.32 0.43 0.47 0.44 0.46 0.47 0.46 0.42 0.41 0.43 0.45
0.02 0.02 0.01 0.02 0.04 0.20 0.12 0.04 0.08 0.03 0.04 0.04 0.02 0.01 0.01 0.02 0.06 0.12 0.38 0.75 0.52 0.41 0.22 0.44 0.41 0.37 0.51 0.34 0.43 0.53 0.45 0.40 0.37 0.35 0.33 0.32 0.34 0.32
0.07 0.02 0.00 0.05 0.19 0.11 0.02 0.03 0.06 0.06 0.05 0.02 0.00 0.01 0.01 0.01 0.03 0.09 0.27 0.77 0.87 0.58 0.26 0.62 0.73 0.46 0.54 0.37 0.38 0.48 0.42 0.43 0.37 0.38 0.40 0.35 0.28 0.24
0.05 0.03 0.08 0.17 0.05 0.02 0.02 0.03 0.05 0.05 0.02 0.02 0.03 0.03 0.03 0.04 0.04 0.06 0.14 0.26 0.42 0.59 0.39 0.53 0.83 0.52 0.57 0.52 0.42 0.47 0.49 0.45 0.49 0.45 0.42 0.46 0.38 0.38
0.04 0.14 0.14 0.02 0.01 0.01 0.02 0.03 0.03 0.02 0.05 0.12 0.09 0.06 0.05 0.08 0.11 0.16 0.25 0.30 0.36 0.41 0.50 0.60 0.76 0.75 0.70 0.53 0.38 0.41 0.56 0.60 0.65 0.73 0.71 0.59 0.30 0.25
0.17 0.15 0.02 0.00 0.00 0.01 0.01 0.01 0.01 0.03 0.11 0.22 0.20 0.09 0.07 0.12 0.18 0.31 0.50 0.45 0.55 0.56 0.64 0.63 0.61 0.54 0.41 0.34 0.34 0.37 0.47 0.64 0.73 0.69 0.62 0.60 0.51 0.34
0.07 0.00 0.00 0.00 0.00 0.00 0.00 0.00 0.01 0.02 0.10 0.13 0.19 0.18 0.14 0.17 0.26 0.42 0.65 0.72 0.73 0.67 0.63 0.49 0.37 0.29 0.30 0.30 0.33 0.39 0.43 0.56 0.72 0.61 0.43 0.53 0.73 0.51
0.00 0.01 0.02 0.02 0.01 0.01 0.02 0.03 0.02 0.05 0.11 0.19 0.20 0.21 0.28 0.31 0.40 0.51 0.73 0.75 0.68 0.60 0.55 0.46 0.32 0.23 0.24 0.30 0.35 0.40 0.41 0.55 0.68 0.59 0.50 0.39 0.63 0.69
0.01 0.03 0.03 0.02 0.02 0.03 0.04 0.08 0.11 0.09 0.22 0.32 0.37 0.38 0.38 0.39 0.51 0.64 0.68 0.63 0.57 0.47 0.38 0.24 0.20 0.22 0.26 0.24 0.26 0.41 0.36 0.48 0.45 0.39 0.38 0.29 0.34 0.61
0.04 0.05 0.03 0.03 0.03 0.05 0.09 0.15 0.19 0.17 0.26 0.36 0.45 0.44 0.44 0.52 0.61 0.65 0.62 0.52 0.40 0.26 0.14 0.07 0.09 0.18 0.25 0.26 0.22 0.47 0.42 0.38 0.25 0.24 0.29 0.27 0.40 0.50
0.05 0.03 0.02 0.03 0.05 0.08 0.11 0.16 0.22 0.37 0.49 0.52 0.49 0.51 0.48 0.57 0.58 0.56 0.47 0.31 0.15 0.08 0.07 0.05 0.04 0.10 0.15 0.13 0.17 0.26 0.47 0.36 0.15 0.10 0.17 0.12 0.21 0.21
0.02 0.03 0.03 0.03 0.07 0.10 0.16 0.19 0.30 0.34 0.41 0.44 0.48 0.50 0.52 0.55 0.49 0.33 0.18 0.11 0.09 0.09 0.06 0.02 0.01 0.04 0.07 0.08 0.12 0.16 0.22 0.25 0.18 0.10 0.07 0.07 0.07 0.11
0.03 0.04 0.03 0.05 0.08 0.11 0.15 0.22 0.36 0.39 0.43 0.50 0.52 0.47 0.41 0.31 0.16 0.08 0.07 0.09 0.09 0.08 0.07 0.06 0.03 0.03 0.04 0.07 0.07 0.10 0.10 0.13 0.12 0.09 0.20 0.14 0.14 0.15

GFSNE_prec_precacc24_030.txt.gz
Total_Precipitation_Accumulation
0.00 0.00 0.00 0.00 0.00 0.00 0.01 0.10 0.15 0.07 0.01 0.00 0.01 0.01 0.03 0.03 0.02 0.03 0.04 0.02 0.03 0.04 0.05 0.04 0.04 0.05 0.08 0.11 0.16 0.24 0.36 0.45 0.48 0.48 0.58 0.70 0.77 0.84
0.00 0.00 0.00 0.00 0.00 0.00 0.02 0.03 0.06 0.11 0.06 0.00 0.00 0.02 0.03 0.03 0.01 0.02 0.03 0.07 0.07 0.06 0.06 0.06 0.06 0.09 0.10 0.10 0.13 0.19 0.26 0.33 0.36 0.38 0.41 0.46 0.50 0.59
0.00 0.00 0.00 0.00 0.00 0.00 0.00 0.00 0.01 0.04 0.07 0.01 0.00 0.00 0.01 0.02 0.01 0.03 0.02 0.02 0.01 0.02 0.05 0.07 0.09 0.10 0.11 0.12 0.14 0.17 0.23 0.28 0.31 0.32 0.37 0.47 0.57 0.57
0.00 0.00 0.00 0.00 0.00 0.00 0.00 0.00 0.00 0.02 0.06 0.04 0.00 0.00 0.00 0.01 0.01 0.02 0.02 0.04 0.03 0.02 0.04 0.04 0.06 0.08 0.10 0.11 0.10 0.11 0.15 0.22 0.32 0.41 0.43 0.42 0.46 0.51
0.00 0.00 0.00 0.00 0.00 0.00 0.00 0.00 0.01 0.02 0.04 0.07 0.03 0.00 0.01 0.01 0.02 0.03 0.04 0.03 0.02 0.05 0.09 0.10 0.13 0.12 0.11 0.13 0.17 0.21 0.23 0.29 0.35 0.42 0.52 0.61 0.63 0.58
0.00 0.00 0.00 0.00 0.00 0.00 0.00 0.01 0.02 0.04 0.03 0.05 0.09 0.08 0.03 0.03 0.06 0.05 0.03 0.02 0.01 0.02 0.04 0.09 0.12 0.15 0.16 0.19 0.24 0.26 0.26 0.27 0.37 0.46 0.48 0.52 0.58 0.67
0.00 0.00 0.00 0.00 0.00 0.00 0.02 0.02 0.04 0.06 0.14 0.20 0.14 0.13 0.12 0.07 0.03 0.03 0.05 0.03 0.02 0.03 0.08 0.12 0.13 0.12 0.10 0.15 0.24 0.28 0.33 0.39 0.45 0.57 0.65 0.73 0.77 0.75
0.00 0.00 0.00 0.00 0.00 0.01 0.01 0.03 0.06 0.13 0.14 0.25 0.31 0.18 0.05 0.03 0.02 0.05 0.11 0.16 0.15 0.05 0.06 0.05 0.08 0.07 0.07 0.11 0.19 0.20 0.23 0.36 0.45 0.52 0.57 0.60 0.57 0.59
0.00 0.00 0.00 0.00 0.01 0.01 0.01 0.05 0.08 0.20 0.24 0.15 0.08 0.05 0.06 0.05 0.16 0.30 0.28 0.23 0.13 0.03 0.06 0.06 0.07 0.09 0.13 0.16 0.22 0.29 0.37 0.44 0.50 0.54 0.53 0.48 0.50 0.54
0.00 0.00 0.00 0.01 0.02 0.03 0.04 0.13 0.16 0.11 0.02 0.02 0.04 0.07 0.13 0.18 0.23 0.19 0.10 0.08 0.06 0.03 0.08 0.20 0.11 0.12 0.10 0.14 0.29 0.24 0.25 0.32 0.43 0.51 0.52 0.50 0.47 0.54
0.00 0.00 0.03 0.02 0.01 0.07 0.18 0.25 0.06 0.00 0.00 0.03 0.09 0.10 0.06 0.02 0.03 0.13 0.24 0.26 0.20 0.06 0.06 0.16 0.14 0.13 0.10 0.13 0.28 0.36 0.37 0.44 0.48 0.48 0.47 0.48 0.48 0.49
0.02 0.02 0.02 0.02 0.05 0.25 0.14 0.04 0.08 0.03 0.05 0.05 0.01 0.01 0.01 0.02 0.05 0.09 0.30 0.67 0.37 0.24 0.06 0.29 0.22 0.15 0.30 0.15 0.25 0.42 0.40 0.39 0.37 0.36 0.34 0.33 0.35 0.34
0.07 0.01 0.00 0.06 0.23 0.12 0.02 0.02 0.05 0.05 0.04 0.02 0.00 0.00 0.01 0.02 0.02 0.06 0.16 0.62 0.74 0.45 0.10 0.49 0.57 0.23 0.36 0.23 0.28 0.45 0.42 0.43 0.37 0.39 0.41 0.35 0.28 0.24
0.04 0.02 0.08 0.19 0.05 0.01 0.01 0.02 0.04 0.04 0.01 0.02 0.03 0.02 0.02 0.03 0.02 0.04 0.09 0.19 0.34 0.53 0.23 0.35 0.67 0.31 0.41 0.42 0.38 0.47 0.49 0.45 0.50 0.48 0.47 0.50 0.41 0.39
0.04 0.15 0.14 0.02 0.00 0.00 0.01 0.01 0.01 0.01 0.06 0.13 0.09 0.05 0.04 0.04 0.05 0.07 0.12 0.16 0.21 0.24 0.30 0.38 0.56 0.55 0.60 0.51 0.38 0.41 0.56 0.61 0.69 0.86 0.89 0.75 0.36 0.26
0.17 0.15 0.01 0.00 0.00 0.00 0.00 0.00 0.00 0.02 0.12 0.24 0.19 0.08 0.04 0.05 0.08 0.16 0.32 0.27 0.36 0.29 0.32 0.43 0.52 0.52 0.41 0.34 0.35 0.38 0.50 0.72 0.77 0.76 0.79 0.81 0.66 0.37
0.06 0.00 0.00 0.00 0.00 0.00 0.00 0.00 0.00 0.02 0.10 0.12 0.17 0.16 0.09 0.08 0.11 0.21 0.42 0.51 0.54 0.47 0.44 0.41 0.35 0.30 0.31 0.31 0.35 0.42 0.47 0.62 0.80 0.72 0.56 0.68 0.81 0.56
0.00 0.00 0.01 0.02 0.01 0.01 0.01 0.02 0.01 0.04 0.10 0.18 0.18 0.18 0.23 0.23 0.26 0.29 0.49 0.59 0.58 0.49 0.52 0.45 0.33 0.23 0.25 0.31 0.38 0.46 0.48 0.64 0.81 0.73 0.59 0.47 0.67 0.72
0.01 0.03 0.03 0.02 0.02 0.02 0.03 0.06 0.08 0.07 0.18 0.29 0.32 0.33 0.31 0.26 0.34 0.42 0.51 0.51 0.49 0.48 0.40 0.27 0.22 0.25 0.29 0.26 0.27 0.52 0.48 0.59 0.59 0.52 0.50 0.40 0.42 0.69
0.04 0.04 0.03 0.03 0.02 0.05 0.07 0.12 0.15 0.13 0.21 0.30 0.36 0.34 0.36 0.41 0.41 0.46 0.51 0.47 0.41 0.29 0.15 0.08 0.10 0.21 0.30 0.29 0.25 0.57 0.54 0.48 0.34 0.35 0.40 0.32 0.51 0.60
0.04 0.02 0.03 0.03 0.05 0.07 0.10 0.13 0.17 0.30 0.40 0.43 0.38 0.38 0.38 0.44 0.42 0.43 0.41 0.31 0.17 0.10 0.08 0.06 0.07 0.14 0.19 0.15 0.20 0.30 0.57 0.51 0.25 0.20 0.28 0.20 0.28 0.24
0.02 0.03 0.03 0.03 0.06 0.11 0.14 0.17 0.23 0.24 0.30 0.34 0.37 0.40 0.41 0.43 0.40 0.30 0.19 0.13 0.10 0.11 0.06 0.03 0.04 0.07 0.07 0.09 0.15 0.20 0.29 0.34 0.26 0.21 0.21 0.13 0.11 0.20
0.03 0.04 0.03 0.05 0.08 0.11 0.14 0.18 0.27 0.28 0.33 0.42 0.39 0.38 0.34 0.25 0.15 0.11 0.09 0.11 0.11 0.09 0.07 0.06 0.05 0.04 0.05 0.08 0.07 0.12 0.13 0.16 0.13 0.13 0.37 0.27 0.25 0.26

GFSNE_prec_precacc24_036.txt.gz
Total_Precipitation_Accumulation
0.00 0.00 0.00 0.00 0.00 0.00 0.00 0.04 0.04 0.02 0.00 0.00 0.00 0.00 0.00 0.00 0.00 0.00 0.00 0.00 0.00 0.00 0.00 0.00 0.00 0.01 0.04 0.08 0.13 0.17 0.22 0.28 0.33 0.36 0.45 0.56 0.68 0.75
0.00 0.00 0.00 0.00 0.00 0.00 0.01 0.00 0.00 0.00 0.00 0.00 0.00 0.00 0.00 0.00 0.00 0.00 0.00 0.00 0.00 0.00 0.00 0.00 0.01 0.03 0.04 0.05 0.09 0.17 0.22 0.26 0.31 0.35 0.40 0.44 0.50 0.58
0.00 0.00 0.00 0.00 0.00 0.00 0.00 0.00 0.00 0.00 0.01 0.00 0.00 0.00 0.00 0.00 0.00 0.00 0.00 0.00 0.00 0.01 0.03 0.03 0.02 0.03 0.04 0.04 0.05 0.08 0.15 0.21 0.26 0.29 0.34 0.43 0.56 0.59
0.00 0.00 0.00 0.00 0.00 0.00 0.00 0.00 0.00 0.00 0.02 0.04 0.01 0.00 0.00 0.00 0.00 0.00 0.00 0.01 0.02 0.02 0.01 0.00 0.01 0.02 0.03 0.04 0.05 0.05 0.04 0.08 0.22 0.31 0.36 0.36 0.39 0.46
0.00 0.00 0.00 0.00 0.00 0.00 0.00 0.00 0.00 0.02 0.04 0.07 0.02 0.00 0.01 0.00 0.01 0.01 0.01 0.00 0.00 0.00 0.00 0.00 0.00 0.00 0.00 0.01 0.04 0.08 0.11 0.10 0.12 0.22 0.33 0.43 0.47 0.47
0.00 0.00 0.00 0.00 0.00 0.00 0.00 0.01 0.02 0.03 0.03 0.04 0.09 0.09 0.05 0.05 0.07 0.03 0.00 0.00 0.00 0.00 0.00 0.00 0.01 0.01 0.01 0.02 0.03 0.03 0.03 0.03 0.03 0.06 0.08 0.15 0.26 0.41
0.00 0.00 0.00 0.00 0.00 0.00 0.02 0.03 0.04 0.06 0.15 0.24 0.20 0.21 0.17 0.06 0.01 0.01 0.02 0.01 0.02 0.02 0.02 0.02 0.03 0.03 0.02 0.02 0.01 0.00 0.01 0.02 0.04 0.07 0.10 0.12 0.12 0.16
0.00 0.00 0.00 0.00 0.00 0.01 0.02 0.03 0.06 0.16 0.25 0.37 0.38 0.19 0.04 0.02 0.01 0.04 0.13 0.17 0.15 0.04 0.04 0.03 0.02 0.01 0.00 0.00 0.00 0.02 0.03 0.05 0.06 0.10 0.14 0.15 0.17 0.21
0.00 0.00 0.00 0.00 0.01 0.01 0.01 0.05 0.13 0.27 0.28 0.15 0.07 0.04 0.05 0.05 0.22 0.34 0.27 0.21 0.12 0.01 0.04 0.06 0.01 0.01 0.01 0.01 0.01 0.01 0.03 0.04 0.04 0.05 0.07 0.09 0.15 0.21
0.00 0.00 0.00 0.01 0.02 0.03 0.06 0.22 0.21 0.11 0.02 0.01 0.03 0.05 0.11 0.18 0.21 0.18 0.12 0.10 0.05 0.02 0.04 0.19 0.06 0.03 0.01 0.01 0.02 0.02 0.02 0.04 0.07 0.09 0.12 0.14 0.16 0.25
0.00 0.00 0.03 0.02 0.02 0.09 0.21 0.26 0.05 0.00 0.00 0.01 0.06 0.06 0.02 0.01 0.02 0.18 0.26 0.22 0.15 0.03 0.03 0.11 0.07 0.05 0.02 0.01 0.00 0.01 0.08 0.12 0.10 0.10 0.15 0.23 0.29 0.35
0.01 0.01 0.02 0.02 0.06 0.28 0.14 0.03 0.02 0.01 0.09 0.06 0.01 0.00 0.00 0.00 0.01 0.07 0.29 0.63 0.31 0.18 0.02 0.26 0.15 0.08 0.25 0.03 0.01 0.03 0.02 0.02 0.03 0.06 0.08 0.14 0.18 0.18
0.05 0.01 0.00 0.06 0.24 0.12 0.02 0.01 0.02 0.04 0.04 0.01 0.00 0.00 0.00 0.01 0.02 0.04 0.15 0.62 0.73 0.42 0.03 0.42 0.50 0.12 0.26 0.10 0.01 0.01 0.04 0.06 0.07 0.12 0.18 0.19 0.17 0.18
0.03 0.02 0.06 0.19 0.05 0.00 0.00 0.02 0.03 0.02 0.00 0.01 0.02 0.02 0.02 0.02 0.02 0.03 0.07 0.14 0.27 0.53 0.23 0.31 0.68 0.26 0.35 0.19 0.05 0.04 0.09 0.13 0.29 0.33 0.39 0.46 0.40 0.40
0.03 0.11 0.13 0.02 0.00 0.00 0.00 0.01 0.01 0.00 0.03 0.10 0.07 0.04 0.03 0.03 0.04 0.04 0.03 0.02 0.05 0.08 0.16 0.23 0.44 0.33 0.35 0.27 0.13 0.08 0.29 0.38 0.52 0.84 1.00 0.87 0.46 0.37
0.12 0.13 0.01 0.00 0.00 0.00 0.00 0.00 0.00 0.01 0.08 0.16 0.14 0.06 0.03 0.04 0.06 0.08 0.18 0.08 0.17 0.07 0.10 0.16 0.25 0.32 0.24 0.13 0.24 0.23 0.34 0.68 0.69 0.74 0.93 1.01 0.97 0.56
0.05 0.00 0.00 0.00 0.00 0.00 0.00 0.00 0.00 0.01 0.08 0.09 0.13 0.12 0.07 0.06 0.06 0.07 0.21 0.26 0.30 0.25 0.21 0.15 0.14 0.17 0.21 0.23 0.28 0.31 0.42 0.64 0.83 0.85 0.87 0.97 1.12 0.66
0.00 0.00 0.01 0.01 0.01 0.01 0.01 0.02 0.01 0.03 0.08 0.13 0.13 0.13 0.18 0.18 0.17 0.13 0.23 0.31 0.35 0.26 0.30 0.24 0.18 0.15 0.17 0.24 0.38 0.53 0.55 0.78 0.91 0.89 0.88 0.73 0.78 0.77
0.00 0.01 0.03 0.02 0.02 0.02 0.03 0.06 0.08 0.06 0.13 0.18 0.21 0.24 0.24 0.18 0.20 0.23 0.23 0.25 0.21 0.23 0.26 0.19 0.17 0.21 0.27 0.25 0.28 0.60 0.73 0.80 0.70 0.62 0.63 0.50 0.50 0.74
0.02 0.03 0.03 0.02 0.02 0.04 0.07 0.12 0.14 0.09 0.12 0.17 0.23 0.20 0.23 0.29 0.25 0.24 0.24 0.26 0.25 0.19 0.10 0.06 0.10 0.24 0.42 0.44 0.39 0.67 0.71 0.74 0.54 0.50 0.53 0.41 0.58 0.68
0.03 0.02 0.02 0.03 0.05 0.07 0.10 0.13 0.15 0.20 0.27 0.28 0.20 0.21 0.22 0.28 0.20 0.17 0.16 0.14 0.14 0.11 0.08 0.06 0.11 0.22 0.28 0.18 0.24 0.39 0.71 0.72 0.51 0.52 0.46 0.28 0.34 0.27
0.02 0.03 0.02 0.03 0.06 0.11 0.14 0.15 0.17 0.13 0.16 0.17 0.16 0.17 0.17 0.19 0.18 0.12 0.11 0.13 0.11 0.13 0.07 0.04 0.05 0.07 0.08 0.11 0.21 0.31 0.42 0.43 0.36 0.33 0.44 0.30 0.22 0.36
0.03 0.04 0.03 0.05 0.09 0.11 0.13 0.15 0.16 0.14 0.16 0.21 0.14 0.14 0.14 0.13 0.08 0.09 0.09 0.13 0.14 0.10 0.07 0.06 0.06 0.05 0.06 0.10 0.10 0.17 0.17 0.23 0.19 0.19 0.59 0.55 0.49 0.48

GFSNE_prec_precacc24_039.txt.gz
Total_Precipitation_Accumulation
0.00 0.00 0.00 0.00 0.00 0.00 0.00 0.01 0.01 0.01 0.00 0.00 0.00 0.00 0.00 0.00 0.00 0.00 0.00 0.00 0.00 0.00 0.00 0.00 0.00 0.00 0.01 0.02 0.04 0.06 0.08 0.19 0.28 0.33 0.42 0.53 0.64 0.72
0.00 0.00 0.00 0.00 0.00 0.00 0.00 0.00 0.00 0.00 0.00 0.00 0.00 0.00 0.00 0.00 0.00 0.00 0.00 0.00 0.00 0.00 0.00 0.00 0.02 0.03 0.04 0.04 0.04 0.07 0.08 0.10 0.17 0.28 0.35 0.40 0.47 0.57
0.00 0.00 0.00 0.00 0.00 0.00 0.00 0.00 0.00 0.00 0.00 0.00 0.00 0.00 0.00 0.00 0.00 0.00 0.00 0.00 0.00 0.01 0.02 0.03 0.02 0.02 0.01 0.02 0.03 0.05 0.07 0.10 0.14 0.19 0.28 0.39 0.53 0.59
0.00 0.00 0.00 0.00 0.00 0.00 0.00 0.00 0.00 0.00 0.01 0.04 0.00 0.00 0.00 0.00 0.00 0.00 0.00 0.01 0.02 0.02 0.01 0.00 0.00 0.00 0.00 0.01 0.03 0.04 0.04 0.05 0.08 0.10 0.13 0.19 0.30 0.39
0.00 0.00 0.00 0.00 0.00 0.00 0.00 0.00 0.00 0.02 0.03 0.06 0.02 0.00 0.00 0.00 0.01 0.01 0.01 0.00 0.00 0.00 0.00 0.00 0.00 0.00 0.00 0.01 0.04 0.09 0.12 0.11 0.13 0.15 0.16 0.16 0.17 0.21
0.00 0.00 0.00 0.00 0.00 0.00 0.00 0.01 0.02 0.02 0.01 0.03 0.09 0.11 0.06 0.05 0.07 0.03 0.00 0.00 0.00 0.00 0.00 0.00 0.01 0.01 0.01 0.02 0.03 0.03 0.03 0.03 0.03 0.05 0.06 0.07 0.09 0.11
0.00 0.00 0.00 0.00 0.00 0.00 0.02 0.02 0.03 0.04 0.15 0.28 0.25 0.20 0.16 0.06 0.01 0.01 0.02 0.01 0.01 0.01 0.02 0.02 0.03 0.03 0.02 0.01 0.00 0.00 0.01 0.02 0.04 0.07 0.10 0.12 0.12 0.09
0.00 0.00 0.00 0.00 0.00 0.01 0.02 0.03 0.05 0.16 0.28 0.37 0.37 0.18 0.04 0.02 0.01 0.03 0.12 0.16 0.13 0.04 0.03 0.02 0.01 0.00 0.00 0.00 0.00 0.02 0.04 0.05 0.07 0.10 0.15 0.16 0.16 0.16
0.00 0.00 0.00 0.00 0.00 0.01 0.01 0.04 0.13 0.27 0.27 0.14 0.06 0.03 0.03 0.04 0.22 0.25 0.16 0.16 0.11 0.01 0.04 0.06 0.01 0.01 0.01 0.01 0.01 0.01 0.02 0.04 0.04 0.05 0.08 0.10 0.10 0.10
0.00 0.00 0.00 0.01 0.02 0.03 0.06 0.24 0.23 0.11 0.02 0.01 0.02 0.03 0.07 0.12 0.11 0.10 0.10 0.10 0.05 0.01 0.03 0.16 0.04 0.02 0.01 0.01 0.01 0.02 0.02 0.04 0.07 0.10 0.11 0.13 0.11 0.09
0.00 0.00 0.02 0.02 0.02 0.07 0.20 0.27 0.05 0.00 0.00 0.01 0.06 0.05 0.01 0.00 0.01 0.17 0.24 0.19 0.12 0.02 0.02 0.10 0.06 0.05 0.02 0.00 0.00 0.01 0.08 0.12 0.10 0.09 0.12 0.15 0.17 0.18
0.01 0.01 0.02 0.02 0.04 0.25 0.14 0.03 0.02 0.01 0.11 0.07 0.01 0.00 0.00 0.00 0.01 0.06 0.24 0.54 0.24 0.16 0.02 0.26 0.14 0.08 0.27 0.03 0.01 0.03 0.02 0.00 0.01 0.02 0.02 0.04 0.05 0.05
0.04 0.01 0.00 0.04 0.20 0.12 0.02 0.01 0.02 0.04 0.05 0.00 0.00 0.00 0.00 0.01 0.01 0.02 0.09 0.53 0.67 0.40 0.02 0.43 0.51 0.12 0.27 0.10 0.01 0.00 0.01 0.03 0.03 0.03 0.06 0.06 0.06 0.06
0.03 0.02 0.03 0.14 0.05 0.00 0.00 0.01 0.03 0.02 0.00 0.00 0.02 0.01 0.01 0.02 0.02 0.01 0.03 0.09 0.22 0.52 0.23 0.31 0.70 0.28 0.38 0.19 0.03 0.00 0.02 0.08 0.23 0.23 0.27 0.31 0.25 0.26
0.03 0.09 0.09 0.01 0.00 0.00 0.00 0.01 0.01 0.00 0.03 0.09 0.06 0.03 0.03 0.03 0.03 0.03 0.02 0.02 0.04 0.06 0.14 0.22 0.45 0.34 0.35 0.29 0.16 0.03 0.19 0.26 0.39 0.71 0.86 0.75 0.38 0.32
0.09 0.10 0.01 0.00 0.00 0.00 0.00 0.00 0.00 0.01 0.08 0.15 0.12 0.05 0.03 0.04 0.05 0.08 0.16 0.07 0.16 0.06 0.07 0.15 0.25 0.33 0.26 0.11 0.28 0.21 0.25 0.62 0.57 0.63 0.84 0.97 0.97 0.59
0.05 0.00 0.00 0.00 0.00 0.00 0.00 0.00 0.00 0.01 0.07 0.08 0.12 0.11 0.06 0.05 0.05 0.06 0.19 0.24 0.27 0.22 0.17 0.12 0.10 0.13 0.17 0.19 0.22 0.22 0.34 0.59 0.74 0.78 0.84 0.93 1.06 0.65
0.00 0.00 0.00 0.01 0.01 0.00 0.01 0.01 0.01 0.03 0.08 0.12 0.11 0.12 0.17 0.16 0.16 0.11 0.20 0.27 0.30 0.20 0.24 0.18 0.13 0.10 0.11 0.15 0.28 0.46 0.46 0.72 0.82 0.85 0.85 0.69 0.71 0.72
0.00 0.01 0.02 0.02 0.02 0.01 0.03 0.05 0.07 0.06 0.12 0.16 0.18 0.21 0.22 0.16 0.16 0.20 0.18 0.20 0.16 0.17 0.20 0.14 0.15 0.20 0.24 0.20 0.22 0.55 0.76 0.79 0.69 0.63 0.61 0.50 0.50 0.73
0.01 0.02 0.03 0.02 0.02 0.04 0.07 0.12 0.13 0.08 0.09 0.13 0.18 0.16 0.19 0.22 0.20 0.19 0.17 0.20 0.20 0.15 0.07 0.04 0.09 0.25 0.47 0.51 0.44 0.67 0.73 0.80 0.62 0.61 0.56 0.42 0.60 0.70
0.02 0.02 0.02 0.03 0.04 0.08 0.10 0.12 0.14 0.17 0.22 0.23 0.15 0.16 0.15 0.22 0.14 0.11 0.11 0.11 0.13 0.10 0.07 0.05 0.10 0.23 0.30 0.18 0.24 0.39 0.72 0.73 0.56 0.65 0.51 0.29 0.36 0.29
0.01 0.02 0.02 0.03 0.07 0.12 0.14 0.13 0.13 0.09 0.12 0.11 0.10 0.11 0.11 0.16 0.17 0.12 0.12 0.14 0.11 0.13 0.07 0.03 0.05 0.07 0.08 0.11 0.21 0.32 0.43 0.43 0.36 0.34 0.47 0.38 0.29 0.43
0.03 0.03 0.02 0.05 0.09 0.11 0.13 0.12 0.11 0.09 0.11 0.15 0.11 0.12 0.15 0.15 0.09 0.10 0.10 0.14 0.16 0.11 0.07 0.06 0.05 0.05 0.05 0.09 0.10 0.16 0.17 0.23 0.20 0.18 0.58 0.58 0.58 0.56

GFSNE_prec_precacc24_042.txt.gz
Total_Precipitation_Accumulation
0.00 0.00 0.00 0.00 0.00 0.00 0.00 0.00 0.00 0.00 0.00 0.00 0.00 0.00 0.00 0.00 0.00 0.00 0.00 0.00 0.00 0.00 0.00 0.00 0.00 0.00 0.01 0.01 0.03 0.05 0.08 0.09 0.12 0.14 0.16 0.19 0.32 0.53
0.00 0.00 0.00 0.00 0.00 0.00 0.00 0.00 0.00 0.00 0.00 0.00 0.00 0.00 0.00 0.00 0.00 0.00 0.00 0.00 0.00 0.00 0.00 0.00 0.02 0.03 0.04 0.04 0.04 0.05 0.07 0.08 0.10 0.13 0.15 0.19 0.23 0.27
0.00 0.00 0.00 0.00 0.00 0.00 0.00 0.00 0.00 0.00 0.00 0.00 0.00 0.00 0.00 0.00 0.00 0.00 0.00 0.00 0.00 0.01 0.02 0.03 0.02 0.02 0.02 0.02 0.03 0.05 0.06 0.09 0.12 0.16 0.19 0.23 0.30 0.32
0.00 0.00 0.00 0.00 0.00 0.00 0.00 0.00 0.00 0.00 0.01 0.03 0.00 0.00 0.00 0.00 0.00 0.00 0.00 0.01 0.02 0.02 0.01 0.00 0.00 0.00 0.01 0.01 0.03 0.04 0.05 0.06 0.07 0.09 0.11 0.14 0.15 0.19
0.00 0.00 0.00 0.00 0.00 0.00 0.00 0.00 0.00 0.01 0.03 0.05 0.01 0.00 0.00 0.00 0.01 0.01 0.01 0.00 0.00 0.00 0.00 0.00 0.00 0.00 0.00 0.01 0.04 0.09 0.12 0.11 0.12 0.14 0.14 0.15 0.16 0.16
0.00 0.00 0.00 0.00 0.00 0.00 0.00 0.00 0.01 0.02 0.01 0.02 0.09 0.12 0.07 0.05 0.06 0.03 0.00 0.00 0.00 0.00 0.00 0.00 0.01 0.00 0.01 0.02 0.03 0.03 0.03 0.03 0.03 0.04 0.05 0.07 0.09 0.11
0.00 0.00 0.00 0.00 0.00 0.00 0.01 0.01 0.02 0.04 0.13 0.28 0.27 0.21 0.16 0.06 0.01 0.00 0.01 0.00 0.01 0.01 0.01 0.00 0.01 0.02 0.01 0.01 0.00 0.00 0.00 0.02 0.04 0.07 0.11 0.13 0.13 0.10
0.00 0.00 0.00 0.00 0.00 0.00 0.01 0.03 0.05 0.14 0.29 0.39 0.38 0.18 0.03 0.00 0.00 0.02 0.12 0.14 0.09 0.01 0.01 0.01 0.00 0.00 0.00 0.00 0.00 0.02 0.04 0.05 0.07 0.11 0.15 0.18 0.18 0.17
0.00 0.00 0.00 0.00 0.00 0.00 0.00 0.04 0.12 0.26 0.28 0.15 0.05 0.01 0.01 0.03 0.22 0.26 0.14 0.11 0.07 0.01 0.03 0.05 0.00 0.01 0.00 0.01 0.01 0.01 0.02 0.04 0.04 0.05 0.08 0.10 0.11 0.11
0.00 0.00 0.00 0.00 0.01 0.03 0.05 0.20 0.21 0.11 0.02 0.00 0.01 0.02 0.06 0.12 0.10 0.08 0.08 0.08 0.04 0.01 0.02 0.12 0.03 0.02 0.01 0.01 0.01 0.01 0.01 0.03 0.06 0.09 0.12 0.13 0.12 0.10
0.00 0.00 0.01 0.02 0.02 0.06 0.16 0.24 0.05 0.00 0.00 0.01 0.06 0.04 0.01 0.00 0.01 0.15 0.20 0.17 0.10 0.01 0.01 0.07 0.05 0.02 0.01 0.00 0.00 0.01 0.08 0.12 0.10 0.10 0.12 0.16 0.18 0.19
0.00 0.00 0.01 0.02 0.04 0.20 0.11 0.02 0.02 0.01 0.11 0.07 0.01 0.00 0.00 0.00 0.01 0.05 0.19 0.46 0.20 0.15 0.01 0.21 0.12 0.06 0.25 0.02 0.01 0.03 0.02 0.00 0.01 0.02 0.02 0.05 0.07 0.08
0.02 0.01 0.00 0.04 0.17 0.10 0.02 0.00 0.02 0.04 0.05 0.00 0.00 0.00 0.00 0.01 0.01 0.01 0.08 0.46 0.61 0.37 0.02 0.40 0.48 0.10 0.24 0.10 0.00 0.00 0.01 0.01 0.02 0.02 0.02 0.03 0.06 0.09
0.02 0.01 0.02 0.12 0.05 0.00 0.00 0.01 0.03 0.02 0.00 0.00 0.01 0.01 0.01 0.01 0.01 0.01 0.03 0.07 0.19 0.48 0.21 0.29 0.70 0.28 0.39 0.20 0.03 0.00 0.00 0.01 0.17 0.23 0.27 0.26 0.18 0.21
0.02 0.07 0.08 0.01 0.00 0.00 0.00 0.01 0.01 0.00 0.02 0.08 0.05 0.03 0.02 0.02 0.03 0.03 0.02 0.01 0.03 0.05 0.11 0.18 0.45 0.35 0.35 0.30 0.17 0.03 0.13 0.11 0.31 0.68 0.86 0.75 0.35 0.26
0.06 0.10 0.01 0.00 0.00 0.00 0.00 0.00 0.00 0.01 0.07 0.13 0.10 0.04 0.03 0.03 0.05 0.07 0.15 0.06 0.14 0.04 0.04 0.12 0.23 0.33 0.28 0.09 0.26 0.19 0.17 0.47 0.46 0.58 0.80 0.88 0.87 0.47
0.04 0.00 0.00 0.00 0.00 0.00 0.00 0.00 0.00 0.01 0.07 0.07 0.10 0.09 0.05 0.05 0.05 0.06 0.16 0.20 0.23 0.17 0.11 0.06 0.05 0.09 0.12 0.14 0.17 0.17 0.28 0.46 0.60 0.71 0.80 0.85 0.98 0.59
0.00 0.00 0.00 0.00 0.00 0.00 0.01 0.01 0.01 0.03 0.06 0.10 0.09 0.09 0.14 0.13 0.13 0.08 0.14 0.20 0.24 0.14 0.17 0.13 0.08 0.05 0.05 0.09 0.22 0.40 0.39 0.59 0.68 0.76 0.81 0.69 0.65 0.63
0.00 0.00 0.01 0.01 0.01 0.01 0.02 0.05 0.07 0.05 0.09 0.12 0.14 0.16 0.18 0.12 0.10 0.12 0.12 0.13 0.10 0.11 0.15 0.12 0.13 0.18 0.18 0.13 0.13 0.46 0.71 0.69 0.60 0.54 0.57 0.51 0.48 0.66
0.01 0.01 0.02 0.01 0.02 0.04 0.07 0.10 0.10 0.05 0.06 0.10 0.14 0.12 0.14 0.16 0.13 0.12 0.11 0.15 0.16 0.13 0.07 0.03 0.08 0.23 0.42 0.46 0.41 0.59 0.63 0.74 0.58 0.58 0.53 0.40 0.58 0.71
0.01 0.01 0.01 0.02 0.04 0.07 0.09 0.09 0.10 0.14 0.18 0.19 0.11 0.11 0.12 0.19 0.12 0.09 0.10 0.10 0.14 0.11 0.07 0.05 0.09 0.23 0.29 0.17 0.23 0.36 0.67 0.70 0.57 0.69 0.52 0.30 0.36 0.30
0.01 0.02 0.01 0.02 0.06 0.11 0.11 0.10 0.09 0.06 0.08 0.08 0.08 0.11 0.12 0.17 0.19 0.13 0.13 0.16 0.11 0.14 0.08 0.04 0.05 0.07 0.08 0.11 0.21 0.31 0.43 0.43 0.36 0.34 0.48 0.43 0.38 0.54
0.02 0.02 0.02 0.04 0.08 0.10 0.10 0.08 0.07 0.06 0.09 0.14 0.11 0.12 0.17 0.17 0.11 0.12 0.12 0.14 0.15 0.10 0.06 0.05 0.04 0.04 0.05 0.09 0.10 0.17 0.17 0.23 0.20 0.18 0.58 0.59 0.61 0.66

GFSNE_prec_precacc24_045.txt.gz
Total_Precipitation_Accumulation
0.00 0.00 0.00 0.00 0.00 0.00 0.00 0.00 0.00 0.00 0.00 0.00 0.00 0.00 0.00 0.00 0.00 0.00 0.00 0.00 0.00 0.00 0.00 0.00 0.00 0.00 0.01 0.01 0.03 0.06 0.08 0.10 0.13 0.13 0.13 0.13 0.14 0.14
0.00 0.00 0.00 0.00 0.00 0.00 0.00 0.00 0.00 0.00 0.00 0.00 0.00 0.00 0.00 0.00 0.00 0.00 0.00 0.00 0.00 0.00 0.00 0.00 0.02 0.03 0.04 0.04 0.04 0.05 0.07 0.08 0.11 0.14 0.17 0.18 0.19 0.20
0.00 0.00 0.00 0.00 0.00 0.00 0.00 0.00 0.00 0.00 0.00 0.00 0.00 0.00 0.00 0.00 0.00 0.00 0.00 0.00 0.00 0.01 0.02 0.03 0.02 0.02 0.02 0.02 0.03 0.05 0.06 0.09 0.12 0.15 0.19 0.23 0.27 0.30
0.00 0.00 0.00 0.00 0.00 0.00 0.00 0.00 0.00 0.00 0.00 0.02 0.00 0.00 0.00 0.00 0.00 0.00 0.00 0.01 0.02 0.02 0.01 0.00 0.00 0.00 0.01 0.01 0.03 0.04 0.05 0.06 0.08 0.10 0.12 0.15 0.16 0.18
0.00 0.00 0.00 0.00 0.00 0.00 0.00 0.00 0.00 0.00 0.02 0.04 0.01 0.00 0.00 0.00 0.01 0.01 0.01 0.00 0.00 0.00 0.00 0.00 0.00 0.00 0.00 0.01 0.04 0.09 0.12 0.11 0.12 0.14 0.15 0.15 0.16 0.16
0.00 0.00 0.00 0.00 0.00 0.00 0.00 0.00 0.01 0.01 0.00 0.02 0.09 0.11 0.07 0.05 0.07 0.03 0.00 0.00 0.00 0.00 0.00 0.00 0.01 0.00 0.00 0.01 0.01 0.02 0.02 0.02 0.03 0.04 0.05 0.06 0.08 0.10
0.00 0.00 0.00 0.00 0.00 0.00 0.01 0.01 0.01 0.03 0.13 0.27 0.26 0.21 0.16 0.06 0.01 0.00 0.00 0.00 0.01 0.01 0.01 0.00 0.00 0.00 0.00 0.00 0.00 0.00 0.00 0.02 0.04 0.07 0.11 0.13 0.13 0.11
0.00 0.00 0.00 0.00 0.00 0.00 0.01 0.03 0.04 0.13 0.29 0.37 0.35 0.16 0.03 0.00 0.00 0.02 0.11 0.15 0.09 0.01 0.01 0.01 0.00 0.00 0.00 0.00 0.00 0.02 0.04 0.05 0.06 0.10 0.15 0.18 0.18 0.18
0.00 0.00 0.00 0.00 0.00 0.00 0.00 0.04 0.12 0.25 0.25 0.12 0.03 0.01 0.00 0.03 0.22 0.24 0.13 0.10 0.07 0.01 0.02 0.04 0.00 0.00 0.00 0.00 0.01 0.01 0.02 0.04 0.04 0.05 0.08 0.10 0.11 0.12
0.00 0.00 0.00 0.00 0.01 0.02 0.05 0.19 0.19 0.09 0.01 0.00 0.01 0.02 0.06 0.10 0.09 0.08 0.07 0.07 0.03 0.00 0.01 0.09 0.01 0.01 0.00 0.00 0.00 0.01 0.00 0.02 0.05 0.08 0.10 0.12 0.12 0.11
0.00 0.00 0.01 0.01 0.01 0.06 0.15 0.21 0.04 0.00 0.00 0.01 0.06 0.04 0.01 0.00 0.01 0.15 0.18 0.15 0.08 0.00 0.00 0.04 0.02 0.00 0.00 0.00 0.00 0.00 0.06 0.11 0.10 0.09 0.12 0.16 0.19 0.22
0.00 0.00 0.01 0.02 0.03 0.18 0.10 0.02 0.01 0.01 0.11 0.07 0.01 0.00 0.00 0.00 0.01 0.04 0.18 0.43 0.17 0.14 0.00 0.15 0.09 0.05 0.23 0.02 0.00 0.02 0.01 0.00 0.01 0.02 0.02 0.05 0.08 0.10
0.01 0.00 0.00 0.04 0.15 0.10 0.02 0.00 0.01 0.04 0.05 0.00 0.00 0.00 0.00 0.00 0.00 0.01 0.07 0.42 0.56 0.35 0.02 0.37 0.44 0.08 0.23 0.09 0.00 0.00 0.01 0.01 0.01 0.01 0.02 0.03 0.06 0.12
0.01 0.00 0.01 0.10 0.04 0.00 0.00 0.01 0.03 0.02 0.00 0.00 0.01 0.00 0.00 0.01 0.01 0.01 0.03 0.07 0.18 0.46 0.21 0.27 0.64 0.25 0.39 0.20 0.03 0.00 0.00 0.00 0.10 0.17 0.25 0.26 0.17 0.18
0.02 0.05 0.06 0.01 0.00 0.00 0.00 0.01 0.01 0.00 0.02 0.07 0.04 0.02 0.02 0.02 0.03 0.03 0.02 0.01 0.03 0.05 0.11 0.16 0.39 0.33 0.35 0.32 0.18 0.03 0.11 0.07 0.19 0.58 0.82 0.74 0.36 0.27
0.04 0.05 0.01 0.00 0.00 0.00 0.00 0.00 0.00 0.01 0.07 0.12 0.09 0.03 0.02 0.03 0.04 0.06 0.12 0.05 0.12 0.02 0.02 0.08 0.20 0.34 0.31 0.09 0.26 0.19 0.14 0.43 0.31 0.42 0.73 0.80 0.78 0.42
0.02 0.00 0.00 0.00 0.00 0.00 0.00 0.00 0.00 0.01 0.05 0.05 0.08 0.07 0.04 0.03 0.03 0.04 0.12 0.15 0.16 0.11 0.07 0.02 0.02 0.06 0.10 0.12 0.14 0.14 0.25 0.41 0.43 0.59 0.75 0.72 0.76 0.36
0.00 0.00 0.00 0.00 0.00 0.00 0.00 0.01 0.01 0.02 0.05 0.08 0.06 0.07 0.10 0.09 0.08 0.04 0.06 0.13 0.19 0.09 0.13 0.09 0.05 0.03 0.01 0.04 0.17 0.36 0.35 0.50 0.51 0.60 0.69 0.63 0.49 0.41
0.00 0.00 0.01 0.01 0.00 0.01 0.02 0.05 0.05 0.03 0.06 0.09 0.10 0.12 0.14 0.08 0.05 0.06 0.06 0.08 0.06 0.09 0.13 0.09 0.11 0.16 0.15 0.09 0.08 0.38 0.67 0.60 0.49 0.47 0.50 0.47 0.46 0.54
0.00 0.01 0.01 0.01 0.01 0.04 0.06 0.08 0.08 0.04 0.04 0.06 0.11 0.10 0.12 0.15 0.11 0.10 0.09 0.14 0.17 0.14 0.08 0.03 0.07 0.18 0.39 0.42 0.37 0.48 0.55 0.68 0.58 0.58 0.48 0.36 0.52 0.61
0.01 0.01 0.01 0.01 0.04 0.07 0.07 0.07 0.07 0.10 0.15 0.17 0.10 0.11 0.12 0.19 0.12 0.08 0.09 0.09 0.14 0.12 0.09 0.05 0.09 0.22 0.25 0.12 0.17 0.27 0.51 0.57 0.53 0.72 0.53 0.29 0.32 0.22
0.00 0.01 0.01 0.02 0.06 0.09 0.08 0.07 0.07 0.04 0.08 0.08 0.08 0.11 0.12 0.17 0.19 0.13 0.10 0.14 0.10 0.13 0.08 0.03 0.05 0.07 0.08 0.09 0.17 0.26 0.35 0.33 0.29 0.30 0.49 0.49 0.46 0.60
0.01 0.02 0.01 0.04 0.06 0.07 0.07 0.05 0.06 0.05 0.09 0.15 0.11 0.14 0.18 0.18 0.11 0.12 0.11 0.12 0.14 0.09 0.04 0.03 0.03 0.04 0.05 0.09 0.09 0.16 0.15 0.21 0.18 0.17 0.57 0.59 0.64 0.75

GFSNE_prec_precacc24_048.txt.gz
Total_Precipitation_Accumulation
0.00 0.00 0.00 0.00 0.00 0.00 0.00 0.00 0.00 0.00 0.00 0.00 0.00 0.00 0.00 0.00 0.00 0.00 0.00 0.00 0.00 0.00 0.00 0.00 0.00 0.00 0.01 0.01 0.03 0.05 0.08 0.10 0.13 0.15 0.16 0.16 0.15 0.14
0.00 0.00 0.00 0.00 0.00 0.00 0.00 0.00 0.00 0.00 0.00 0.00 0.00 0.00 0.00 0.00 0.00 0.00 0.00 0.00 0.00 0.00 0.00 0.00 0.02 0.03 0.04 0.04 0.04 0.06 0.07 0.09 0.11 0.15 0.21 0.24 0.23 0.23
0.00 0.00 0.00 0.00 0.00 0.00 0.00 0.00 0.00 0.00 0.00 0.00 0.00 0.00 0.00 0.00 0.00 0.00 0.00 0.00 0.00 0.01 0.02 0.03 0.02 0.02 0.02 0.02 0.03 0.05 0.06 0.09 0.12 0.16 0.19 0.25 0.31 0.32
0.00 0.00 0.00 0.00 0.00 0.00 0.00 0.00 0.00 0.00 0.00 0.02 0.00 0.00 0.00 0.00 0.00 0.00 0.00 0.01 0.02 0.02 0.01 0.00 0.00 0.00 0.01 0.01 0.02 0.04 0.04 0.06 0.07 0.09 0.12 0.15 0.17 0.19
0.00 0.00 0.00 0.00 0.00 0.00 0.00 0.00 0.00 0.00 0.01 0.03 0.01 0.00 0.00 0.00 0.01 0.01 0.01 0.00 0.00 0.00 0.00 0.00 0.00 0.00 0.00 0.01 0.03 0.09 0.12 0.10 0.10 0.11 0.13 0.14 0.15 0.16
0.00 0.00 0.00 0.00 0.00 0.00 0.00 0.00 0.00 0.00 0.00 0.01 0.08 0.11 0.07 0.06 0.06 0.02 0.00 0.00 0.00 0.00 0.00 0.00 0.01 0.00 0.00 0.00 0.00 0.01 0.01 0.01 0.02 0.03 0.04 0.05 0.08 0.10
0.00 0.00 0.00 0.00 0.00 0.00 0.01 0.01 0.01 0.02 0.10 0.24 0.25 0.20 0.13 0.03 0.00 0.00 0.00 0.00 0.01 0.01 0.01 0.00 0.00 0.00 0.00 0.00 0.00 0.00 0.00 0.02 0.04 0.06 0.10 0.13 0.12 0.11
0.00 0.00 0.00 0.00 0.00 0.00 0.01 0.02 0.03 0.11 0.27 0.35 0.30 0.10 0.01 0.00 0.00 0.02 0.11 0.14 0.09 0.01 0.01 0.01 0.00 0.00 0.00 0.00 0.00 0.01 0.02 0.04 0.06 0.10 0.14 0.16 0.17 0.18
0.00 0.00 0.00 0.00 0.00 0.00 0.00 0.03 0.10 0.20 0.22 0.11 0.03 0.01 0.00 0.03 0.21 0.23 0.12 0.08 0.06 0.01 0.02 0.04 0.00 0.00 0.00 0.00 0.00 0.00 0.01 0.03 0.03 0.04 0.07 0.09 0.11 0.12
0.00 0.00 0.00 0.00 0.01 0.02 0.04 0.18 0.18 0.08 0.01 0.00 0.00 0.01 0.05 0.10 0.09 0.11 0.08 0.07 0.02 0.00 0.01 0.08 0.00 0.00 0.00 0.00 0.00 0.00 0.00 0.02 0.04 0.06 0.09 0.11 0.11 0.11
0.00 0.00 0.01 0.01 0.01 0.05 0.14 0.18 0.03 0.00 0.00 0.00 0.05 0.04 0.01 0.00 0.01 0.14 0.16 0.13 0.07 0.00 0.00 0.03 0.02 0.00 0.00 0.00 0.00 0.00 0.01 0.04 0.06 0.08 0.11 0.16 0.19 0.22
0.00 0.00 0.01 0.01 0.03 0.15 0.08 0.02 0.01 0.01 0.10 0.06 0.01 0.00 0.00 0.00 0.00 0.04 0.17 0.41 0.15 0.13 0.00 0.16 0.09 0.05 0.22 0.02 0.00 0.00 0.00 0.00 0.00 0.01 0.02 0.05 0.08 0.10
0.01 0.00 0.00 0.03 0.12 0.07 0.02 0.00 0.01 0.04 0.04 0.00 0.00 0.00 0.00 0.00 0.00 0.00 0.06 0.41 0.53 0.32 0.01 0.38 0.43 0.07 0.22 0.07 0.00 0.00 0.00 0.00 0.01 0.01 0.01 0.02 0.06 0.13
0.00 0.00 0.01 0.07 0.02 0.00 0.00 0.01 0.03 0.02 0.00 0.00 0.00 0.00 0.00 0.01 0.01 0.01 0.03 0.07 0.18 0.44 0.20 0.26 0.63 0.24 0.37 0.18 0.02 0.00 0.00 0.00 0.06 0.11 0.16 0.19 0.17 0.19
0.02 0.04 0.04 0.01 0.00 0.00 0.00 0.00 0.00 0.00 0.02 0.05 0.03 0.01 0.02 0.02 0.03 0.03 0.01 0.01 0.02 0.05 0.10 0.13 0.33 0.27 0.31 0.32 0.20 0.04 0.11 0.07 0.12 0.40 0.67 0.65 0.33 0.27
0.02 0.03 0.00 0.00 0.00 0.00 0.00 0.00 0.00 0.01 0.06 0.09 0.06 0.02 0.02 0.03 0.04 0.05 0.08 0.03 0.08 0.01 0.00 0.05 0.16 0.34 0.34 0.11 0.28 0.20 0.13 0.39 0.24 0.28 0.61 0.73 0.70 0.39
0.01 0.00 0.00 0.00 0.00 0.00 0.00 0.00 0.00 0.00 0.03 0.02 0.06 0.06 0.03 0.02 0.02 0.03 0.09 0.11 0.11 0.08 0.05 0.01 0.01 0.05 0.10 0.10 0.16 0.12 0.23 0.37 0.34 0.49 0.68 0.65 0.57 0.24
0.00 0.00 0.00 0.00 0.00 0.00 0.00 0.01 0.00 0.01 0.03 0.05 0.05 0.05 0.08 0.07 0.06 0.03 0.04 0.11 0.16 0.08 0.10 0.05 0.04 0.03 0.01 0.01 0.15 0.33 0.31 0.43 0.44 0.51 0.59 0.60 0.36 0.21
0.00 0.00 0.00 0.00 0.00 0.01 0.02 0.03 0.03 0.02 0.04 0.07 0.08 0.09 0.12 0.08 0.03 0.04 0.05 0.07 0.06 0.08 0.11 0.07 0.09 0.16 0.16 0.07 0.05 0.31 0.63 0.54 0.45 0.41 0.41 0.40 0.38 0.34
0.00 0.00 0.01 0.00 0.01 0.03 0.04 0.05 0.06 0.02 0.03 0.05 0.10 0.09 0.11 0.13 0.08 0.08 0.07 0.13 0.16 0.13 0.05 0.03 0.05 0.16 0.42 0.42 0.34 0.36 0.44 0.63 0.59 0.56 0.41 0.26 0.39 0.42
0.00 0.00 0.00 0.01 0.03 0.04 0.05 0.04 0.06 0.09 0.15 0.17 0.10 0.10 0.10 0.18 0.10 0.05 0.07 0.07 0.11 0.10 0.07 0.03 0.09 0.19 0.20 0.09 0.13 0.19 0.36 0.47 0.52 0.76 0.55 0.29 0.26 0.16
0.00 0.01 0.01 0.01 0.04 0.06 0.06 0.06 0.06 0.04 0.08 0.08 0.08 0.12 0.13 0.16 0.19 0.13 0.09 0.13 0.08 0.09 0.07 0.03 0.05 0.07 0.04 0.07 0.15 0.21 0.28 0.25 0.23 0.27 0.48 0.53 0.53 0.65
0.01 0.01 0.01 0.03 0.04 0.06 0.07 0.05 0.05 0.05 0.09 0.15 0.11 0.15 0.19 0.19 0.12 0.12 0.10 0.11 0.13 0.09 0.03 0.02 0.03 0.04 0.04 0.06 0.08 0.13 0.11 0.15 0.13 0.15 0.53 0.54 0.60 0.75

GFSNE_prec_precacc24_054.txt.gz
Total_Precipitation_Accumulation
0.00 0.00 0.00 0.00 0.00 0.00 0.00 0.00 0.00 0.00 0.00 0.00 0.00 0.00 0.00 0.00 0.00 0.00 0.00 0.00 0.00 0.00 0.00 0.00 0.00 0.00 0.00 0.01 0.02 0.06 0.09 0.13 0.18 0.22 0.24 0.24 0.23 0.23
0.00 0.00 0.00 0.00 0.00 0.00 0.00 0.00 0.00 0.00 0.00 0.00 0.00 0.00 0.00 0.00 0.00 0.00 0.00 0.00 0.00 0.00 0.00 0.00 0.01 0.01 0.02 0.03 0.03 0.05 0.07 0.10 0.12 0.19 0.29 0.34 0.32 0.31
0.00 0.00 0.00 0.00 0.00 0.00 0.00 0.00 0.00 0.00 0.00 0.00 0.00 0.00 0.00 0.00 0.00 0.00 0.00 0.00 0.00 0.01 0.02 0.01 0.00 0.01 0.00 0.01 0.03 0.05 0.06 0.08 0.11 0.15 0.19 0.28 0.37 0.38
0.00 0.00 0.00 0.00 0.00 0.00 0.00 0.00 0.00 0.00 0.00 0.01 0.00 0.00 0.00 0.00 0.00 0.00 0.00 0.01 0.02 0.01 0.00 0.00 0.00 0.00 0.00 0.01 0.02 0.04 0.05 0.06 0.07 0.09 0.11 0.14 0.15 0.18
0.00 0.00 0.00 0.00 0.00 0.00 0.00 0.00 0.00 0.00 0.01 0.02 0.00 0.00 0.00 0.00 0.01 0.01 0.00 0.00 0.00 0.00 0.00 0.00 0.00 0.00 0.00 0.01 0.03 0.06 0.09 0.08 0.09 0.09 0.10 0.11 0.12 0.13
0.00 0.00 0.00 0.00 0.00 0.00 0.00 0.00 0.00 0.00 0.00 0.01 0.03 0.06 0.05 0.04 0.03 0.00 0.00 0.00 0.00 0.00 0.00 0.00 0.00 0.00 0.00 0.00 0.00 0.00 0.00 0.01 0.02 0.02 0.03 0.05 0.07 0.09
0.00 0.00 0.00 0.00 0.00 0.00 0.00 0.00 0.00 0.01 0.04 0.14 0.19 0.14 0.07 0.01 0.00 0.00 0.00 0.00 0.01 0.00 0.00 0.00 0.00 0.00 0.00 0.00 0.00 0.00 0.00 0.01 0.02 0.02 0.06 0.08 0.09 0.08
0.00 0.00 0.00 0.00 0.00 0.00 0.01 0.02 0.02 0.07 0.23 0.23 0.14 0.05 0.01 0.00 0.00 0.02 0.08 0.08 0.06 0.00 0.00 0.00 0.00 0.00 0.00 0.00 0.00 0.00 0.01 0.01 0.02 0.05 0.09 0.12 0.14 0.16
0.00 0.00 0.00 0.00 0.00 0.00 0.00 0.02 0.08 0.12 0.09 0.04 0.02 0.00 0.00 0.02 0.14 0.14 0.08 0.08 0.05 0.00 0.02 0.04 0.00 0.00 0.00 0.00 0.00 0.00 0.00 0.01 0.02 0.02 0.05 0.08 0.10 0.11
0.00 0.00 0.00 0.00 0.00 0.01 0.03 0.15 0.09 0.01 0.00 0.00 0.00 0.01 0.03 0.06 0.06 0.16 0.10 0.05 0.01 0.00 0.00 0.07 0.00 0.00 0.00 0.00 0.00 0.00 0.00 0.01 0.01 0.02 0.04 0.07 0.08 0.10
0.00 0.00 0.00 0.00 0.01 0.04 0.08 0.06 0.01 0.00 0.00 0.00 0.03 0.02 0.01 0.00 0.00 0.10 0.09 0.08 0.04 0.00 0.00 0.02 0.01 0.00 0.00 0.00 0.00 0.00 0.00 0.00 0.01 0.01 0.03 0.06 0.12 0.17
0.00 0.00 0.00 0.01 0.02 0.07 0.04 0.01 0.00 0.00 0.08 0.05 0.01 0.00 0.00 0.00 0.00 0.02 0.10 0.30 0.11 0.12 0.00 0.13 0.07 0.04 0.19 0.01 0.00 0.00 0.00 0.00 0.00 0.00 0.01 0.04 0.06 0.09
0.00 0.00 0.00 0.02 0.04 0.03 0.02 0.00 0.01 0.03 0.04 0.00 0.00 0.00 0.00 0.00 0.00 0.00 0.03 0.27 0.40 0.25 0.01 0.32 0.36 0.05 0.21 0.06 0.00 0.00 0.00 0.00 0.01 0.00 0.00 0.02 0.05 0.12
0.00 0.00 0.00 0.03 0.02 0.00 0.00 0.01 0.02 0.01 0.00 0.00 0.00 0.00 0.00 0.00 0.00 0.00 0.01 0.03 0.10 0.30 0.13 0.17 0.54 0.19 0.34 0.17 0.01 0.00 0.00 0.00 0.03 0.05 0.08 0.11 0.13 0.17
0.01 0.02 0.01 0.00 0.00 0.00 0.00 0.00 0.00 0.00 0.00 0.02 0.01 0.01 0.00 0.00 0.00 0.01 0.01 0.00 0.00 0.02 0.04 0.04 0.24 0.21 0.29 0.31 0.19 0.04 0.08 0.04 0.01 0.12 0.25 0.26 0.22 0.25
0.01 0.01 0.00 0.00 0.00 0.00 0.00 0.00 0.00 0.00 0.01 0.03 0.03 0.01 0.00 0.01 0.00 0.01 0.03 0.02 0.05 0.00 0.00 0.01 0.09 0.27 0.35 0.12 0.29 0.21 0.07 0.23 0.12 0.12 0.29 0.35 0.46 0.35
0.01 0.00 0.00 0.00 0.00 0.00 0.00 0.00 0.00 0.00 0.01 0.01 0.03 0.03 0.02 0.01 0.01 0.00 0.03 0.08 0.09 0.03 0.02 0.00 0.00 0.04 0.09 0.10 0.17 0.08 0.13 0.21 0.18 0.29 0.49 0.43 0.37 0.16
0.00 0.00 0.00 0.00 0.00 0.00 0.00 0.00 0.00 0.00 0.01 0.03 0.03 0.03 0.05 0.04 0.04 0.02 0.01 0.07 0.10 0.03 0.04 0.02 0.02 0.04 0.01 0.00 0.10 0.23 0.19 0.26 0.20 0.27 0.38 0.42 0.19 0.06
0.00 0.00 0.00 0.00 0.00 0.00 0.01 0.01 0.02 0.01 0.02 0.05 0.05 0.05 0.10 0.08 0.02 0.03 0.02 0.04 0.04 0.02 0.04 0.03 0.06 0.17 0.19 0.05 0.02 0.10 0.49 0.38 0.20 0.20 0.19 0.21 0.22 0.09
0.00 0.00 0.01 0.00 0.01 0.01 0.02 0.03 0.03 0.01 0.02 0.03 0.08 0.09 0.11 0.14 0.07 0.05 0.04 0.11 0.13 0.09 0.04 0.01 0.02 0.16 0.47 0.44 0.35 0.12 0.21 0.48 0.50 0.43 0.21 0.14 0.14 0.17
0.00 0.00 0.00 0.01 0.01 0.02 0.03 0.03 0.04 0.07 0.13 0.16 0.09 0.10 0.11 0.20 0.10 0.03 0.05 0.05 0.08 0.09 0.07 0.02 0.04 0.12 0.16 0.12 0.10 0.10 0.15 0.23 0.40 0.72 0.47 0.29 0.15 0.10
0.00 0.01 0.00 0.01 0.02 0.04 0.05 0.04 0.05 0.03 0.07 0.07 0.08 0.13 0.16 0.16 0.17 0.11 0.08 0.13 0.07 0.07 0.07 0.03 0.01 0.02 0.03 0.12 0.13 0.13 0.14 0.10 0.10 0.13 0.33 0.54 0.67 0.74
0.01 0.01 0.01 0.02 0.03 0.05 0.07 0.05 0.04 0.04 0.08 0.14 0.12 0.16 0.20 0.19 0.10 0.09 0.09 0.09 0.12 0.11 0.05 0.03 0.01 0.01 0.02 0.08 0.12 0.13 0.07 0.08 0.08 0.08 0.23 0.35 0.44 0.60

GFSNE_prec_precacc24_057.txt.gz
Total_Precipitation_Accumulation
0.00 0.00 0.00 0.00 0.00 0.00 0.00 0.00 0.00 0.00 0.00 0.00 0.00 0.00 0.00 0.00 0.00 0.00 0.00 0.00 0.00 0.00 0.00 0.00 0.00 0.00 0.00 0.01 0.02 0.05 0.08 0.11 0.16 0.21 0.24 0.26 0.26 0.27
0.00 0.00 0.00 0.00 0.00 0.00 0.00 0.00 0.00 0.00 0.00 0.00 0.00 0.00 0.00 0.00 0.00 0.00 0.00 0.00 0.00 0.00 0.00 0.00 0.01 0.01 0.01 0.02 0.02 0.02 0.03 0.06 0.09 0.17 0.28 0.35 0.36 0.35
0.00 0.00 0.00 0.00 0.00 0.00 0.00 0.00 0.00 0.00 0.00 0.00 0.00 0.00 0.00 0.00 0.00 0.00 0.00 0.00 0.00 0.00 0.01 0.01 0.00 0.01 0.00 0.01 0.02 0.04 0.05 0.08 0.11 0.14 0.19 0.29 0.37 0.38
0.00 0.00 0.00 0.00 0.00 0.00 0.00 0.00 0.00 0.00 0.00 0.01 0.00 0.00 0.00 0.00 0.00 0.00 0.00 0.00 0.00 0.00 0.00 0.00 0.00 0.00 0.00 0.01 0.02 0.04 0.05 0.06 0.07 0.09 0.10 0.12 0.13 0.16
0.01 0.01 0.01 0.00 0.00 0.00 0.00 0.00 0.00 0.00 0.01 0.02 0.00 0.00 0.00 0.00 0.01 0.00 0.00 0.00 0.00 0.00 0.00 0.00 0.00 0.00 0.00 0.01 0.03 0.05 0.05 0.05 0.05 0.05 0.07 0.08 0.10 0.12
0.01 0.00 0.00 0.00 0.00 0.00 0.00 0.00 0.00 0.00 0.00 0.00 0.03 0.06 0.05 0.02 0.01 0.00 0.00 0.00 0.00 0.00 0.00 0.00 0.00 0.00 0.00 0.00 0.00 0.00 0.00 0.00 0.01 0.02 0.03 0.05 0.07 0.10
0.00 0.00 0.00 0.00 0.00 0.00 0.00 0.00 0.00 0.01 0.03 0.12 0.17 0.08 0.02 0.00 0.00 0.00 0.00 0.00 0.00 0.00 0.00 0.00 0.00 0.00 0.00 0.00 0.00 0.00 0.00 0.01 0.02 0.02 0.05 0.07 0.08 0.08
0.00 0.00 0.00 0.00 0.00 0.00 0.00 0.01 0.02 0.07 0.19 0.14 0.06 0.03 0.01 0.00 0.00 0.01 0.05 0.05 0.05 0.00 0.00 0.00 0.00 0.00 0.00 0.00 0.00 0.00 0.00 0.01 0.01 0.03 0.07 0.09 0.11 0.13
0.00 0.00 0.00 0.00 0.00 0.00 0.00 0.01 0.06 0.08 0.05 0.03 0.02 0.00 0.00 0.01 0.09 0.10 0.07 0.08 0.05 0.00 0.01 0.03 0.00 0.00 0.00 0.00 0.00 0.00 0.00 0.00 0.02 0.02 0.04 0.07 0.09 0.10
0.00 0.00 0.00 0.00 0.00 0.00 0.02 0.10 0.05 0.01 0.00 0.00 0.00 0.00 0.03 0.05 0.07 0.17 0.10 0.04 0.01 0.00 0.00 0.04 0.00 0.00 0.00 0.00 0.00 0.00 0.00 0.00 0.01 0.02 0.03 0.05 0.07 0.09
0.00 0.00 0.00 0.00 0.00 0.03 0.06 0.04 0.01 0.00 0.00 0.00 0.02 0.02 0.01 0.00 0.00 0.06 0.05 0.06 0.04 0.00 0.00 0.01 0.00 0.00 0.00 0.00 0.00 0.00 0.00 0.00 0.00 0.01 0.02 0.04 0.07 0.11
0.00 0.00 0.00 0.00 0.02 0.06 0.03 0.01 0.00 0.00 0.05 0.03 0.01 0.00 0.00 0.00 0.00 0.01 0.05 0.23 0.10 0.11 0.00 0.11 0.05 0.04 0.16 0.01 0.00 0.00 0.00 0.00 0.00 0.00 0.01 0.03 0.05 0.08
0.00 0.00 0.00 0.01 0.03 0.03 0.02 0.00 0.00 0.02 0.03 0.00 0.00 0.00 0.00 0.00 0.00 0.00 0.01 0.20 0.33 0.22 0.00 0.29 0.33 0.05 0.19 0.05 0.00 0.00 0.00 0.00 0.01 0.00 0.00 0.01 0.05 0.11
0.00 0.00 0.00 0.02 0.01 0.00 0.00 0.00 0.01 0.01 0.00 0.00 0.00 0.00 0.00 0.00 0.00 0.00 0.00 0.01 0.06 0.21 0.08 0.13 0.49 0.16 0.31 0.16 0.01 0.00 0.00 0.00 0.02 0.03 0.04 0.07 0.09 0.14
0.01 0.01 0.01 0.00 0.00 0.00 0.00 0.00 0.00 0.00 0.00 0.01 0.01 0.01 0.00 0.00 0.00 0.00 0.01 0.00 0.00 0.00 0.01 0.02 0.19 0.18 0.28 0.30 0.18 0.04 0.07 0.04 0.01 0.06 0.13 0.14 0.14 0.20
0.00 0.01 0.00 0.00 0.00 0.00 0.00 0.00 0.00 0.00 0.01 0.02 0.02 0.01 0.00 0.01 0.00 0.00 0.03 0.02 0.05 0.00 0.00 0.00 0.06 0.22 0.33 0.12 0.26 0.18 0.03 0.16 0.08 0.07 0.17 0.20 0.27 0.27
0.01 0.00 0.00 0.00 0.00 0.00 0.00 0.00 0.00 0.00 0.01 0.01 0.03 0.03 0.02 0.01 0.01 0.00 0.02 0.07 0.09 0.02 0.01 0.00 0.00 0.03 0.08 0.09 0.15 0.04 0.08 0.14 0.12 0.19 0.31 0.25 0.16 0.10
0.00 0.00 0.00 0.00 0.00 0.00 0.00 0.00 0.00 0.00 0.01 0.03 0.03 0.03 0.04 0.03 0.04 0.02 0.01 0.06 0.07 0.02 0.02 0.01 0.01 0.05 0.01 0.00 0.07 0.18 0.12 0.14 0.13 0.18 0.23 0.29 0.13 0.02
0.00 0.00 0.00 0.00 0.00 0.00 0.00 0.01 0.01 0.01 0.02 0.05 0.05 0.04 0.08 0.08 0.02 0.03 0.02 0.04 0.03 0.01 0.02 0.01 0.06 0.19 0.21 0.04 0.01 0.05 0.42 0.29 0.15 0.16 0.12 0.16 0.19 0.05
0.00 0.00 0.00 0.00 0.00 0.01 0.02 0.03 0.03 0.01 0.02 0.03 0.08 0.09 0.11 0.15 0.06 0.05 0.04 0.10 0.12 0.09 0.04 0.00 0.02 0.17 0.48 0.43 0.35 0.08 0.11 0.41 0.47 0.39 0.14 0.08 0.10 0.12
0.00 0.00 0.00 0.00 0.01 0.02 0.03 0.03 0.04 0.07 0.11 0.15 0.09 0.10 0.11 0.19 0.10 0.03 0.05 0.04 0.08 0.09 0.08 0.01 0.02 0.07 0.15 0.14 0.11 0.04 0.05 0.07 0.32 0.68 0.46 0.28 0.11 0.09
0.00 0.00 0.00 0.01 0.02 0.04 0.04 0.04 0.04 0.02 0.06 0.07 0.08 0.13 0.14 0.15 0.16 0.12 0.08 0.12 0.07 0.07 0.08 0.03 0.00 0.03 0.07 0.17 0.12 0.07 0.07 0.02 0.03 0.06 0.24 0.53 0.70 0.75
0.00 0.00 0.01 0.02 0.03 0.04 0.06 0.05 0.04 0.04 0.07 0.13 0.11 0.14 0.18 0.18 0.10 0.10 0.08 0.08 0.12 0.13 0.06 0.04 0.00 0.01 0.05 0.13 0.16 0.14 0.06 0.05 0.04 0.04 0.07 0.18 0.31 0.48

GFSNE_prec_precacc24_060.txt.gz
Total_Precipitation_Accumulation
0.00 0.00 0.00 0.00 0.00 0.00 0.00 0.00 0.00 0.00 0.00 0.00 0.00 0.00 0.00 0.00 0.00 0.00 0.00 0.00 0.00 0.00 0.00 0.00 0.00 0.00 0.00 0.01 0.02 0.05 0.08 0.10 0.14 0.18 0.22 0.23 0.24 0.25
0.00 0.00 0.00 0.00 0.00 0.00 0.01 0.01 0.00 0.00 0.00 0.00 0.00 0.00 0.00 0.00 0.00 0.00 0.00 0.00 0.00 0.00 0.00 0.00 0.00 0.00 0.01 0.01 0.02 0.02 0.03 0.05 0.06 0.13 0.24 0.31 0.31 0.32
0.00 0.00 0.01 0.01 0.02 0.02 0.02 0.00 0.00 0.00 0.00 0.00 0.00 0.00 0.00 0.00 0.00 0.00 0.00 0.00 0.00 0.00 0.00 0.00 0.00 0.01 0.00 0.00 0.01 0.01 0.02 0.05 0.09 0.12 0.16 0.26 0.34 0.34
0.01 0.01 0.01 0.02 0.03 0.02 0.00 0.00 0.00 0.00 0.00 0.00 0.00 0.00 0.00 0.00 0.00 0.00 0.00 0.00 0.00 0.00 0.00 0.00 0.00 0.00 0.00 0.01 0.01 0.02 0.04 0.05 0.06 0.07 0.09 0.11 0.13 0.15
0.02 0.03 0.03 0.03 0.02 0.01 0.01 0.00 0.00 0.00 0.00 0.01 0.00 0.00 0.00 0.00 0.00 0.00 0.00 0.00 0.00 0.00 0.00 0.00 0.00 0.00 0.00 0.01 0.01 0.02 0.02 0.03 0.03 0.02 0.03 0.04 0.06 0.08
0.06 0.05 0.05 0.03 0.03 0.01 0.00 0.00 0.00 0.00 0.00 0.00 0.02 0.05 0.03 0.01 0.00 0.00 0.00 0.00 0.00 0.00 0.00 0.00 0.00 0.00 0.00 0.00 0.00 0.00 0.00 0.00 0.01 0.02 0.02 0.04 0.06 0.08
0.11 0.10 0.07 0.04 0.02 0.00 0.00 0.00 0.00 0.01 0.02 0.08 0.12 0.05 0.01 0.00 0.00 0.00 0.00 0.00 0.00 0.00 0.00 0.00 0.00 0.00 0.00 0.00 0.00 0.00 0.00 0.01 0.01 0.02 0.04 0.06 0.08 0.09
0.07 0.04 0.02 0.01 0.00 0.00 0.00 0.01 0.01 0.03 0.12 0.11 0.06 0.03 0.01 0.00 0.00 0.00 0.03 0.04 0.05 0.00 0.00 0.00 0.00 0.00 0.00 0.00 0.00 0.00 0.00 0.01 0.01 0.02 0.04 0.07 0.09 0.11
0.04 0.02 0.01 0.00 0.00 0.00 0.00 0.01 0.03 0.05 0.04 0.03 0.02 0.00 0.00 0.00 0.05 0.08 0.07 0.08 0.05 0.00 0.00 0.01 0.00 0.00 0.00 0.00 0.00 0.00 0.00 0.00 0.01 0.02 0.03 0.05 0.07 0.09
0.01 0.00 0.00 0.00 0.00 0.00 0.01 0.05 0.04 0.01 0.00 0.00 0.00 0.00 0.01 0.03 0.07 0.19 0.09 0.02 0.00 0.00 0.00 0.02 0.00 0.00 0.00 0.00 0.00 0.00 0.00 0.00 0.00 0.01 0.02 0.03 0.05 0.07
0.00 0.00 0.00 0.00 0.00 0.01 0.04 0.04 0.01 0.00 0.00 0.00 0.01 0.01 0.01 0.01 0.00 0.02 0.03 0.04 0.03 0.00 0.00 0.00 0.00 0.00 0.00 0.00 0.00 0.00 0.00 0.00 0.00 0.00 0.01 0.03 0.06 0.08
0.00 0.00 0.00 0.00 0.01 0.04 0.03 0.01 0.00 0.00 0.02 0.02 0.00 0.00 0.00 0.00 0.00 0.00 0.02 0.18 0.09 0.10 0.00 0.09 0.04 0.03 0.13 0.01 0.00 0.00 0.00 0.00 0.00 0.00 0.00 0.03 0.05 0.07
0.00 0.00 0.00 0.00 0.02 0.02 0.01 0.00 0.00 0.01 0.02 0.00 0.00 0.00 0.00 0.00 0.00 0.00 0.01 0.15 0.26 0.18 0.00 0.25 0.30 0.05 0.18 0.05 0.00 0.00 0.00 0.00 0.00 0.00 0.00 0.01 0.04 0.11
0.00 0.00 0.00 0.01 0.01 0.00 0.00 0.00 0.01 0.01 0.00 0.00 0.00 0.00 0.00 0.00 0.00 0.00 0.00 0.01 0.04 0.14 0.04 0.11 0.46 0.14 0.29 0.15 0.01 0.00 0.00 0.00 0.01 0.02 0.02 0.03 0.05 0.11
0.00 0.01 0.01 0.00 0.00 0.00 0.00 0.00 0.00 0.00 0.00 0.00 0.01 0.00 0.00 0.00 0.00 0.00 0.00 0.00 0.00 0.00 0.00 0.01 0.16 0.16 0.27 0.26 0.16 0.04 0.03 0.02 0.00 0.02 0.06 0.07 0.08 0.12
0.00 0.00 0.00 0.00 0.00 0.00 0.00 0.00 0.00 0.00 0.00 0.01 0.02 0.01 0.00 0.01 0.00 0.00 0.03 0.01 0.04 0.00 0.00 0.00 0.04 0.17 0.30 0.11 0.19 0.13 0.01 0.09 0.05 0.05 0.10 0.13 0.14 0.15
0.00 0.00 0.00 0.00 0.00 0.00 0.00 0.00 0.00 0.00 0.00 0.00 0.03 0.03 0.01 0.01 0.01 0.00 0.02 0.07 0.09 0.01 0.00 0.00 0.00 0.02 0.06 0.07 0.14 0.02 0.05 0.09 0.07 0.11 0.16 0.14 0.07 0.06
0.00 0.00 0.00 0.00 0.00 0.00 0.00 0.00 0.00 0.00 0.00 0.02 0.03 0.03 0.04 0.03 0.03 0.02 0.02 0.06 0.07 0.02 0.01 0.00 0.01 0.05 0.01 0.00 0.06 0.14 0.09 0.08 0.08 0.11 0.09 0.21 0.10 0.01
0.00 0.00 0.00 0.00 0.00 0.00 0.00 0.01 0.01 0.00 0.01 0.04 0.04 0.03 0.07 0.08 0.03 0.02 0.02 0.04 0.03 0.01 0.00 0.01 0.08 0.22 0.24 0.04 0.00 0.04 0.42 0.26 0.11 0.12 0.06 0.12 0.16 0.05
0.00 0.00 0.00 0.00 0.00 0.01 0.01 0.02 0.02 0.01 0.02 0.02 0.07 0.09 0.11 0.14 0.06 0.05 0.04 0.09 0.12 0.09 0.05 0.00 0.04 0.22 0.50 0.40 0.32 0.03 0.06 0.39 0.41 0.32 0.09 0.06 0.08 0.08
0.00 0.00 0.00 0.00 0.01 0.02 0.02 0.03 0.03 0.06 0.10 0.13 0.08 0.09 0.10 0.19 0.10 0.03 0.05 0.04 0.08 0.09 0.09 0.01 0.00 0.06 0.15 0.16 0.11 0.01 0.01 0.05 0.26 0.59 0.43 0.31 0.11 0.07
0.00 0.00 0.00 0.01 0.02 0.04 0.04 0.03 0.04 0.02 0.05 0.06 0.08 0.12 0.14 0.15 0.16 0.12 0.08 0.12 0.06 0.05 0.09 0.03 0.00 0.04 0.09 0.21 0.13 0.04 0.02 0.00 0.00 0.03 0.17 0.52 0.76 0.79
0.00 0.00 0.01 0.02 0.03 0.04 0.06 0.04 0.04 0.03 0.06 0.12 0.10 0.13 0.17 0.17 0.10 0.09 0.08 0.07 0.11 0.14 0.08 0.05 0.01 0.01 0.06 0.16 0.19 0.15 0.05 0.02 0.01 0.01 0.01 0.07 0.20 0.41

GFSNE_prec_precacc24_063.txt.gz
Total_Precipitation_Accumulation
0.01 0.00 0.01 0.00 0.00 0.00 0.00 0.00 0.00 0.00 0.00 0.00 0.00 0.00 0.00 0.00 0.00 0.00 0.00 0.00 0.00 0.00 0.00 0.00 0.00 0.00 0.00 0.00 0.00 0.02 0.04 0.07 0.11 0.15 0.19 0.21 0.21 0.23
0.00 0.00 0.00 0.00 0.00 0.00 0.02 0.03 0.04 0.03 0.02 0.00 0.00 0.00 0.00 0.00 0.00 0.00 0.00 0.00 0.00 0.00 0.00 0.00 0.00 0.00 0.00 0.00 0.01 0.01 0.02 0.04 0.05 0.12 0.22 0.30 0.30 0.30
0.00 0.00 0.01 0.02 0.02 0.03 0.05 0.05 0.05 0.03 0.02 0.00 0.00 0.00 0.00 0.00 0.00 0.00 0.00 0.00 0.00 0.00 0.00 0.00 0.00 0.01 0.00 0.00 0.01 0.01 0.02 0.04 0.06 0.08 0.12 0.22 0.30 0.31
0.01 0.01 0.02 0.03 0.06 0.07 0.08 0.07 0.03 0.01 0.00 0.00 0.00 0.00 0.00 0.00 0.00 0.00 0.00 0.00 0.00 0.00 0.00 0.00 0.00 0.00 0.00 0.01 0.01 0.01 0.03 0.04 0.05 0.05 0.06 0.08 0.09 0.12
0.04 0.06 0.10 0.16 0.18 0.18 0.11 0.04 0.02 0.01 0.01 0.01 0.00 0.00 0.00 0.00 0.00 0.00 0.00 0.00 0.00 0.00 0.00 0.00 0.00 0.00 0.00 0.01 0.01 0.01 0.01 0.01 0.01 0.01 0.01 0.02 0.04 0.05
0.11 0.15 0.19 0.19 0.13 0.08 0.04 0.02 0.01 0.01 0.01 0.00 0.01 0.01 0.01 0.01 0.00 0.00 0.00 0.00 0.00 0.00 0.00 0.00 0.00 0.00 0.00 0.00 0.00 0.00 0.00 0.00 0.01 0.02 0.02 0.03 0.04 0.06
0.31 0.26 0.19 0.10 0.05 0.02 0.00 0.00 0.00 0.01 0.01 0.03 0.06 0.04 0.01 0.00 0.00 0.00 0.00 0.00 0.00 0.00 0.00 0.00 0.00 0.00 0.00 0.00 0.00 0.00 0.00 0.00 0.01 0.02 0.03 0.05 0.07 0.08
0.11 0.08 0.05 0.03 0.02 0.01 0.00 0.00 0.01 0.02 0.06 0.08 0.05 0.03 0.01 0.00 0.00 0.00 0.02 0.03 0.04 0.00 0.00 0.00 0.00 0.00 0.00 0.00 0.00 0.00 0.00 0.00 0.01 0.02 0.03 0.05 0.07 0.09
0.08 0.06 0.04 0.02 0.00 0.00 0.00 0.00 0.01 0.03 0.04 0.03 0.02 0.00 0.00 0.00 0.02 0.06 0.07 0.08 0.05 0.00 0.00 0.01 0.00 0.00 0.00 0.00 0.00 0.00 0.00 0.00 0.01 0.01 0.02 0.03 0.05 0.07
0.03 0.01 0.00 0.00 0.00 0.00 0.00 0.02 0.02 0.01 0.00 0.00 0.00 0.00 0.00 0.01 0.06 0.19 0.09 0.01 0.00 0.00 0.00 0.01 0.00 0.00 0.00 0.00 0.00 0.00 0.00 0.00 0.00 0.00 0.01 0.02 0.04 0.05
0.00 0.00 0.00 0.00 0.00 0.01 0.02 0.02 0.01 0.00 0.00 0.00 0.00 0.01 0.01 0.01 0.00 0.01 0.01 0.03 0.02 0.00 0.00 0.00 0.00 0.00 0.00 0.00 0.00 0.00 0.00 0.00 0.00 0.00 0.00 0.02 0.05 0.07
0.00 0.00 0.00 0.00 0.00 0.02 0.03 0.01 0.00 0.00 0.00 0.01 0.00 0.00 0.00 0.00 0.00 0.00 0.01 0.14 0.08 0.09 0.00 0.07 0.03 0.03 0.11 0.01 0.00 0.00 0.00 0.00 0.00 0.00 0.00 0.02 0.04 0.06
0.00 0.00 0.00 0.00 0.01 0.02 0.01 0.00 0.00 0.01 0.01 0.00 0.00 0.00 0.00 0.00 0.00 0.00 0.00 0.10 0.20 0.16 0.00 0.22 0.28 0.04 0.17 0.04 0.00 0.00 0.00 0.00 0.00 0.00 0.00 0.00 0.02 0.09
0.00 0.00 0.00 0.01 0.01 0.00 0.00 0.00 0.00 0.00 0.00 0.00 0.00 0.00 0.00 0.00 0.00 0.00 0.00 0.00 0.03 0.09 0.01 0.08 0.43 0.11 0.27 0.14 0.01 0.00 0.00 0.00 0.00 0.01 0.01 0.01 0.02 0.07
0.00 0.01 0.00 0.00 0.00 0.00 0.00 0.00 0.00 0.00 0.00 0.00 0.00 0.00 0.00 0.00 0.00 0.00 0.00 0.00 0.00 0.00 0.00 0.00 0.13 0.14 0.25 0.23 0.11 0.03 0.00 0.00 0.00 0.01 0.04 0.04 0.05 0.06
0.00 0.00 0.00 0.00 0.00 0.00 0.00 0.00 0.00 0.00 0.00 0.01 0.01 0.01 0.00 0.01 0.00 0.00 0.02 0.01 0.04 0.00 0.00 0.00 0.01 0.13 0.27 0.10 0.12 0.10 0.00 0.03 0.03 0.03 0.05 0.05 0.04 0.05
0.00 0.00 0.00 0.00 0.00 0.00 0.00 0.00 0.00 0.00 0.00 0.00 0.02 0.03 0.01 0.01 0.01 0.00 0.02 0.07 0.09 0.01 0.00 0.00 0.00 0.01 0.05 0.06 0.14 0.02 0.01 0.02 0.02 0.05 0.08 0.09 0.02 0.02
0.00 0.00 0.00 0.00 0.00 0.00 0.00 0.00 0.00 0.00 0.00 0.02 0.02 0.03 0.04 0.03 0.03 0.01 0.02 0.06 0.06 0.01 0.01 0.00 0.01 0.05 0.01 0.00 0.05 0.10 0.07 0.01 0.02 0.02 0.05 0.22 0.09 0.00
0.00 0.00 0.00 0.00 0.00 0.00 0.00 0.01 0.01 0.00 0.01 0.03 0.04 0.03 0.06 0.07 0.02 0.02 0.02 0.04 0.03 0.01 0.00 0.01 0.08 0.23 0.25 0.04 0.00 0.04 0.44 0.23 0.06 0.05 0.05 0.11 0.15 0.04
0.00 0.00 0.00 0.00 0.00 0.00 0.01 0.02 0.02 0.01 0.02 0.02 0.06 0.08 0.09 0.13 0.05 0.04 0.04 0.09 0.12 0.09 0.05 0.00 0.04 0.23 0.51 0.39 0.30 0.02 0.07 0.38 0.34 0.23 0.05 0.05 0.06 0.06
0.00 0.00 0.00 0.00 0.01 0.01 0.02 0.02 0.03 0.05 0.08 0.11 0.07 0.08 0.09 0.17 0.09 0.03 0.04 0.04 0.07 0.09 0.09 0.01 0.00 0.06 0.16 0.18 0.11 0.01 0.00 0.05 0.24 0.48 0.41 0.33 0.10 0.06
0.00 0.00 0.00 0.00 0.01 0.03 0.04 0.03 0.03 0.02 0.04 0.05 0.07 0.11 0.13 0.14 0.15 0.11 0.07 0.11 0.06 0.05 0.09 0.03 0.00 0.04 0.10 0.25 0.14 0.03 0.00 0.00 0.00 0.02 0.16 0.50 0.76 0.76
0.00 0.00 0.00 0.01 0.02 0.04 0.05 0.04 0.04 0.03 0.05 0.11 0.09 0.12 0.15 0.16 0.09 0.09 0.08 0.08 0.11 0.14 0.08 0.06 0.01 0.01 0.07 0.18 0.21 0.16 0.04 0.01 0.00 0.00 0.00 0.02 0.11 0.32

GFSNE_prec_precacc24_066.txt.gz
Total_Precipitation_Accumulation
0.10 0.09 0.05 0.02 0.02 0.02 0.03 0.02 0.01 0.01 0.01 0.01 0.01 0.01 0.00 0.00 0.00 0.00 0.00 0.00 0.00 0.00 0.00 0.00 0.00 0.00 0.00 0.00 0.00 0.01 0.02 0.05 0.09 0.12 0.16 0.18 0.20 0.22
0.11 0.11 0.07 0.01 0.01 0.01 0.03 0.04 0.05 0.05 0.04 0.03 0.05 0.06 0.05 0.02 0.00 0.00 0.00 0.00 0.00 0.00 0.00 0.00 0.00 0.00 0.00 0.00 0.01 0.01 0.02 0.04 0.05 0.11 0.21 0.28 0.29 0.30
0.09 0.09 0.07 0.05 0.03 0.04 0.06 0.07 0.11 0.16 0.20 0.18 0.13 0.09 0.03 0.01 0.00 0.00 0.00 0.00 0.00 0.00 0.00 0.00 0.00 0.01 0.00 0.00 0.00 0.01 0.01 0.03 0.05 0.07 0.11 0.20 0.28 0.28
0.01 0.01 0.02 0.03 0.06 0.09 0.12 0.15 0.17 0.16 0.13 0.07 0.03 0.02 0.01 0.01 0.00 0.00 0.00 0.00 0.00 0.00 0.00 0.00 0.00 0.00 0.00 0.01 0.01 0.01 0.02 0.03 0.04 0.03 0.04 0.05 0.07 0.09
0.04 0.06 0.10 0.17 0.23 0.27 0.29 0.27 0.22 0.14 0.06 0.02 0.01 0.00 0.00 0.00 0.00 0.00 0.00 0.00 0.00 0.00 0.00 0.00 0.00 0.00 0.00 0.01 0.01 0.01 0.00 0.01 0.01 0.01 0.01 0.01 0.02 0.03
0.11 0.15 0.20 0.23 0.23 0.20 0.14 0.08 0.04 0.02 0.01 0.00 0.00 0.00 0.01 0.01 0.00 0.00 0.00 0.00 0.00 0.00 0.00 0.00 0.00 0.00 0.00 0.00 0.00 0.00 0.00 0.00 0.01 0.01 0.02 0.03 0.04 0.06
0.33 0.32 0.27 0.19 0.12 0.05 0.01 0.00 0.00 0.00 0.01 0.01 0.02 0.02 0.01 0.00 0.00 0.00 0.00 0.00 0.00 0.00 0.00 0.00 0.00 0.00 0.00 0.00 0.00 0.00 0.00 0.00 0.01 0.02 0.03 0.04 0.06 0.08
0.16 0.12 0.08 0.05 0.03 0.02 0.00 0.00 0.00 0.01 0.02 0.04 0.04 0.02 0.01 0.00 0.00 0.00 0.00 0.02 0.04 0.00 0.00 0.00 0.00 0.00 0.00 0.00 0.00 0.00 0.00 0.00 0.00 0.02 0.03 0.04 0.05 0.07
0.12 0.08 0.05 0.03 0.01 0.00 0.00 0.00 0.00 0.01 0.02 0.03 0.02 0.00 0.00 0.00 0.00 0.04 0.06 0.07 0.04 0.00 0.00 0.00 0.00 0.00 0.00 0.00 0.00 0.00 0.00 0.00 0.00 0.01 0.02 0.03 0.04 0.06
0.04 0.01 0.00 0.00 0.00 0.00 0.00 0.00 0.01 0.00 0.00 0.00 0.00 0.00 0.00 0.00 0.05 0.19 0.08 0.01 0.00 0.00 0.00 0.01 0.00 0.00 0.00 0.00 0.00 0.00 0.00 0.00 0.00 0.00 0.00 0.01 0.03 0.04
0.01 0.00 0.00 0.00 0.00 0.00 0.01 0.01 0.00 0.00 0.00 0.00 0.00 0.00 0.01 0.01 0.00 0.00 0.00 0.02 0.02 0.00 0.00 0.00 0.00 0.00 0.00 0.00 0.00 0.00 0.00 0.00 0.00 0.00 0.00 0.01 0.03 0.05
0.00 0.00 0.00 0.00 0.00 0.01 0.02 0.01 0.00 0.00 0.00 0.00 0.00 0.00 0.00 0.00 0.00 0.00 0.01 0.11 0.07 0.08 0.00 0.06 0.03 0.03 0.09 0.00 0.00 0.00 0.00 0.00 0.00 0.00 0.00 0.01 0.02 0.03
0.00 0.00 0.00 0.00 0.01 0.01 0.01 0.00 0.00 0.00 0.00 0.00 0.00 0.00 0.00 0.00 0.00 0.00 0.00 0.08 0.17 0.14 0.00 0.19 0.26 0.04 0.16 0.04 0.00 0.00 0.00 0.00 0.00 0.00 0.00 0.00 0.01 0.05
0.00 0.00 0.00 0.01 0.01 0.00 0.00 0.00 0.00 0.00 0.00 0.00 0.00 0.00 0.00 0.00 0.00 0.00 0.00 0.00 0.02 0.07 0.01 0.06 0.38 0.10 0.24 0.13 0.01 0.00 0.00 0.00 0.00 0.00 0.00 0.01 0.02 0.04
0.00 0.00 0.00 0.00 0.00 0.00 0.00 0.00 0.00 0.00 0.00 0.00 0.00 0.00 0.00 0.00 0.00 0.00 0.00 0.00 0.00 0.00 0.00 0.00 0.10 0.11 0.23 0.20 0.08 0.02 0.00 0.00 0.00 0.00 0.01 0.01 0.02 0.03
0.00 0.00 0.00 0.00 0.00 0.00 0.00 0.00 0.00 0.00 0.00 0.00 0.01 0.00 0.00 0.00 0.00 0.00 0.02 0.01 0.04 0.00 0.00 0.00 0.00 0.10 0.23 0.09 0.10 0.09 0.00 0.01 0.00 0.00 0.02 0.01 0.00 0.01
0.00 0.00 0.00 0.00 0.00 0.00 0.00 0.00 0.00 0.00 0.00 0.00 0.02 0.02 0.01 0.01 0.01 0.00 0.01 0.06 0.09 0.01 0.00 0.00 0.00 0.01 0.04 0.06 0.15 0.02 0.00 0.00 0.00 0.01 0.05 0.07 0.01 0.01
0.00 0.00 0.00 0.00 0.00 0.00 0.00 0.00 0.00 0.00 0.00 0.02 0.02 0.02 0.04 0.03 0.02 0.01 0.02 0.06 0.06 0.02 0.01 0.00 0.01 0.05 0.02 0.00 0.05 0.09 0.06 0.00 0.00 0.00 0.04 0.20 0.08 0.00
0.00 0.00 0.00 0.00 0.00 0.00 0.00 0.00 0.01 0.00 0.01 0.03 0.03 0.02 0.05 0.06 0.02 0.02 0.02 0.04 0.04 0.01 0.00 0.01 0.08 0.23 0.26 0.05 0.00 0.04 0.42 0.22 0.04 0.04 0.01 0.07 0.12 0.02
0.00 0.00 0.00 0.00 0.00 0.00 0.01 0.02 0.02 0.01 0.01 0.02 0.05 0.07 0.08 0.12 0.05 0.04 0.04 0.08 0.11 0.09 0.05 0.00 0.04 0.23 0.53 0.39 0.29 0.02 0.06 0.35 0.31 0.20 0.02 0.01 0.03 0.02
0.00 0.00 0.00 0.00 0.00 0.01 0.02 0.02 0.02 0.03 0.06 0.09 0.06 0.07 0.07 0.15 0.08 0.02 0.04 0.04 0.06 0.09 0.09 0.01 0.00 0.06 0.16 0.20 0.13 0.01 0.00 0.05 0.21 0.44 0.37 0.32 0.08 0.02
0.00 0.00 0.00 0.00 0.01 0.03 0.03 0.03 0.03 0.01 0.03 0.05 0.06 0.09 0.10 0.11 0.13 0.10 0.07 0.10 0.06 0.05 0.09 0.03 0.00 0.05 0.11 0.27 0.15 0.04 0.00 0.00 0.00 0.02 0.15 0.49 0.75 0.73
0.00 0.00 0.00 0.01 0.02 0.03 0.05 0.04 0.03 0.03 0.04 0.09 0.09 0.10 0.13 0.14 0.07 0.07 0.06 0.08 0.12 0.15 0.08 0.06 0.01 0.01 0.07 0.19 0.22 0.16 0.04 0.01 0.00 0.00 0.00 0.02 0.09 0.27

GFSNE_prec_precacc24_069.txt.gz
Total_Precipitation_Accumulation
0.16 0.15 0.15 0.14 0.14 0.15 0.16 0.18 0.18 0.16 0.11 0.05 0.04 0.02 0.02 0.03 0.03 0.02 0.01 0.00 0.00 0.00 0.00 0.00 0.00 0.00 0.00 0.00 0.00 0.01 0.02 0.04 0.07 0.10 0.13 0.16 0.18 0.21
0.16 0.17 0.19 0.19 0.20 0.21 0.20 0.18 0.19 0.17 0.10 0.06 0.07 0.10 0.11 0.10 0.07 0.03 0.00 0.00 0.00 0.00 0.00 0.00 0.00 0.00 0.00 0.00 0.01 0.01 0.02 0.03 0.05 0.09 0.17 0.24 0.26 0.28
0.12 0.12 0.11 0.10 0.14 0.18 0.22 0.21 0.22 0.25 0.27 0.23 0.21 0.17 0.11 0.06 0.02 0.00 0.00 0.00 0.00 0.00 0.00 0.00 0.00 0.01 0.00 0.00 0.00 0.01 0.01 0.03 0.04 0.06 0.09 0.18 0.25 0.25
0.03 0.04 0.05 0.06 0.09 0.13 0.17 0.18 0.19 0.18 0.16 0.13 0.10 0.08 0.05 0.02 0.01 0.00 0.00 0.00 0.00 0.00 0.00 0.00 0.00 0.00 0.00 0.01 0.01 0.01 0.02 0.03 0.03 0.03 0.03 0.04 0.05 0.06
0.06 0.08 0.13 0.18 0.24 0.28 0.30 0.28 0.24 0.17 0.12 0.07 0.03 0.01 0.00 0.00 0.00 0.00 0.00 0.00 0.00 0.00 0.00 0.00 0.00 0.00 0.00 0.01 0.01 0.01 0.00 0.01 0.01 0.00 0.00 0.00 0.01 0.02
0.14 0.17 0.21 0.24 0.24 0.21 0.17 0.11 0.06 0.03 0.01 0.00 0.00 0.00 0.00 0.00 0.00 0.00 0.00 0.00 0.00 0.00 0.00 0.00 0.00 0.00 0.00 0.00 0.00 0.00 0.00 0.00 0.00 0.01 0.02 0.03 0.04 0.06
0.36 0.33 0.28 0.21 0.14 0.07 0.02 0.01 0.00 0.00 0.00 0.00 0.00 0.00 0.00 0.00 0.00 0.00 0.00 0.00 0.00 0.00 0.00 0.00 0.00 0.00 0.00 0.00 0.00 0.00 0.00 0.00 0.01 0.01 0.03 0.04 0.05 0.07
0.21 0.16 0.10 0.07 0.04 0.03 0.02 0.01 0.01 0.00 0.00 0.01 0.01 0.01 0.01 0.00 0.00 0.00 0.00 0.01 0.03 0.00 0.00 0.00 0.00 0.00 0.00 0.00 0.00 0.00 0.00 0.00 0.00 0.01 0.03 0.03 0.05 0.07
0.23 0.14 0.06 0.04 0.02 0.01 0.00 0.00 0.00 0.00 0.01 0.02 0.01 0.00 0.00 0.00 0.00 0.03 0.05 0.07 0.04 0.00 0.00 0.00 0.00 0.00 0.00 0.00 0.00 0.00 0.00 0.00 0.00 0.01 0.02 0.02 0.04 0.05
0.07 0.03 0.01 0.00 0.00 0.00 0.00 0.00 0.00 0.00 0.00 0.00 0.00 0.00 0.00 0.00 0.03 0.17 0.08 0.01 0.00 0.00 0.00 0.01 0.00 0.00 0.00 0.00 0.00 0.00 0.00 0.00 0.00 0.00 0.00 0.01 0.02 0.03
0.02 0.00 0.00 0.00 0.00 0.00 0.00 0.00 0.00 0.00 0.00 0.00 0.00 0.00 0.01 0.00 0.00 0.00 0.00 0.01 0.02 0.00 0.00 0.00 0.00 0.00 0.00 0.00 0.00 0.00 0.00 0.00 0.00 0.00 0.00 0.00 0.01 0.02
0.00 0.00 0.00 0.00 0.00 0.01 0.01 0.00 0.00 0.00 0.00 0.00 0.00 0.00 0.00 0.00 0.00 0.00 0.00 0.08 0.07 0.08 0.00 0.06 0.02 0.02 0.09 0.00 0.00 0.00 0.00 0.00 0.00 0.00 0.00 0.00 0.01 0.01
0.00 0.00 0.00 0.00 0.01 0.01 0.01 0.00 0.00 0.00 0.00 0.00 0.00 0.00 0.00 0.00 0.00 0.00 0.00 0.06 0.14 0.12 0.00 0.19 0.23 0.03 0.15 0.04 0.00 0.00 0.00 0.00 0.00 0.00 0.00 0.00 0.00 0.02
0.00 0.00 0.00 0.00 0.01 0.00 0.00 0.00 0.00 0.00 0.00 0.00 0.00 0.00 0.00 0.00 0.00 0.00 0.00 0.00 0.02 0.06 0.00 0.06 0.35 0.09 0.21 0.12 0.01 0.00 0.00 0.00 0.00 0.00 0.00 0.00 0.00 0.02
0.00 0.00 0.00 0.00 0.00 0.00 0.00 0.00 0.00 0.00 0.00 0.00 0.00 0.00 0.00 0.00 0.00 0.00 0.00 0.00 0.00 0.00 0.00 0.00 0.09 0.09 0.21 0.18 0.07 0.02 0.00 0.00 0.00 0.00 0.00 0.00 0.00 0.00
0.00 0.00 0.00 0.00 0.00 0.00 0.00 0.00 0.00 0.00 0.00 0.00 0.00 0.00 0.00 0.00 0.00 0.00 0.02 0.01 0.03 0.00 0.00 0.00 0.00 0.08 0.20 0.09 0.10 0.09 0.00 0.01 0.00 0.00 0.01 0.01 0.00 0.00
0.00 0.00 0.00 0.00 0.00 0.00 0.00 0.00 0.00 0.00 0.00 0.00 0.01 0.02 0.01 0.00 0.00 0.00 0.01 0.05 0.08 0.01 0.00 0.00 0.00 0.01 0.03 0.05 0.14 0.03 0.00 0.00 0.00 0.00 0.03 0.06 0.01 0.00
0.00 0.00 0.00 0.00 0.00 0.00 0.00 0.00 0.00 0.00 0.00 0.01 0.02 0.02 0.03 0.02 0.02 0.01 0.02 0.06 0.05 0.02 0.01 0.00 0.00 0.05 0.02 0.00 0.05 0.09 0.07 0.01 0.00 0.00 0.03 0.17 0.07 0.00
0.00 0.00 0.00 0.00 0.00 0.00 0.00 0.00 0.00 0.00 0.00 0.02 0.02 0.02 0.04 0.06 0.03 0.02 0.02 0.04 0.03 0.01 0.00 0.01 0.08 0.21 0.25 0.05 0.00 0.04 0.41 0.21 0.03 0.04 0.01 0.04 0.08 0.01
0.00 0.00 0.00 0.00 0.00 0.00 0.01 0.01 0.01 0.01 0.01 0.01 0.04 0.06 0.07 0.11 0.05 0.04 0.04 0.08 0.10 0.08 0.05 0.01 0.04 0.22 0.53 0.38 0.29 0.02 0.06 0.31 0.26 0.18 0.02 0.00 0.01 0.00
0.00 0.00 0.00 0.00 0.00 0.01 0.02 0.02 0.02 0.03 0.05 0.08 0.06 0.06 0.06 0.13 0.08 0.02 0.04 0.04 0.06 0.08 0.08 0.01 0.00 0.06 0.16 0.21 0.15 0.01 0.00 0.04 0.19 0.38 0.33 0.30 0.08 0.02
0.00 0.00 0.00 0.00 0.01 0.02 0.03 0.02 0.03 0.01 0.02 0.04 0.05 0.07 0.09 0.10 0.11 0.09 0.07 0.10 0.05 0.04 0.08 0.03 0.01 0.05 0.11 0.29 0.16 0.04 0.00 0.00 0.00 0.02 0.12 0.43 0.71 0.68
0.00 0.00 0.00 0.01 0.02 0.02 0.04 0.04 0.03 0.02 0.03 0.08 0.07 0.07 0.10 0.13 0.06 0.06 0.06 0.07 0.10 0.14 0.09 0.07 0.02 0.02 0.08 0.21 0.22 0.15 0.04 0.01 0.00 0.00 0.00 0.01 0.06 0.18

GFSNE_prec_precacc24_072.txt.gz
Total_Precipitation_Accumulation
0.23 0.23 0.18 0.18 0.18 0.18 0.18 0.21 0.30 0.40 0.40 0.41 0.43 0.33 0.25 0.19 0.12 0.06 0.03 0.02 0.00 0.00 0.00 0.00 0.00 0.00 0.00 0.00 0.00 0.01 0.01 0.03 0.06 0.08 0.10 0.12 0.15 0.18
0.21 0.25 0.25 0.23 0.23 0.24 0.27 0.32 0.39 0.47 0.49 0.38 0.31 0.29 0.26 0.19 0.11 0.05 0.01 0.00 0.00 0.00 0.00 0.00 0.00 0.00 0.00 0.00 0.01 0.01 0.02 0.03 0.04 0.08 0.14 0.19 0.21 0.23
0.14 0.16 0.16 0.13 0.17 0.24 0.30 0.34 0.40 0.45 0.50 0.45 0.35 0.27 0.14 0.07 0.02 0.00 0.00 0.00 0.00 0.00 0.00 0.00 0.00 0.01 0.00 0.00 0.00 0.00 0.01 0.02 0.04 0.05 0.09 0.16 0.20 0.20
0.03 0.05 0.07 0.09 0.12 0.16 0.19 0.23 0.25 0.25 0.22 0.17 0.11 0.08 0.05 0.02 0.01 0.00 0.00 0.00 0.00 0.00 0.00 0.00 0.00 0.00 0.00 0.01 0.01 0.01 0.02 0.03 0.03 0.03 0.03 0.03 0.04 0.05
0.06 0.09 0.14 0.20 0.26 0.30 0.32 0.30 0.25 0.19 0.13 0.08 0.04 0.01 0.00 0.00 0.00 0.00 0.00 0.00 0.00 0.00 0.00 0.00 0.00 0.00 0.00 0.01 0.01 0.01 0.00 0.01 0.01 0.01 0.00 0.01 0.01 0.02
0.14 0.18 0.22 0.25 0.25 0.23 0.19 0.12 0.07 0.03 0.01 0.00 0.00 0.00 0.00 0.00 0.00 0.00 0.00 0.00 0.00 0.00 0.00 0.00 0.00 0.00 0.00 0.00 0.00 0.00 0.00 0.00 0.00 0.01 0.02 0.02 0.03 0.05
0.36 0.35 0.31 0.26 0.19 0.12 0.06 0.02 0.00 0.00 0.00 0.00 0.00 0.00 0.00 0.00 0.00 0.00 0.00 0.00 0.00 0.00 0.00 0.00 0.00 0.00 0.00 0.00 0.00 0.00 0.00 0.00 0.00 0.02 0.02 0.03 0.05 0.07
0.22 0.21 0.21 0.21 0.15 0.08 0.03 0.02 0.01 0.00 0.00 0.00 0.00 0.00 0.00 0.00 0.00 0.00 0.00 0.00 0.02 0.00 0.00 0.00 0.00 0.00 0.00 0.00 0.00 0.00 0.00 0.00 0.00 0.02 0.02 0.03 0.04 0.06
0.33 0.29 0.19 0.12 0.07 0.04 0.01 0.00 0.00 0.00 0.00 0.01 0.01 0.00 0.00 0.00 0.00 0.02 0.04 0.06 0.03 0.00 0.00 0.00 0.00 0.00 0.00 0.00 0.00 0.00 0.00 0.00 0.00 0.01 0.02 0.02 0.03 0.05
0.12 0.08 0.04 0.02 0.00 0.00 0.00 0.00 0.00 0.00 0.00 0.00 0.00 0.00 0.00 0.00 0.03 0.12 0.06 0.01 0.00 0.00 0.00 0.00 0.00 0.00 0.00 0.00 0.00 0.00 0.00 0.00 0.00 0.00 0.00 0.01 0.02 0.02
0.02 0.00 0.00 0.00 0.00 0.00 0.00 0.00 0.00 0.00 0.00 0.00 0.00 0.00 0.01 0.00 0.00 0.00 0.00 0.01 0.02 0.00 0.00 0.00 0.00 0.00 0.00 0.00 0.00 0.00 0.00 0.00 0.00 0.00 0.00 0.00 0.01 0.01
0.00 0.00 0.00 0.00 0.00 0.00 0.01 0.00 0.00 0.00 0.00 0.00 0.00 0.00 0.00 0.00 0.00 0.00 0.00 0.04 0.06 0.07 0.00 0.05 0.02 0.02 0.07 0.00 0.00 0.00 0.00 0.00 0.00 0.00 0.00 0.00 0.00 0.00
0.00 0.00 0.00 0.00 0.01 0.01 0.00 0.00 0.00 0.00 0.00 0.00 0.00 0.00 0.00 0.00 0.00 0.00 0.00 0.03 0.10 0.10 0.00 0.18 0.20 0.03 0.13 0.03 0.00 0.00 0.00 0.00 0.00 0.00 0.00 0.00 0.00 0.01
0.00 0.00 0.00 0.00 0.00 0.00 0.00 0.00 0.00 0.00 0.00 0.00 0.00 0.00 0.00 0.00 0.00 0.00 0.00 0.00 0.01 0.04 0.00 0.06 0.31 0.07 0.20 0.11 0.01 0.00 0.00 0.00 0.00 0.00 0.00 0.00 0.00 0.01
0.00 0.00 0.00 0.00 0.00 0.00 0.00 0.00 0.00 0.00 0.00 0.00 0.00 0.00 0.00 0.00 0.00 0.00 0.00 0.00 0.00 0.00 0.00 0.00 0.07 0.07 0.20 0.17 0.07 0.02 0.00 0.00 0.00 0.00 0.00 0.00 0.00 0.00
0.00 0.00 0.00 0.00 0.00 0.00 0.00 0.00 0.00 0.00 0.00 0.00 0.00 0.00 0.00 0.00 0.00 0.00 0.01 0.00 0.02 0.00 0.00 0.00 0.00 0.06 0.17 0.08 0.09 0.07 0.00 0.01 0.00 0.00 0.00 0.01 0.00 0.00
0.00 0.00 0.00 0.00 0.00 0.00 0.00 0.00 0.00 0.00 0.00 0.00 0.01 0.01 0.00 0.00 0.00 0.00 0.01 0.04 0.06 0.01 0.00 0.00 0.00 0.00 0.03 0.05 0.12 0.02 0.00 0.00 0.00 0.00 0.03 0.05 0.01 0.00
0.00 0.00 0.00 0.00 0.00 0.00 0.00 0.00 0.00 0.00 0.00 0.01 0.01 0.01 0.02 0.02 0.02 0.01 0.02 0.05 0.05 0.01 0.01 0.00 0.00 0.05 0.02 0.00 0.04 0.09 0.06 0.01 0.00 0.00 0.03 0.15 0.05 0.00
0.00 0.00 0.00 0.00 0.00 0.00 0.00 0.00 0.00 0.00 0.00 0.02 0.02 0.02 0.04 0.05 0.03 0.02 0.02 0.03 0.03 0.01 0.00 0.01 0.07 0.20 0.25 0.05 0.00 0.04 0.39 0.19 0.03 0.03 0.01 0.03 0.06 0.01
0.00 0.00 0.00 0.00 0.00 0.00 0.01 0.01 0.01 0.01 0.01 0.01 0.04 0.05 0.06 0.09 0.04 0.03 0.03 0.06 0.09 0.07 0.05 0.00 0.04 0.20 0.48 0.35 0.28 0.02 0.06 0.27 0.21 0.16 0.01 0.00 0.01 0.00
0.00 0.00 0.00 0.00 0.00 0.01 0.01 0.01 0.02 0.02 0.03 0.06 0.04 0.05 0.05 0.11 0.07 0.02 0.04 0.03 0.06 0.08 0.08 0.01 0.00 0.05 0.16 0.22 0.16 0.01 0.00 0.04 0.17 0.33 0.29 0.27 0.07 0.02
0.00 0.00 0.00 0.00 0.01 0.02 0.02 0.02 0.02 0.01 0.02 0.03 0.04 0.05 0.06 0.09 0.10 0.08 0.06 0.09 0.05 0.04 0.07 0.02 0.01 0.05 0.12 0.30 0.16 0.03 0.00 0.00 0.00 0.02 0.11 0.38 0.66 0.66
0.00 0.00 0.00 0.01 0.01 0.02 0.03 0.03 0.03 0.02 0.02 0.06 0.06 0.05 0.07 0.09 0.05 0.05 0.05 0.07 0.09 0.12 0.08 0.07 0.02 0.02 0.08 0.20 0.21 0.14 0.03 0.00 0.00 0.00 0.00 0.01 0.06 0.14

GFSNE_prec_precacc24_075.txt.gz
Total_Precipitation_Accumulation
0.27 0.29 0.26 0.25 0.26 0.26 0.25 0.27 0.38 0.46 0.45 0.47 0.52 0.53 0.50 0.41 0.35 0.31 0.24 0.18 0.10 0.03 0.01 0.00 0.00 0.00 0.00 0.00 0.00 0.01 0.01 0.02 0.03 0.03 0.04 0.07 0.10 0.13
0.23 0.28 0.28 0.27 0.29 0.29 0.33 0.38 0.45 0.57 0.59 0.47 0.46 0.47 0.45 0.39 0.31 0.19 0.08 0.03 0.00 0.00 0.00 0.00 0.00 0.00 0.00 0.00 0.01 0.01 0.01 0.02 0.03 0.05 0.09 0.12 0.15 0.17
0.14 0.16 0.16 0.14 0.19 0.25 0.32 0.37 0.44 0.51 0.55 0.50 0.43 0.32 0.20 0.11 0.03 0.00 0.00 0.00 0.00 0.00 0.00 0.00 0.00 0.00 0.00 0.00 0.00 0.00 0.00 0.02 0.04 0.04 0.07 0.13 0.15 0.16
0.04 0.05 0.07 0.09 0.12 0.17 0.20 0.24 0.27 0.27 0.24 0.18 0.12 0.08 0.05 0.02 0.01 0.00 0.00 0.00 0.00 0.00 0.00 0.00 0.00 0.00 0.00 0.01 0.00 0.01 0.02 0.03 0.03 0.02 0.03 0.03 0.03 0.04
0.06 0.09 0.14 0.20 0.26 0.30 0.32 0.31 0.26 0.20 0.14 0.09 0.04 0.01 0.00 0.00 0.00 0.00 0.00 0.00 0.00 0.00 0.00 0.00 0.00 0.00 0.00 0.00 0.01 0.01 0.00 0.01 0.01 0.01 0.00 0.01 0.01 0.01
0.15 0.18 0.23 0.26 0.26 0.23 0.19 0.14 0.09 0.07 0.06 0.05 0.00 0.00 0.00 0.00 0.00 0.00 0.00 0.00 0.00 0.00 0.00 0.00 0.00 0.00 0.00 0.00 0.00 0.00 0.00 0.00 0.00 0.01 0.02 0.02 0.03 0.04
0.37 0.35 0.31 0.27 0.21 0.13 0.09 0.08 0.06 0.03 0.01 0.00 0.00 0.00 0.00 0.00 0.00 0.00 0.00 0.00 0.00 0.00 0.00 0.00 0.00 0.00 0.00 0.00 0.00 0.00 0.00 0.00 0.00 0.01 0.02 0.03 0.04 0.06
0.22 0.21 0.21 0.23 0.18 0.13 0.10 0.08 0.04 0.02 0.00 0.00 0.00 0.00 0.00 0.00 0.00 0.00 0.00 0.00 0.02 0.00 0.00 0.00 0.00 0.00 0.00 0.00 0.00 0.00 0.00 0.00 0.00 0.01 0.02 0.03 0.04 0.05
0.33 0.29 0.20 0.14 0.10 0.07 0.04 0.01 0.00 0.00 0.00 0.00 0.00 0.00 0.00 0.00 0.00 0.02 0.03 0.04 0.02 0.00 0.00 0.00 0.00 0.00 0.00 0.00 0.00 0.00 0.00 0.00 0.00 0.01 0.01 0.02 0.03 0.04
0.12 0.08 0.04 0.02 0.00 0.00 0.00 0.00 0.00 0.00 0.00 0.00 0.00 0.00 0.00 0.00 0.02 0.08 0.04 0.01 0.00 0.00 0.00 0.00 0.00 0.00 0.00 0.00 0.00 0.00 0.00 0.00 0.00 0.00 0.00 0.01 0.01 0.02
0.02 0.00 0.00 0.00 0.00 0.00 0.00 0.00 0.00 0.00 0.00 0.00 0.00 0.00 0.00 0.00 0.00 0.00 0.00 0.01 0.01 0.00 0.00 0.00 0.00 0.00 0.00 0.00 0.00 0.00 0.00 0.00 0.00 0.00 0.00 0.00 0.01 0.01
0.00 0.00 0.00 0.00 0.00 0.00 0.00 0.00 0.00 0.00 0.00 0.00 0.00 0.00 0.00 0.00 0.00 0.00 0.00 0.02 0.04 0.05 0.00 0.04 0.01 0.02 0.06 0.00 0.00 0.00 0.00 0.00 0.00 0.00 0.00 0.00 0.00 0.00
0.00 0.00 0.00 0.00 0.00 0.00 0.00 0.00 0.00 0.00 0.00 0.00 0.00 0.00 0.00 0.00 0.00 0.00 0.00 0.02 0.07 0.07 0.00 0.16 0.16 0.03 0.11 0.03 0.00 0.00 0.00 0.00 0.00 0.00 0.00 0.00 0.00 0.01
0.00 0.00 0.00 0.00 0.00 0.00 0.00 0.00 0.00 0.00 0.00 0.00 0.00 0.00 0.00 0.00 0.00 0.00 0.00 0.00 0.01 0.03 0.00 0.06 0.27 0.06 0.17 0.10 0.01 0.00 0.00 0.00 0.00 0.00 0.00 0.00 0.00 0.00
0.00 0.00 0.00 0.00 0.00 0.00 0.00 0.00 0.00 0.00 0.00 0.00 0.00 0.00 0.00 0.00 0.00 0.00 0.00 0.00 0.00 0.00 0.00 0.00 0.07 0.06 0.19 0.16 0.06 0.01 0.00 0.00 0.00 0.00 0.00 0.00 0.00 0.00
0.00 0.00 0.00 0.00 0.00 0.00 0.00 0.00 0.00 0.00 0.00 0.00 0.00 0.00 0.00 0.00 0.00 0.00 0.01 0.00 0.02 0.00 0.00 0.00 0.00 0.05 0.15 0.07 0.07 0.06 0.00 0.02 0.00 0.00 0.00 0.00 0.00 0.00
0.00 0.00 0.00 0.00 0.00 0.00 0.00 0.00 0.00 0.00 0.00 0.00 0.01 0.01 0.00 0.00 0.00 0.00 0.01 0.03 0.05 0.01 0.00 0.00 0.00 0.00 0.03 0.04 0.09 0.02 0.00 0.00 0.00 0.00 0.03 0.06 0.01 0.00
0.00 0.00 0.00 0.00 0.00 0.00 0.00 0.00 0.00 0.00 0.00 0.01 0.01 0.01 0.02 0.02 0.01 0.01 0.02 0.04 0.04 0.01 0.01 0.00 0.00 0.04 0.02 0.00 0.03 0.07 0.06 0.01 0.00 0.00 0.03 0.14 0.05 0.00
0.00 0.00 0.00 0.00 0.00 0.00 0.00 0.00 0.00 0.00 0.00 0.01 0.02 0.02 0.03 0.03 0.02 0.02 0.01 0.03 0.03 0.01 0.00 0.01 0.07 0.18 0.23 0.05 0.00 0.04 0.37 0.18 0.03 0.03 0.01 0.02 0.04 0.00
0.00 0.00 0.00 0.00 0.00 0.00 0.01 0.01 0.01 0.01 0.01 0.01 0.03 0.04 0.04 0.07 0.04 0.03 0.02 0.05 0.08 0.07 0.04 0.00 0.03 0.17 0.42 0.32 0.28 0.02 0.05 0.26 0.18 0.14 0.01 0.00 0.00 0.00
0.00 0.00 0.00 0.00 0.00 0.01 0.01 0.01 0.01 0.02 0.03 0.04 0.03 0.03 0.03 0.09 0.06 0.02 0.04 0.03 0.05 0.07 0.07 0.01 0.00 0.05 0.14 0.21 0.17 0.01 0.00 0.04 0.17 0.30 0.25 0.25 0.07 0.02
0.00 0.00 0.00 0.00 0.01 0.02 0.01 0.02 0.02 0.01 0.01 0.03 0.03 0.03 0.04 0.07 0.08 0.07 0.05 0.08 0.04 0.04 0.06 0.02 0.01 0.05 0.12 0.28 0.15 0.03 0.00 0.00 0.00 0.02 0.11 0.35 0.62 0.61
0.00 0.00 0.00 0.01 0.01 0.01 0.02 0.02 0.03 0.02 0.02 0.05 0.04 0.02 0.04 0.07 0.03 0.05 0.05 0.07 0.09 0.11 0.07 0.07 0.02 0.02 0.08 0.19 0.19 0.12 0.03 0.00 0.00 0.00 0.00 0.01 0.05 0.11

GFSNE_prec_precacc24_078.txt.gz
Total_Precipitation_Accumulation
0.27 0.29 0.27 0.27 0.29 0.29 0.31 0.35 0.49 0.57 0.51 0.51 0.58 0.63 0.63 0.58 0.54 0.47 0.38 0.34 0.21 0.13 0.07 0.03 0.02 0.01 0.00 0.00 0.00 0.00 0.00 0.01 0.01 0.01 0.01 0.03 0.06 0.09
0.23 0.28 0.28 0.27 0.29 0.29 0.33 0.39 0.47 0.62 0.67 0.55 0.57 0.62 0.66 0.62 0.49 0.29 0.14 0.09 0.04 0.02 0.01 0.01 0.00 0.00 0.00 0.00 0.00 0.00 0.00 0.01 0.02 0.03 0.04 0.07 0.11 0.14
0.14 0.16 0.16 0.14 0.19 0.26 0.32 0.37 0.44 0.51 0.56 0.52 0.44 0.35 0.24 0.14 0.05 0.02 0.01 0.00 0.00 0.01 0.00 0.00 0.00 0.00 0.00 0.00 0.00 0.00 0.00 0.01 0.03 0.04 0.06 0.09 0.11 0.11
0.04 0.05 0.08 0.09 0.13 0.17 0.21 0.25 0.28 0.28 0.25 0.19 0.12 0.10 0.08 0.04 0.02 0.00 0.00 0.00 0.00 0.00 0.00 0.00 0.00 0.00 0.00 0.00 0.00 0.00 0.02 0.02 0.02 0.02 0.02 0.02 0.02 0.02
0.06 0.09 0.14 0.21 0.27 0.31 0.33 0.32 0.27 0.20 0.14 0.10 0.06 0.03 0.01 0.00 0.00 0.00 0.00 0.00 0.00 0.00 0.00 0.00 0.00 0.00 0.00 0.00 0.01 0.00 0.00 0.00 0.01 0.01 0.00 0.00 0.00 0.00
0.15 0.18 0.23 0.26 0.26 0.24 0.19 0.14 0.10 0.07 0.06 0.06 0.06 0.03 0.01 0.00 0.00 0.00 0.00 0.00 0.00 0.00 0.00 0.00 0.00 0.00 0.00 0.00 0.00 0.00 0.00 0.00 0.00 0.01 0.01 0.01 0.01 0.02
0.37 0.35 0.31 0.27 0.21 0.13 0.09 0.09 0.07 0.04 0.02 0.01 0.00 0.00 0.00 0.00 0.00 0.00 0.00 0.00 0.00 0.00 0.00 0.00 0.00 0.00 0.00 0.00 0.00 0.00 0.00 0.00 0.00 0.01 0.02 0.02 0.03 0.05
0.22 0.21 0.22 0.23 0.18 0.13 0.10 0.08 0.05 0.03 0.02 0.01 0.00 0.00 0.00 0.00 0.00 0.00 0.00 0.00 0.01 0.00 0.00 0.00 0.00 0.00 0.00 0.00 0.00 0.00 0.00 0.00 0.00 0.01 0.02 0.02 0.03 0.04
0.33 0.29 0.20 0.14 0.10 0.07 0.04 0.01 0.01 0.00 0.00 0.00 0.00 0.00 0.00 0.00 0.00 0.01 0.02 0.02 0.02 0.00 0.00 0.00 0.00 0.00 0.00 0.00 0.00 0.00 0.00 0.00 0.00 0.00 0.01 0.02 0.02 0.04
0.12 0.08 0.04 0.02 0.00 0.00 0.00 0.00 0.00 0.00 0.00 0.00 0.00 0.00 0.00 0.00 0.02 0.06 0.03 0.00 0.00 0.00 0.00 0.00 0.00 0.00 0.00 0.00 0.00 0.00 0.00 0.00 0.00 0.00 0.00 0.01 0.01 0.02
0.02 0.00 0.00 0.00 0.00 0.00 0.00 0.00 0.00 0.00 0.00 0.00 0.00 0.00 0.00 0.00 0.00 0.00 0.00 0.00 0.01 0.00 0.00 0.00 0.00 0.00 0.00 0.00 0.00 0.00 0.00 0.00 0.00 0.00 0.00 0.00 0.01 0.01
0.00 0.00 0.00 0.00 0.00 0.00 0.00 0.00 0.00 0.00 0.00 0.00 0.00 0.00 0.00 0.00 0.00 0.00 0.00 0.01 0.03 0.04 0.00 0.03 0.01 0.02 0.05 0.00 0.00 0.00 0.00 0.00 0.00 0.00 0.00 0.00 0.01 0.00
0.00 0.00 0.00 0.00 0.00 0.00 0.00 0.00 0.00 0.00 0.00 0.00 0.00 0.00 0.00 0.00 0.00 0.00 0.00 0.01 0.05 0.05 0.00 0.14 0.13 0.03 0.09 0.02 0.00 0.00 0.00 0.00 0.00 0.00 0.00 0.00 0.00 0.01
0.00 0.00 0.00 0.00 0.00 0.00 0.00 0.00 0.00 0.00 0.00 0.00 0.00 0.00 0.00 0.00 0.00 0.00 0.00 0.00 0.01 0.03 0.00 0.05 0.23 0.05 0.15 0.09 0.01 0.00 0.00 0.00 0.00 0.00 0.00 0.00 0.00 0.00
0.00 0.00 0.00 0.00 0.00 0.00 0.00 0.00 0.00 0.00 0.00 0.00 0.00 0.00 0.00 0.00 0.00 0.00 0.00 0.00 0.00 0.00 0.00 0.00 0.05 0.06 0.17 0.15 0.06 0.01 0.00 0.00 0.00 0.00 0.00 0.00 0.00 0.00
0.00 0.00 0.00 0.00 0.00 0.00 0.00 0.00 0.00 0.00 0.00 0.00 0.00 0.00 0.00 0.00 0.00 0.00 0.01 0.00 0.02 0.00 0.00 0.00 0.00 0.05 0.13 0.06 0.06 0.05 0.00 0.02 0.00 0.00 0.00 0.00 0.00 0.00
0.00 0.00 0.00 0.00 0.00 0.00 0.00 0.00 0.00 0.00 0.00 0.00 0.00 0.00 0.00 0.00 0.00 0.00 0.01 0.02 0.04 0.01 0.00 0.00 0.00 0.00 0.02 0.04 0.08 0.02 0.00 0.00 0.00 0.00 0.02 0.05 0.01 0.00
0.00 0.00 0.00 0.00 0.00 0.00 0.00 0.00 0.00 0.00 0.00 0.00 0.01 0.01 0.02 0.01 0.01 0.01 0.01 0.04 0.04 0.01 0.01 0.00 0.00 0.03 0.01 0.00 0.03 0.06 0.05 0.01 0.00 0.00 0.03 0.13 0.04 0.00
0.00 0.00 0.00 0.00 0.00 0.00 0.00 0.00 0.00 0.00 0.00 0.01 0.02 0.02 0.03 0.03 0.02 0.02 0.01 0.02 0.02 0.01 0.00 0.01 0.06 0.17 0.21 0.05 0.00 0.04 0.32 0.15 0.02 0.03 0.00 0.02 0.03 0.00
0.00 0.00 0.00 0.00 0.00 0.00 0.00 0.01 0.01 0.01 0.01 0.01 0.02 0.03 0.03 0.05 0.03 0.02 0.02 0.04 0.07 0.06 0.04 0.00 0.04 0.16 0.37 0.29 0.25 0.02 0.05 0.23 0.15 0.11 0.01 0.00 0.00 0.00
0.00 0.00 0.00 0.00 0.00 0.01 0.01 0.01 0.01 0.02 0.02 0.04 0.03 0.02 0.02 0.06 0.05 0.02 0.03 0.03 0.05 0.06 0.07 0.01 0.00 0.04 0.12 0.17 0.16 0.01 0.00 0.04 0.16 0.25 0.18 0.20 0.07 0.01
0.00 0.00 0.00 0.00 0.01 0.01 0.01 0.01 0.02 0.01 0.01 0.02 0.02 0.02 0.02 0.05 0.06 0.05 0.04 0.06 0.04 0.04 0.06 0.02 0.01 0.04 0.10 0.24 0.14 0.03 0.00 0.00 0.00 0.01 0.09 0.28 0.53 0.54
0.00 0.00 0.00 0.00 0.01 0.01 0.01 0.02 0.02 0.02 0.02 0.04 0.03 0.02 0.03 0.06 0.03 0.04 0.05 0.06 0.08 0.10 0.06 0.06 0.02 0.02 0.07 0.16 0.16 0.10 0.02 0.00 0.00 0.00 0.00 0.01 0.05 0.11

GFSNE_prec_precacc24_081.txt.gz
Total_Precipitation_Accumulation
0.27 0.29 0.27 0.27 0.29 0.30 0.31 0.36 0.51 0.59 0.52 0.51 0.58 0.63 0.66 0.64 0.61 0.56 0.51 0.52 0.35 0.22 0.13 0.09 0.06 0.04 0.03 0.02 0.01 0.00 0.00 0.00 0.00 0.00 0.00 0.01 0.02 0.04
0.23 0.28 0.28 0.27 0.29 0.29 0.33 0.39 0.47 0.62 0.68 0.55 0.57 0.62 0.67 0.65 0.58 0.38 0.24 0.18 0.10 0.08 0.05 0.03 0.01 0.00 0.00 0.00 0.00 0.00 0.00 0.00 0.01 0.01 0.03 0.04 0.06 0.09
0.13 0.16 0.16 0.14 0.19 0.26 0.32 0.37 0.44 0.51 0.57 0.52 0.44 0.35 0.25 0.14 0.07 0.07 0.06 0.05 0.03 0.02 0.01 0.00 0.00 0.00 0.00 0.00 0.00 0.00 0.00 0.01 0.01 0.03 0.04 0.06 0.08 0.08
0.03 0.05 0.08 0.09 0.13 0.17 0.21 0.25 0.28 0.28 0.25 0.19 0.13 0.10 0.08 0.06 0.03 0.02 0.01 0.00 0.00 0.00 0.00 0.00 0.00 0.00 0.00 0.00 0.00 0.00 0.01 0.01 0.02 0.02 0.02 0.02 0.02 0.02
0.05 0.08 0.13 0.21 0.27 0.31 0.33 0.32 0.27 0.20 0.14 0.10 0.06 0.03 0.01 0.00 0.00 0.00 0.00 0.00 0.00 0.00 0.00 0.00 0.00 0.00 0.00 0.00 0.00 0.00 0.00 0.00 0.01 0.01 0.00 0.00 0.00 0.00
0.13 0.18 0.22 0.26 0.26 0.24 0.19 0.14 0.10 0.07 0.06 0.06 0.06 0.03 0.01 0.00 0.00 0.00 0.00 0.00 0.00 0.00 0.00 0.00 0.00 0.00 0.00 0.00 0.00 0.00 0.00 0.00 0.00 0.00 0.01 0.01 0.01 0.01
0.36 0.35 0.31 0.28 0.21 0.13 0.09 0.09 0.07 0.04 0.02 0.01 0.00 0.00 0.00 0.00 0.00 0.00 0.00 0.00 0.00 0.00 0.00 0.00 0.00 0.00 0.00 0.00 0.00 0.00 0.00 0.00 0.00 0.01 0.01 0.01 0.02 0.04
0.22 0.21 0.22 0.24 0.18 0.13 0.10 0.08 0.05 0.03 0.02 0.01 0.00 0.00 0.00 0.00 0.00 0.00 0.00 0.00 0.01 0.00 0.00 0.00 0.00 0.00 0.00 0.00 0.00 0.00 0.00 0.00 0.00 0.01 0.01 0.02 0.02 0.03
0.32 0.29 0.20 0.14 0.10 0.07 0.04 0.01 0.01 0.00 0.00 0.00 0.00 0.00 0.00 0.00 0.00 0.00 0.01 0.01 0.01 0.00 0.00 0.00 0.00 0.00 0.00 0.00 0.00 0.00 0.00 0.00 0.00 0.00 0.01 0.01 0.01 0.02
0.12 0.08 0.04 0.02 0.00 0.00 0.00 0.00 0.00 0.00 0.00 0.00 0.00 0.00 0.00 0.00 0.01 0.03 0.01 0.00 0.00 0.00 0.00 0.00 0.00 0.00 0.00 0.00 0.00 0.00 0.00 0.00 0.00 0.00 0.00 0.01 0.01 0.01
0.02 0.00 0.00 0.00 0.00 0.00 0.00 0.00 0.00 0.00 0.00 0.00 0.00 0.00 0.00 0.00 0.00 0.00 0.00 0.00 0.01 0.00 0.00 0.00 0.00 0.00 0.00 0.00 0.00 0.00 0.00 0.00 0.00 0.00 0.00 0.00 0.01 0.01
0.00 0.00 0.00 0.00 0.00 0.00 0.00 0.00 0.00 0.00 0.00 0.00 0.00 0.00 0.00 0.00 0.00 0.00 0.00 0.01 0.02 0.03 0.00 0.03 0.01 0.01 0.04 0.00 0.00 0.00 0.00 0.00 0.00 0.00 0.00 0.00 0.01 0.00
0.00 0.00 0.00 0.00 0.00 0.00 0.00 0.00 0.00 0.00 0.00 0.00 0.00 0.00 0.00 0.00 0.00 0.00 0.00 0.01 0.03 0.04 0.00 0.12 0.10 0.02 0.07 0.02 0.00 0.00 0.00 0.00 0.00 0.00 0.00 0.00 0.00 0.01
0.00 0.00 0.00 0.00 0.00 0.00 0.00 0.00 0.00 0.00 0.00 0.00 0.00 0.00 0.00 0.00 0.00 0.00 0.00 0.00 0.00 0.02 0.00 0.05 0.19 0.04 0.13 0.08 0.01 0.00 0.00 0.00 0.00 0.00 0.00 0.00 0.00 0.00
0.00 0.00 0.00 0.00 0.00 0.00 0.00 0.00 0.00 0.00 0.00 0.00 0.00 0.00 0.00 0.00 0.00 0.00 0.00 0.00 0.00 0.00 0.00 0.00 0.05 0.05 0.15 0.13 0.05 0.01 0.00 0.00 0.00 0.00 0.00 0.00 0.00 0.00
0.00 0.00 0.00 0.00 0.00 0.00 0.00 0.00 0.00 0.00 0.00 0.00 0.00 0.00 0.00 0.00 0.00 0.00 0.01 0.00 0.01 0.00 0.00 0.00 0.00 0.04 0.12 0.05 0.06 0.05 0.00 0.02 0.00 0.00 0.00 0.00 0.00 0.00
0.00 0.00 0.00 0.00 0.00 0.00 0.00 0.00 0.00 0.00 0.00 0.00 0.00 0.00 0.00 0.00 0.00 0.00 0.00 0.02 0.04 0.01 0.00 0.00 0.00 0.00 0.02 0.03 0.08 0.02 0.00 0.00 0.00 0.00 0.02 0.04 0.01 0.00
0.00 0.00 0.00 0.00 0.00 0.00 0.00 0.00 0.00 0.00 0.00 0.00 0.01 0.01 0.02 0.01 0.01 0.01 0.01 0.03 0.03 0.01 0.01 0.00 0.00 0.03 0.01 0.00 0.02 0.05 0.03 0.01 0.00 0.00 0.03 0.11 0.03 0.00
0.00 0.00 0.00 0.00 0.00 0.00 0.00 0.00 0.00 0.00 0.00 0.01 0.02 0.01 0.02 0.02 0.02 0.02 0.01 0.02 0.02 0.01 0.00 0.01 0.05 0.14 0.18 0.04 0.00 0.03 0.24 0.09 0.01 0.01 0.00 0.01 0.02 0.00
0.00 0.00 0.00 0.00 0.00 0.00 0.00 0.01 0.01 0.01 0.01 0.01 0.02 0.02 0.02 0.04 0.03 0.02 0.01 0.04 0.05 0.05 0.03 0.00 0.03 0.12 0.32 0.24 0.21 0.02 0.04 0.17 0.09 0.08 0.00 0.00 0.00 0.00
0.00 0.00 0.00 0.00 0.00 0.01 0.01 0.01 0.01 0.01 0.02 0.03 0.03 0.02 0.02 0.05 0.04 0.02 0.03 0.03 0.04 0.05 0.05 0.01 0.00 0.03 0.08 0.14 0.15 0.02 0.00 0.04 0.10 0.14 0.11 0.15 0.05 0.01
0.00 0.00 0.00 0.00 0.00 0.01 0.01 0.01 0.01 0.01 0.01 0.02 0.02 0.02 0.02 0.05 0.06 0.04 0.04 0.05 0.03 0.03 0.05 0.01 0.01 0.02 0.07 0.19 0.11 0.03 0.00 0.00 0.00 0.00 0.05 0.20 0.43 0.45
0.00 0.00 0.00 0.00 0.00 0.01 0.01 0.02 0.02 0.02 0.01 0.03 0.03 0.02 0.03 0.05 0.02 0.03 0.04 0.05 0.07 0.08 0.04 0.04 0.01 0.02 0.05 0.10 0.11 0.07 0.01 0.00 0.00 0.00 0.00 0.01 0.04 0.08

GFSNE_prec_precacc24_084.txt.gz
Total_Precipitation_Accumulation
0.27 0.29 0.27 0.27 0.29 0.30 0.31 0.37 0.51 0.59 0.52 0.51 0.58 0.63 0.66 0.64 0.62 0.56 0.51 0.54 0.40 0.25 0.17 0.12 0.10 0.08 0.08 0.05 0.03 0.02 0.02 0.02 0.01 0.00 0.00 0.01 0.02 0.03
0.23 0.28 0.28 0.27 0.29 0.29 0.32 0.38 0.47 0.62 0.68 0.56 0.57 0.62 0.67 0.65 0.59 0.38 0.24 0.18 0.11 0.08 0.07 0.05 0.03 0.02 0.01 0.00 0.00 0.00 0.00 0.00 0.01 0.01 0.02 0.03 0.04 0.06
0.13 0.16 0.15 0.12 0.17 0.24 0.31 0.37 0.44 0.51 0.57 0.52 0.44 0.35 0.25 0.14 0.08 0.07 0.07 0.05 0.04 0.03 0.01 0.01 0.00 0.00 0.00 0.00 0.00 0.00 0.00 0.00 0.01 0.02 0.03 0.04 0.06 0.06
0.03 0.04 0.06 0.07 0.10 0.16 0.20 0.25 0.28 0.28 0.25 0.19 0.13 0.10 0.08 0.06 0.03 0.02 0.01 0.00 0.00 0.00 0.00 0.00 0.00 0.00 0.00 0.00 0.00 0.00 0.01 0.01 0.01 0.01 0.02 0.02 0.02 0.02
0.04 0.06 0.11 0.18 0.24 0.29 0.32 0.31 0.27 0.20 0.14 0.10 0.06 0.03 0.01 0.00 0.00 0.00 0.00 0.00 0.00 0.00 0.00 0.00 0.00 0.00 0.00 0.00 0.00 0.00 0.00 0.00 0.00 0.00 0.00 0.00 0.00 0.00
0.09 0.14 0.18 0.22 0.23 0.22 0.19 0.14 0.10 0.07 0.06 0.06 0.06 0.03 0.01 0.00 0.00 0.00 0.00 0.00 0.00 0.00 0.00 0.00 0.00 0.00 0.00 0.00 0.00 0.00 0.00 0.00 0.00 0.00 0.01 0.01 0.00 0.01
0.26 0.26 0.24 0.24 0.19 0.12 0.09 0.09 0.07 0.04 0.02 0.01 0.00 0.00 0.00 0.00 0.00 0.00 0.00 0.00 0.00 0.00 0.00 0.00 0.00 0.00 0.00 0.00 0.00 0.00 0.00 0.00 0.00 0.01 0.01 0.01 0.01 0.03
0.16 0.17 0.20 0.23 0.18 0.13 0.11 0.08 0.05 0.03 0.02 0.01 0.00 0.00 0.00 0.00 0.00 0.00 0.00 0.00 0.00 0.00 0.00 0.00 0.00 0.00 0.00 0.00 0.00 0.00 0.00 0.00 0.00 0.01 0.01 0.01 0.01 0.02
0.29 0.27 0.19 0.13 0.10 0.07 0.04 0.01 0.01 0.00 0.00 0.00 0.00 0.00 0.00 0.00 0.00 0.00 0.00 0.01 0.00 0.00 0.00 0.00 0.00 0.00 0.00 0.00 0.00 0.00 0.00 0.00 0.00 0.00 0.01 0.01 0.01 0.02
0.11 0.08 0.04 0.02 0.00 0.00 0.00 0.00 0.00 0.00 0.00 0.00 0.00 0.00 0.00 0.00 0.00 0.01 0.00 0.00 0.00 0.00 0.00 0.00 0.00 0.00 0.00 0.00 0.00 0.00 0.00 0.00 0.00 0.00 0.00 0.01 0.01 0.01
0.02 0.00 0.00 0.00 0.00 0.00 0.00 0.00 0.00 0.00 0.00 0.00 0.00 0.00 0.00 0.00 0.00 0.00 0.00 0.00 0.00 0.00 0.00 0.00 0.00 0.00 0.00 0.00 0.00 0.00 0.00 0.00 0.00 0.00 0.00 0.00 0.01 0.01
0.00 0.00 0.00 0.00 0.00 0.00 0.00 0.00 0.00 0.00 0.00 0.00 0.00 0.00 0.00 0.00 0.00 0.00 0.00 0.00 0.01 0.02 0.00 0.02 0.00 0.01 0.03 0.00 0.00 0.00 0.00 0.00 0.00 0.00 0.00 0.00 0.01 0.00
0.00 0.00 0.00 0.00 0.00 0.00 0.00 0.00 0.00 0.00 0.00 0.00 0.00 0.00 0.00 0.00 0.00 0.00 0.00 0.00 0.02 0.02 0.00 0.09 0.08 0.01 0.05 0.01 0.00 0.00 0.00 0.00 0.00 0.00 0.00 0.00 0.00 0.01
0.00 0.00 0.00 0.00 0.00 0.00 0.00 0.00 0.00 0.00 0.00 0.00 0.00 0.00 0.00 0.00 0.00 0.00 0.00 0.00 0.00 0.01 0.00 0.03 0.15 0.04 0.10 0.07 0.01 0.00 0.00 0.00 0.00 0.00 0.00 0.00 0.00 0.00
0.00 0.00 0.00 0.00 0.00 0.00 0.00 0.00 0.00 0.00 0.00 0.00 0.00 0.00 0.00 0.00 0.00 0.00 0.00 0.00 0.00 0.00 0.00 0.00 0.04 0.04 0.13 0.12 0.05 0.01 0.00 0.00 0.00 0.00 0.00 0.00 0.00 0.00
0.00 0.00 0.00 0.00 0.00 0.00 0.00 0.00 0.00 0.00 0.00 0.00 0.00 0.00 0.00 0.00 0.00 0.00 0.00 0.00 0.01 0.00 0.00 0.00 0.00 0.04 0.10 0.05 0.05 0.04 0.00 0.02 0.00 0.00 0.00 0.00 0.00 0.00
0.00 0.00 0.00 0.00 0.00 0.00 0.00 0.00 0.00 0.00 0.00 0.00 0.00 0.00 0.00 0.00 0.00 0.00 0.00 0.02 0.03 0.01 0.00 0.00 0.00 0.00 0.02 0.02 0.04 0.01 0.00 0.00 0.00 0.00 0.02 0.04 0.00 0.00
0.00 0.00 0.00 0.00 0.00 0.00 0.00 0.00 0.00 0.00 0.00 0.00 0.01 0.01 0.01 0.01 0.01 0.01 0.01 0.02 0.03 0.01 0.01 0.00 0.00 0.03 0.01 0.00 0.00 0.01 0.02 0.01 0.00 0.00 0.02 0.08 0.02 0.00
0.00 0.00 0.00 0.00 0.00 0.00 0.00 0.00 0.00 0.00 0.00 0.01 0.01 0.01 0.02 0.02 0.02 0.02 0.01 0.02 0.02 0.01 0.00 0.00 0.02 0.10 0.16 0.04 0.00 0.01 0.13 0.04 0.00 0.00 0.00 0.01 0.02 0.00
0.00 0.00 0.00 0.00 0.00 0.00 0.00 0.00 0.01 0.01 0.01 0.01 0.01 0.01 0.02 0.04 0.03 0.02 0.01 0.03 0.04 0.03 0.03 0.00 0.01 0.06 0.23 0.17 0.16 0.01 0.03 0.08 0.05 0.06 0.00 0.00 0.00 0.00
0.00 0.00 0.00 0.00 0.00 0.00 0.00 0.00 0.01 0.01 0.02 0.03 0.02 0.02 0.02 0.05 0.04 0.01 0.02 0.02 0.03 0.04 0.04 0.01 0.00 0.01 0.04 0.12 0.15 0.01 0.00 0.01 0.03 0.05 0.04 0.10 0.04 0.01
0.00 0.00 0.00 0.00 0.00 0.00 0.01 0.01 0.01 0.01 0.01 0.01 0.02 0.02 0.02 0.04 0.05 0.04 0.03 0.05 0.03 0.02 0.03 0.01 0.00 0.01 0.05 0.15 0.09 0.02 0.00 0.00 0.00 0.00 0.02 0.14 0.33 0.36
0.00 0.00 0.00 0.00 0.00 0.00 0.01 0.01 0.02 0.01 0.01 0.02 0.02 0.02 0.03 0.05 0.02 0.03 0.03 0.04 0.06 0.06 0.03 0.03 0.01 0.02 0.03 0.06 0.07 0.04 0.01 0.00 0.00 0.00 0.00 0.01 0.03 0.06

GFSNE_prec_precacc24_087.txt.gz
Total_Precipitation_Accumulation
0.26 0.28 0.26 0.27 0.29 0.30 0.31 0.36 0.51 0.58 0.51 0.51 0.58 0.63 0.66 0.64 0.62 0.56 0.51 0.54 0.41 0.25 0.17 0.12 0.10 0.08 0.08 0.06 0.04 0.02 0.02 0.03 0.02 0.02 0.02 0.01 0.01 0.02
0.23 0.28 0.28 0.27 0.29 0.29 0.31 0.36 0.44 0.59 0.66 0.56 0.57 0.62 0.67 0.65 0.59 0.38 0.24 0.19 0.11 0.08 0.07 0.05 0.03 0.02 0.01 0.00 0.00 0.00 0.00 0.00 0.01 0.01 0.01 0.02 0.03 0.04
0.13 0.16 0.15 0.12 0.16 0.22 0.27 0.32 0.39 0.49 0.55 0.52 0.44 0.35 0.25 0.14 0.08 0.07 0.07 0.05 0.04 0.04 0.01 0.01 0.00 0.00 0.00 0.00 0.00 0.00 0.00 0.00 0.00 0.01 0.02 0.02 0.04 0.04
0.03 0.04 0.05 0.06 0.07 0.10 0.13 0.18 0.25 0.27 0.25 0.19 0.13 0.10 0.08 0.06 0.03 0.02 0.01 0.00 0.00 0.00 0.00 0.00 0.00 0.00 0.00 0.00 0.00 0.00 0.00 0.00 0.00 0.01 0.01 0.01 0.01 0.01
0.02 0.03 0.04 0.05 0.08 0.12 0.22 0.27 0.25 0.19 0.13 0.09 0.06 0.03 0.01 0.00 0.00 0.00 0.00 0.00 0.00 0.00 0.00 0.00 0.00 0.00 0.00 0.00 0.00 0.00 0.00 0.00 0.00 0.00 0.00 0.00 0.00 0.00
0.04 0.03 0.04 0.07 0.13 0.16 0.16 0.12 0.08 0.06 0.05 0.06 0.06 0.03 0.01 0.00 0.00 0.00 0.00 0.00 0.00 0.00 0.00 0.00 0.00 0.00 0.00 0.00 0.00 0.00 0.00 0.00 0.00 0.00 0.00 0.00 0.00 0.01
0.06 0.10 0.13 0.18 0.16 0.11 0.09 0.08 0.07 0.04 0.02 0.01 0.00 0.00 0.00 0.00 0.00 0.00 0.00 0.00 0.00 0.00 0.00 0.00 0.00 0.00 0.00 0.00 0.00 0.00 0.00 0.00 0.00 0.00 0.01 0.01 0.01 0.02
0.11 0.13 0.16 0.20 0.16 0.12 0.10 0.08 0.05 0.03 0.02 0.01 0.00 0.00 0.00 0.00 0.00 0.00 0.00 0.00 0.00 0.00 0.00 0.00 0.00 0.00 0.00 0.00 0.00 0.00 0.00 0.00 0.00 0.01 0.01 0.01 0.01 0.02
0.25 0.23 0.16 0.12 0.10 0.06 0.04 0.01 0.01 0.00 0.00 0.00 0.00 0.00 0.00 0.00 0.00 0.00 0.00 0.00 0.00 0.00 0.00 0.00 0.00 0.00 0.00 0.00 0.00 0.00 0.00 0.00 0.00 0.00 0.01 0.01 0.01 0.01
0.09 0.07 0.04 0.02 0.00 0.00 0.00 0.00 0.00 0.00 0.00 0.00 0.00 0.00 0.00 0.00 0.00 0.00 0.00 0.00 0.00 0.00 0.00 0.00 0.00 0.00 0.00 0.00 0.00 0.00 0.00 0.00 0.00 0.00 0.00 0.00 0.01 0.01
0.01 0.00 0.00 0.00 0.00 0.00 0.00 0.00 0.00 0.00 0.00 0.00 0.00 0.00 0.00 0.00 0.00 0.00 0.00 0.00 0.00 0.00 0.00 0.00 0.00 0.00 0.00 0.00 0.00 0.00 0.00 0.00 0.00 0.00 0.00 0.00 0.00 0.01
0.00 0.00 0.00 0.00 0.00 0.00 0.00 0.00 0.00 0.00 0.00 0.00 0.00 0.00 0.00 0.00 0.00 0.00 0.00 0.00 0.01 0.01 0.00 0.01 0.00 0.01 0.03 0.00 0.00 0.00 0.00 0.00 0.00 0.00 0.00 0.00 0.01 0.00
0.00 0.00 0.00 0.00 0.00 0.00 0.00 0.00 0.00 0.00 0.00 0.00 0.00 0.00 0.00 0.00 0.00 0.00 0.00 0.00 0.01 0.01 0.00 0.07 0.06 0.01 0.04 0.01 0.00 0.00 0.00 0.00 0.00 0.00 0.00 0.00 0.00 0.00
0.00 0.00 0.00 0.00 0.00 0.00 0.00 0.00 0.00 0.00 0.00 0.00 0.00 0.00 0.00 0.00 0.00 0.00 0.00 0.00 0.00 0.01 0.00 0.03 0.11 0.04 0.08 0.06 0.01 0.00 0.00 0.00 0.00 0.00 0.00 0.00 0.00 0.00
0.00 0.00 0.00 0.00 0.00 0.00 0.00 0.00 0.00 0.00 0.00 0.00 0.00 0.00 0.00 0.00 0.00 0.00 0.00 0.00 0.00 0.00 0.00 0.00 0.04 0.04 0.12 0.11 0.04 0.00 0.00 0.00 0.00 0.00 0.00 0.00 0.00 0.00
0.00 0.00 0.00 0.00 0.00 0.00 0.00 0.00 0.00 0.00 0.00 0.00 0.00 0.00 0.00 0.00 0.00 0.00 0.00 0.00 0.00 0.00 0.00 0.00 0.00 0.03 0.07 0.04 0.04 0.03 0.00 0.02 0.00 0.00 0.00 0.00 0.00 0.00
0.00 0.00 0.00 0.00 0.00 0.00 0.00 0.00 0.00 0.00 0.00 0.00 0.00 0.00 0.00 0.00 0.00 0.00 0.00 0.01 0.03 0.01 0.00 0.00 0.00 0.00 0.01 0.01 0.02 0.01 0.00 0.00 0.00 0.00 0.02 0.03 0.00 0.00
0.00 0.00 0.00 0.00 0.00 0.00 0.00 0.00 0.00 0.00 0.00 0.00 0.01 0.01 0.01 0.01 0.01 0.01 0.01 0.02 0.02 0.01 0.01 0.00 0.00 0.02 0.01 0.00 0.00 0.00 0.01 0.01 0.00 0.00 0.02 0.06 0.02 0.00
0.00 0.00 0.00 0.00 0.00 0.00 0.00 0.00 0.00 0.00 0.00 0.01 0.01 0.01 0.01 0.02 0.02 0.02 0.01 0.02 0.02 0.01 0.00 0.00 0.01 0.08 0.13 0.04 0.00 0.00 0.03 0.01 0.00 0.00 0.00 0.00 0.01 0.00
0.00 0.00 0.00 0.00 0.00 0.00 0.00 0.00 0.01 0.01 0.01 0.01 0.01 0.01 0.02 0.03 0.03 0.02 0.01 0.02 0.03 0.03 0.02 0.00 0.01 0.02 0.16 0.11 0.12 0.01 0.00 0.01 0.02 0.05 0.00 0.00 0.00 0.00
0.00 0.00 0.00 0.00 0.00 0.00 0.00 0.00 0.00 0.01 0.01 0.02 0.02 0.01 0.01 0.04 0.03 0.01 0.02 0.02 0.03 0.04 0.04 0.01 0.00 0.00 0.02 0.10 0.15 0.01 0.00 0.00 0.00 0.03 0.02 0.08 0.04 0.01
0.00 0.00 0.00 0.00 0.00 0.00 0.00 0.01 0.01 0.01 0.01 0.01 0.01 0.01 0.02 0.04 0.04 0.03 0.03 0.04 0.02 0.02 0.03 0.01 0.00 0.01 0.04 0.13 0.08 0.02 0.00 0.00 0.00 0.00 0.00 0.08 0.27 0.31
0.00 0.00 0.00 0.00 0.00 0.00 0.00 0.01 0.01 0.01 0.01 0.02 0.02 0.01 0.02 0.04 0.02 0.03 0.03 0.02 0.04 0.05 0.03 0.03 0.01 0.02 0.03 0.05 0.06 0.03 0.01 0.00 0.00 0.00 0.00 0.00 0.02 0.05

GFSNE_prec_precacc24_090.txt.gz
Total_Precipitation_Accumulation
0.17 0.20 0.22 0.25 0.27 0.27 0.29 0.34 0.51 0.58 0.51 0.50 0.57 0.62 0.65 0.64 0.62 0.56 0.51 0.55 0.41 0.26 0.17 0.13 0.10 0.09 0.08 0.06 0.04 0.02 0.02 0.02 0.02 0.02 0.02 0.01 0.01 0.02
0.12 0.16 0.21 0.26 0.28 0.28 0.31 0.35 0.43 0.57 0.63 0.52 0.52 0.57 0.62 0.64 0.59 0.38 0.24 0.19 0.11 0.09 0.07 0.05 0.03 0.02 0.01 0.00 0.00 0.00 0.00 0.00 0.00 0.00 0.00 0.01 0.02 0.02
0.04 0.07 0.09 0.09 0.16 0.22 0.27 0.30 0.33 0.36 0.37 0.34 0.31 0.27 0.22 0.13 0.07 0.07 0.07 0.05 0.04 0.04 0.01 0.01 0.00 0.00 0.00 0.00 0.00 0.00 0.00 0.00 0.00 0.00 0.01 0.01 0.02 0.02
0.03 0.04 0.05 0.06 0.07 0.09 0.09 0.10 0.11 0.12 0.12 0.12 0.10 0.08 0.07 0.05 0.03 0.02 0.01 0.00 0.00 0.00 0.00 0.00 0.00 0.00 0.00 0.00 0.00 0.00 0.00 0.00 0.00 0.00 0.00 0.00 0.01 0.01
0.02 0.03 0.04 0.04 0.03 0.03 0.04 0.05 0.05 0.06 0.08 0.08 0.05 0.02 0.01 0.00 0.00 0.00 0.00 0.00 0.00 0.00 0.00 0.00 0.00 0.00 0.00 0.00 0.00 0.00 0.00 0.00 0.00 0.00 0.00 0.00 0.00 0.00
0.03 0.03 0.02 0.03 0.02 0.03 0.05 0.06 0.06 0.06 0.05 0.06 0.06 0.03 0.01 0.00 0.00 0.00 0.00 0.00 0.00 0.00 0.00 0.00 0.00 0.00 0.00 0.00 0.00 0.00 0.00 0.00 0.00 0.00 0.00 0.00 0.00 0.00
0.04 0.04 0.04 0.09 0.09 0.07 0.08 0.08 0.06 0.03 0.01 0.01 0.00 0.00 0.00 0.00 0.00 0.00 0.00 0.00 0.00 0.00 0.00 0.00 0.00 0.00 0.00 0.00 0.00 0.00 0.00 0.00 0.00 0.00 0.00 0.00 0.00 0.00
0.06 0.09 0.14 0.18 0.16 0.12 0.10 0.08 0.05 0.03 0.02 0.01 0.00 0.00 0.00 0.00 0.00 0.00 0.00 0.00 0.00 0.00 0.00 0.00 0.00 0.00 0.00 0.00 0.00 0.00 0.00 0.00 0.00 0.00 0.00 0.00 0.00 0.01
0.20 0.21 0.15 0.11 0.09 0.06 0.04 0.01 0.01 0.00 0.00 0.00 0.00 0.00 0.00 0.00 0.00 0.00 0.00 0.00 0.00 0.00 0.00 0.00 0.00 0.00 0.00 0.00 0.00 0.00 0.00 0.00 0.00 0.00 0.00 0.00 0.01 0.01
0.08 0.06 0.04 0.02 0.00 0.00 0.00 0.00 0.00 0.00 0.00 0.00 0.00 0.00 0.00 0.00 0.00 0.00 0.00 0.00 0.00 0.00 0.00 0.00 0.00 0.00 0.00 0.00 0.00 0.00 0.00 0.00 0.00 0.00 0.00 0.00 0.00 0.01
0.01 0.00 0.00 0.00 0.00 0.00 0.00 0.00 0.00 0.00 0.00 0.00 0.00 0.00 0.00 0.00 0.00 0.00 0.00 0.00 0.00 0.00 0.00 0.00 0.00 0.00 0.00 0.00 0.00 0.00 0.00 0.00 0.00 0.00 0.00 0.00 0.00 0.00
0.00 0.00 0.00 0.00 0.00 0.00 0.00 0.00 0.00 0.00 0.00 0.00 0.00 0.00 0.00 0.00 0.00 0.00 0.00 0.00 0.00 0.00 0.00 0.01 0.00 0.01 0.02 0.00 0.00 0.00 0.00 0.00 0.00 0.00 0.00 0.00 0.00 0.00
0.00 0.00 0.00 0.00 0.00 0.00 0.00 0.00 0.00 0.00 0.00 0.00 0.00 0.00 0.00 0.00 0.00 0.00 0.00 0.00 0.01 0.01 0.00 0.05 0.04 0.01 0.03 0.01 0.00 0.00 0.00 0.00 0.00 0.00 0.00 0.00 0.00 0.00
0.00 0.00 0.00 0.00 0.00 0.00 0.00 0.00 0.00 0.00 0.00 0.00 0.00 0.00 0.00 0.00 0.00 0.00 0.00 0.00 0.00 0.01 0.00 0.03 0.09 0.03 0.07 0.05 0.01 0.00 0.00 0.00 0.00 0.00 0.00 0.00 0.00 0.00
0.00 0.00 0.00 0.00 0.00 0.00 0.00 0.00 0.00 0.00 0.00 0.00 0.00 0.00 0.00 0.00 0.00 0.00 0.00 0.00 0.00 0.00 0.00 0.00 0.03 0.04 0.10 0.10 0.04 0.00 0.00 0.00 0.00 0.00 0.00 0.00 0.00 0.00
0.00 0.00 0.00 0.00 0.00 0.00 0.00 0.00 0.00 0.00 0.00 0.00 0.00 0.00 0.00 0.00 0.00 0.00 0.00 0.00 0.01 0.00 0.00 0.00 0.00 0.02 0.06 0.03 0.03 0.03 0.00 0.02 0.00 0.00 0.00 0.00 0.00 0.00
0.00 0.00 0.00 0.00 0.00 0.00 0.00 0.00 0.00 0.00 0.00 0.00 0.00 0.00 0.00 0.00 0.00 0.00 0.00 0.01 0.02 0.01 0.00 0.00 0.00 0.00 0.01 0.01 0.02 0.01 0.00 0.00 0.00 0.00 0.02 0.03 0.00 0.00
0.00 0.00 0.00 0.00 0.00 0.00 0.00 0.00 0.00 0.00 0.00 0.00 0.00 0.01 0.01 0.01 0.01 0.01 0.01 0.02 0.02 0.01 0.00 0.00 0.00 0.01 0.01 0.00 0.00 0.00 0.00 0.01 0.00 0.00 0.01 0.05 0.01 0.00
0.00 0.00 0.00 0.00 0.00 0.00 0.00 0.00 0.00 0.00 0.00 0.00 0.01 0.01 0.01 0.02 0.02 0.01 0.01 0.01 0.01 0.01 0.00 0.00 0.01 0.06 0.11 0.03 0.00 0.00 0.01 0.00 0.00 0.00 0.00 0.00 0.01 0.00
0.00 0.00 0.00 0.00 0.00 0.00 0.00 0.00 0.00 0.00 0.00 0.00 0.01 0.01 0.01 0.03 0.02 0.01 0.01 0.02 0.02 0.02 0.02 0.00 0.01 0.01 0.12 0.08 0.10 0.01 0.00 0.00 0.01 0.04 0.00 0.00 0.00 0.00
0.00 0.00 0.00 0.00 0.00 0.00 0.00 0.00 0.00 0.01 0.01 0.02 0.01 0.01 0.01 0.04 0.03 0.01 0.02 0.02 0.03 0.04 0.03 0.01 0.00 0.00 0.02 0.09 0.13 0.01 0.00 0.00 0.00 0.02 0.02 0.07 0.04 0.01
0.00 0.00 0.00 0.00 0.00 0.00 0.00 0.00 0.01 0.01 0.01 0.01 0.01 0.01 0.02 0.04 0.04 0.03 0.02 0.03 0.02 0.02 0.02 0.00 0.00 0.01 0.04 0.11 0.07 0.01 0.00 0.00 0.00 0.00 0.00 0.04 0.19 0.24
0.00 0.00 0.00 0.00 0.00 0.00 0.00 0.01 0.01 0.01 0.01 0.01 0.01 0.01 0.02 0.03 0.02 0.03 0.02 0.02 0.03 0.03 0.02 0.03 0.01 0.01 0.03 0.04 0.05 0.03 0.01 0.00 0.00 0.00 0.00 0.00 0.00 0.01

GFSNE_prec_precacc24_093.txt.gz
Total_Precipitation_Accumulation
0.12 0.15 0.13 0.13 0.15 0.15 0.15 0.19 0.33 0.43 0.41 0.46 0.54 0.61 0.64 0.61 0.59 0.54 0.50 0.55 0.41 0.26 0.17 0.13 0.10 0.09 0.08 0.06 0.04 0.02 0.02 0.02 0.02 0.02 0.02 0.01 0.01 0.01
0.08 0.11 0.11 0.08 0.09 0.09 0.13 0.21 0.29 0.45 0.57 0.50 0.50 0.52 0.56 0.56 0.52 0.35 0.24 0.19 0.11 0.09 0.07 0.05 0.03 0.02 0.01 0.00 0.00 0.00 0.00 0.00 0.00 0.00 0.00 0.01 0.01 0.01
0.03 0.05 0.05 0.04 0.05 0.08 0.10 0.16 0.22 0.26 0.30 0.30 0.24 0.18 0.14 0.08 0.05 0.07 0.07 0.05 0.04 0.04 0.01 0.01 0.00 0.00 0.00 0.00 0.00 0.00 0.00 0.00 0.00 0.00 0.00 0.00 0.01 0.01
0.01 0.01 0.02 0.03 0.04 0.04 0.04 0.06 0.09 0.10 0.09 0.06 0.03 0.03 0.03 0.03 0.02 0.02 0.01 0.00 0.00 0.00 0.00 0.00 0.00 0.00 0.00 0.00 0.00 0.00 0.00 0.00 0.00 0.00 0.00 0.00 0.00 0.00
0.01 0.01 0.01 0.02 0.02 0.03 0.03 0.04 0.03 0.03 0.02 0.02 0.02 0.02 0.01 0.00 0.00 0.00 0.00 0.00 0.00 0.00 0.00 0.00 0.00 0.00 0.00 0.00 0.00 0.00 0.00 0.00 0.00 0.00 0.00 0.00 0.00 0.00
0.01 0.01 0.01 0.02 0.02 0.02 0.02 0.03 0.03 0.04 0.05 0.06 0.06 0.03 0.01 0.00 0.00 0.00 0.00 0.00 0.00 0.00 0.00 0.00 0.00 0.00 0.00 0.00 0.00 0.00 0.00 0.00 0.00 0.00 0.00 0.00 0.00 0.00
0.01 0.02 0.03 0.06 0.07 0.06 0.07 0.08 0.06 0.03 0.01 0.01 0.00 0.00 0.00 0.00 0.00 0.00 0.00 0.00 0.00 0.00 0.00 0.00 0.00 0.00 0.00 0.00 0.00 0.00 0.00 0.00 0.00 0.00 0.00 0.00 0.00 0.00
0.01 0.05 0.11 0.16 0.14 0.10 0.09 0.06 0.04 0.03 0.02 0.01 0.00 0.00 0.00 0.00 0.00 0.00 0.00 0.00 0.00 0.00 0.00 0.00 0.00 0.00 0.00 0.00 0.00 0.00 0.00 0.00 0.00 0.00 0.00 0.00 0.00 0.00
0.10 0.15 0.14 0.10 0.08 0.05 0.03 0.01 0.01 0.00 0.00 0.00 0.00 0.00 0.00 0.00 0.00 0.00 0.00 0.00 0.00 0.00 0.00 0.00 0.00 0.00 0.00 0.00 0.00 0.00 0.00 0.00 0.00 0.00 0.00 0.00 0.00 0.00
0.05 0.05 0.03 0.02 0.00 0.00 0.00 0.00 0.00 0.00 0.00 0.00 0.00 0.00 0.00 0.00 0.00 0.00 0.00 0.00 0.00 0.00 0.00 0.00 0.00 0.00 0.00 0.00 0.00 0.00 0.00 0.00 0.00 0.00 0.00 0.00 0.00 0.00
0.00 0.00 0.00 0.00 0.00 0.00 0.00 0.00 0.00 0.00 0.00 0.00 0.00 0.00 0.00 0.00 0.00 0.00 0.00 0.00 0.00 0.00 0.00 0.00 0.00 0.00 0.00 0.00 0.00 0.00 0.00 0.00 0.00 0.00 0.00 0.00 0.00 0.00
0.00 0.00 0.00 0.00 0.00 0.00 0.00 0.00 0.00 0.00 0.00 0.00 0.00 0.00 0.00 0.00 0.00 0.00 0.00 0.00 0.00 0.00 0.00 0.00 0.00 0.01 0.01 0.00 0.00 0.00 0.00 0.00 0.00 0.00 0.00 0.00 0.00 0.00
0.00 0.00 0.00 0.00 0.00 0.00 0.00 0.00 0.00 0.00 0.00 0.00 0.00 0.00 0.00 0.00 0.00 0.00 0.00 0.00 0.00 0.00 0.00 0.03 0.03 0.01 0.02 0.01 0.00 0.00 0.00 0.00 0.00 0.00 0.00 0.00 0.00 0.00
0.00 0.00 0.00 0.00 0.00 0.00 0.00 0.00 0.00 0.00 0.00 0.00 0.00 0.00 0.00 0.00 0.00 0.00 0.00 0.00 0.00 0.00 0.00 0.02 0.08 0.03 0.07 0.04 0.01 0.00 0.00 0.00 0.00 0.00 0.00 0.00 0.00 0.00
0.00 0.00 0.00 0.00 0.00 0.00 0.00 0.00 0.00 0.00 0.00 0.00 0.00 0.00 0.00 0.00 0.00 0.00 0.00 0.00 0.00 0.00 0.00 0.00 0.03 0.03 0.09 0.08 0.03 0.00 0.00 0.00 0.00 0.00 0.00 0.00 0.00 0.00
0.00 0.00 0.00 0.00 0.00 0.00 0.00 0.00 0.00 0.00 0.00 0.00 0.00 0.00 0.00 0.00 0.00 0.00 0.00 0.00 0.00 0.00 0.00 0.00 0.00 0.01 0.04 0.02 0.02 0.02 0.00 0.01 0.00 0.00 0.00 0.00 0.00 0.00
0.00 0.00 0.00 0.00 0.00 0.00 0.00 0.00 0.00 0.00 0.00 0.00 0.00 0.00 0.00 0.00 0.00 0.00 0.00 0.01 0.02 0.01 0.00 0.00 0.00 0.00 0.00 0.00 0.01 0.00 0.00 0.00 0.00 0.00 0.01 0.02 0.00 0.00
0.00 0.00 0.00 0.00 0.00 0.00 0.00 0.00 0.00 0.00 0.00 0.00 0.00 0.01 0.01 0.01 0.01 0.01 0.01 0.02 0.02 0.01 0.00 0.00 0.00 0.01 0.00 0.00 0.00 0.00 0.00 0.00 0.00 0.00 0.01 0.03 0.01 0.00
0.00 0.00 0.00 0.00 0.00 0.00 0.00 0.00 0.00 0.00 0.00 0.00 0.01 0.01 0.01 0.01 0.01 0.01 0.00 0.01 0.01 0.01 0.00 0.00 0.01 0.05 0.09 0.03 0.00 0.00 0.00 0.00 0.00 0.00 0.00 0.00 0.00 0.00
0.00 0.00 0.00 0.00 0.00 0.00 0.00 0.00 0.00 0.00 0.00 0.00 0.01 0.01 0.01 0.02 0.02 0.01 0.01 0.02 0.02 0.02 0.02 0.00 0.01 0.01 0.09 0.06 0.09 0.01 0.00 0.00 0.01 0.03 0.00 0.00 0.00 0.00
0.00 0.00 0.00 0.00 0.00 0.00 0.00 0.00 0.00 0.00 0.01 0.01 0.01 0.01 0.01 0.03 0.02 0.01 0.01 0.02 0.03 0.04 0.03 0.00 0.00 0.00 0.02 0.09 0.12 0.01 0.00 0.00 0.00 0.02 0.02 0.07 0.04 0.01
0.00 0.00 0.00 0.00 0.00 0.00 0.00 0.00 0.00 0.00 0.00 0.01 0.01 0.01 0.01 0.03 0.03 0.02 0.02 0.03 0.02 0.01 0.02 0.00 0.00 0.00 0.03 0.09 0.05 0.01 0.00 0.00 0.00 0.00 0.00 0.04 0.14 0.20
0.00 0.00 0.00 0.00 0.00 0.00 0.00 0.00 0.00 0.01 0.00 0.01 0.01 0.01 0.01 0.02 0.01 0.02 0.02 0.02 0.02 0.03 0.01 0.01 0.00 0.01 0.02 0.03 0.05 0.04 0.01 0.00 0.00 0.00 0.00 0.00 0.00 0.00

GFSNE_prec_precacc24_096.txt.gz
Total_Precipitation_Accumulation
0.06 0.08 0.10 0.10 0.11 0.12 0.13 0.16 0.22 0.19 0.12 0.10 0.16 0.30 0.41 0.45 0.50 0.50 0.48 0.54 0.41 0.26 0.17 0.13 0.10 0.09 0.08 0.06 0.04 0.02 0.02 0.02 0.02 0.02 0.01 0.01 0.01 0.01
0.03 0.04 0.06 0.06 0.06 0.06 0.07 0.07 0.08 0.15 0.19 0.18 0.26 0.33 0.42 0.47 0.48 0.33 0.23 0.19 0.11 0.09 0.07 0.05 0.03 0.02 0.01 0.00 0.00 0.00 0.00 0.00 0.00 0.00 0.00 0.00 0.01 0.01
0.01 0.01 0.01 0.01 0.02 0.02 0.02 0.03 0.04 0.06 0.07 0.07 0.09 0.09 0.11 0.08 0.05 0.07 0.07 0.05 0.04 0.04 0.01 0.01 0.00 0.00 0.00 0.00 0.00 0.00 0.00 0.00 0.00 0.00 0.00 0.00 0.01 0.01
0.00 0.00 0.01 0.01 0.01 0.01 0.01 0.02 0.03 0.03 0.03 0.02 0.01 0.02 0.03 0.03 0.02 0.02 0.01 0.00 0.00 0.00 0.00 0.00 0.00 0.00 0.00 0.00 0.00 0.00 0.00 0.00 0.00 0.00 0.00 0.00 0.00 0.00
0.00 0.00 0.00 0.01 0.01 0.01 0.01 0.01 0.01 0.01 0.01 0.02 0.02 0.02 0.01 0.00 0.00 0.00 0.00 0.00 0.00 0.00 0.00 0.00 0.00 0.00 0.00 0.00 0.00 0.00 0.00 0.00 0.00 0.00 0.00 0.00 0.00 0.00
0.00 0.00 0.00 0.01 0.00 0.00 0.01 0.02 0.03 0.04 0.05 0.06 0.06 0.03 0.01 0.00 0.00 0.00 0.00 0.00 0.00 0.00 0.00 0.00 0.00 0.00 0.00 0.00 0.00 0.00 0.00 0.00 0.00 0.00 0.00 0.00 0.00 0.00
0.00 0.00 0.01 0.02 0.02 0.01 0.03 0.06 0.06 0.03 0.01 0.01 0.00 0.00 0.00 0.00 0.00 0.00 0.00 0.00 0.00 0.00 0.00 0.00 0.00 0.00 0.00 0.00 0.00 0.00 0.00 0.00 0.00 0.00 0.00 0.00 0.00 0.00
0.00 0.00 0.01 0.02 0.03 0.06 0.07 0.06 0.04 0.03 0.02 0.01 0.00 0.00 0.00 0.00 0.00 0.00 0.00 0.00 0.00 0.00 0.00 0.00 0.00 0.00 0.00 0.00 0.00 0.00 0.00 0.00 0.00 0.00 0.00 0.00 0.00 0.00
0.00 0.00 0.01 0.02 0.03 0.03 0.02 0.01 0.01 0.00 0.00 0.00 0.00 0.00 0.00 0.00 0.00 0.00 0.00 0.00 0.00 0.00 0.00 0.00 0.00 0.00 0.00 0.00 0.00 0.00 0.00 0.00 0.00 0.00 0.00 0.00 0.00 0.00
0.00 0.00 0.00 0.00 0.00 0.00 0.00 0.00 0.00 0.00 0.00 0.00 0.00 0.00 0.00 0.00 0.00 0.00 0.00 0.00 0.00 0.00 0.00 0.00 0.00 0.00 0.00 0.00 0.00 0.00 0.00 0.00 0.00 0.00 0.00 0.00 0.00 0.00
0.00 0.00 0.00 0.00 0.00 0.00 0.00 0.00 0.00 0.00 0.00 0.00 0.00 0.00 0.00 0.00 0.00 0.00 0.00 0.00 0.00 0.00 0.00 0.00 0.00 0.00 0.00 0.00 0.00 0.00 0.00 0.00 0.00 0.00 0.00 0.00 0.00 0.00
0.00 0.00 0.00 0.00 0.00 0.00 0.00 0.00 0.00 0.00 0.00 0.00 0.00 0.00 0.00 0.00 0.00 0.00 0.00 0.00 0.00 0.00 0.00 0.00 0.00 0.00 0.01 0.00 0.00 0.00 0.00 0.00 0.00 0.00 0.00 0.00 0.00 0.00
0.00 0.00 0.00 0.00 0.00 0.00 0.00 0.00 0.00 0.00 0.00 0.00 0.00 0.00 0.00 0.00 0.00 0.00 0.00 0.00 0.00 0.00 0.00 0.02 0.02 0.01 0.01 0.00 0.00 0.00 0.00 0.00 0.00 0.00 0.00 0.00 0.00 0.00
0.00 0.00 0.00 0.00 0.00 0.00 0.00 0.00 0.00 0.00 0.00 0.00 0.00 0.00 0.00 0.00 0.00 0.00 0.00 0.00 0.00 0.00 0.00 0.01 0.06 0.02 0.05 0.03 0.00 0.00 0.00 0.00 0.00 0.00 0.00 0.00 0.00 0.00
0.00 0.00 0.00 0.00 0.00 0.00 0.00 0.00 0.00 0.00 0.00 0.00 0.00 0.00 0.00 0.00 0.00 0.00 0.00 0.00 0.00 0.00 0.00 0.00 0.02 0.02 0.06 0.06 0.02 0.00 0.00 0.00 0.00 0.00 0.00 0.00 0.00 0.00
0.00 0.00 0.00 0.00 0.00 0.00 0.00 0.00 0.00 0.00 0.00 0.00 0.00 0.00 0.00 0.00 0.00 0.00 0.00 0.00 0.00 0.00 0.00 0.00 0.00 0.00 0.02 0.02 0.02 0.02 0.00 0.01 0.00 0.00 0.00 0.00 0.00 0.00
0.00 0.00 0.00 0.00 0.00 0.00 0.00 0.00 0.00 0.00 0.00 0.00 0.00 0.00 0.00 0.00 0.00 0.00 0.00 0.01 0.02 0.01 0.00 0.00 0.00 0.00 0.00 0.00 0.01 0.00 0.00 0.00 0.00 0.00 0.00 0.01 0.00 0.00
0.00 0.00 0.00 0.00 0.00 0.00 0.00 0.00 0.00 0.00 0.00 0.00 0.00 0.00 0.01 0.00 0.01 0.00 0.01 0.02 0.02 0.01 0.00 0.00 0.00 0.01 0.00 0.00 0.00 0.00 0.00 0.00 0.00 0.00 0.00 0.02 0.01 0.00
0.00 0.00 0.00 0.00 0.00 0.00 0.00 0.00 0.00 0.00 0.00 0.00 0.01 0.01 0.01 0.01 0.01 0.01 0.00 0.01 0.01 0.01 0.00 0.00 0.01 0.05 0.07 0.02 0.00 0.00 0.00 0.00 0.00 0.00 0.00 0.00 0.00 0.00
0.00 0.00 0.00 0.00 0.00 0.00 0.00 0.00 0.00 0.00 0.00 0.00 0.00 0.00 0.01 0.02 0.01 0.01 0.01 0.02 0.02 0.01 0.01 0.00 0.01 0.01 0.06 0.04 0.07 0.01 0.00 0.00 0.00 0.01 0.00 0.00 0.00 0.00
0.00 0.00 0.00 0.00 0.00 0.00 0.00 0.00 0.00 0.00 0.00 0.01 0.01 0.00 0.01 0.02 0.02 0.01 0.01 0.01 0.02 0.03 0.02 0.00 0.00 0.00 0.03 0.08 0.09 0.01 0.00 0.00 0.00 0.01 0.02 0.06 0.03 0.01
0.00 0.00 0.00 0.00 0.00 0.00 0.00 0.00 0.00 0.00 0.00 0.00 0.00 0.01 0.01 0.02 0.02 0.02 0.01 0.02 0.01 0.01 0.01 0.00 0.00 0.00 0.02 0.07 0.04 0.01 0.00 0.00 0.00 0.00 0.00 0.03 0.10 0.15
0.00 0.00 0.00 0.00 0.00 0.00 0.00 0.00 0.00 0.00 0.00 0.00 0.00 0.01 0.01 0.02 0.01 0.02 0.02 0.02 0.02 0.02 0.01 0.01 0.00 0.00 0.02 0.03 0.03 0.03 0.01 0.00 0.00 0.00 0.00 0.00 0.00 0.00

GFSNE_prec_precacc24_099.txt.gz
Total_Precipitation_Accumulation
0.03 0.04 0.03 0.04 0.05 0.05 0.08 0.10 0.15 0.13 0.07 0.04 0.06 0.10 0.16 0.23 0.27 0.25 0.27 0.37 0.32 0.23 0.17 0.13 0.10 0.09 0.08 0.06 0.04 0.02 0.02 0.02 0.02 0.02 0.01 0.01 0.01 0.01
0.01 0.02 0.03 0.02 0.01 0.01 0.02 0.03 0.03 0.07 0.09 0.08 0.11 0.16 0.23 0.26 0.28 0.19 0.17 0.16 0.11 0.09 0.07 0.05 0.03 0.02 0.01 0.00 0.00 0.00 0.00 0.00 0.00 0.00 0.00 0.00 0.01 0.01
0.01 0.01 0.02 0.01 0.01 0.01 0.01 0.01 0.01 0.01 0.01 0.02 0.01 0.04 0.05 0.03 0.04 0.07 0.07 0.05 0.04 0.04 0.01 0.01 0.00 0.00 0.00 0.00 0.00 0.00 0.00 0.00 0.00 0.00 0.00 0.00 0.01 0.01
0.00 0.00 0.01 0.01 0.01 0.01 0.01 0.01 0.01 0.01 0.01 0.01 0.01 0.02 0.03 0.03 0.02 0.02 0.01 0.00 0.00 0.00 0.00 0.00 0.00 0.00 0.00 0.00 0.00 0.00 0.00 0.00 0.00 0.00 0.00 0.00 0.00 0.00
0.00 0.00 0.00 0.00 0.01 0.01 0.01 0.01 0.01 0.00 0.00 0.01 0.01 0.02 0.01 0.00 0.00 0.00 0.00 0.00 0.00 0.00 0.00 0.00 0.00 0.00 0.00 0.00 0.00 0.00 0.00 0.00 0.00 0.00 0.00 0.00 0.00 0.00
0.00 0.00 0.00 0.00 0.00 0.00 0.00 0.00 0.00 0.00 0.00 0.01 0.05 0.03 0.01 0.00 0.00 0.00 0.00 0.00 0.00 0.00 0.00 0.00 0.00 0.00 0.00 0.00 0.00 0.00 0.00 0.00 0.00 0.00 0.00 0.00 0.00 0.00
0.00 0.00 0.00 0.01 0.00 0.00 0.00 0.00 0.00 0.00 0.00 0.01 0.00 0.00 0.00 0.00 0.00 0.00 0.00 0.00 0.00 0.00 0.00 0.00 0.00 0.00 0.00 0.00 0.00 0.00 0.00 0.00 0.00 0.00 0.00 0.00 0.00 0.00
0.00 0.00 0.00 0.00 0.01 0.01 0.00 0.00 0.00 0.01 0.02 0.01 0.00 0.00 0.00 0.00 0.00 0.00 0.00 0.00 0.00 0.00 0.00 0.00 0.00 0.00 0.00 0.00 0.00 0.00 0.00 0.00 0.00 0.00 0.00 0.00 0.00 0.00
0.00 0.00 0.00 0.00 0.00 0.00 0.00 0.00 0.00 0.00 0.00 0.00 0.00 0.00 0.00 0.00 0.00 0.00 0.00 0.00 0.00 0.00 0.00 0.00 0.00 0.00 0.00 0.00 0.00 0.00 0.00 0.00 0.00 0.00 0.00 0.00 0.00 0.00
0.00 0.00 0.00 0.00 0.00 0.00 0.00 0.00 0.00 0.00 0.00 0.00 0.00 0.00 0.00 0.00 0.00 0.00 0.00 0.00 0.00 0.00 0.00 0.00 0.00 0.00 0.00 0.00 0.00 0.00 0.00 0.00 0.00 0.00 0.00 0.00 0.00 0.00
0.00 0.00 0.00 0.00 0.00 0.00 0.00 0.00 0.00 0.00 0.00 0.00 0.00 0.00 0.00 0.00 0.00 0.00 0.00 0.00 0.00 0.00 0.00 0.00 0.00 0.00 0.00 0.00 0.00 0.00 0.00 0.00 0.00 0.00 0.00 0.00 0.00 0.00
0.00 0.00 0.00 0.00 0.00 0.00 0.00 0.00 0.00 0.00 0.00 0.00 0.00 0.00 0.00 0.00 0.00 0.00 0.00 0.00 0.00 0.00 0.00 0.00 0.00 0.00 0.00 0.00 0.00 0.00 0.00 0.00 0.00 0.00 0.00 0.00 0.00 0.00
0.00 0.00 0.00 0.00 0.00 0.00 0.00 0.00 0.00 0.00 0.00 0.00 0.00 0.00 0.00 0.00 0.00 0.00 0.00 0.00 0.00 0.00 0.00 0.01 0.01 0.01 0.00 0.00 0.00 0.00 0.00 0.00 0.00 0.00 0.00 0.00 0.00 0.00
0.00 0.00 0.00 0.00 0.00 0.00 0.00 0.00 0.00 0.00 0.00 0.00 0.00 0.00 0.00 0.00 0.00 0.00 0.00 0.00 0.00 0.00 0.00 0.01 0.04 0.01 0.03 0.02 0.00 0.00 0.00 0.00 0.00 0.00 0.00 0.00 0.00 0.00
0.00 0.00 0.00 0.00 0.00 0.00 0.00 0.00 0.00 0.00 0.00 0.00 0.00 0.00 0.00 0.00 0.00 0.00 0.00 0.00 0.00 0.00 0.00 0.00 0.01 0.01 0.04 0.04 0.02 0.00 0.00 0.00 0.00 0.00 0.00 0.00 0.00 0.00
0.00 0.00 0.00 0.00 0.00 0.00 0.00 0.00 0.00 0.00 0.00 0.00 0.00 0.00 0.00 0.00 0.00 0.00 0.00 0.00 0.00 0.00 0.00 0.00 0.00 0.00 0.01 0.01 0.01 0.01 0.00 0.01 0.00 0.00 0.00 0.00 0.00 0.00
0.00 0.00 0.00 0.00 0.00 0.00 0.00 0.00 0.00 0.00 0.00 0.00 0.00 0.00 0.00 0.00 0.00 0.00 0.00 0.01 0.01 0.01 0.00 0.00 0.00 0.00 0.00 0.00 0.01 0.00 0.00 0.00 0.00 0.00 0.00 0.00 0.00 0.00
0.00 0.00 0.00 0.00 0.00 0.00 0.00 0.00 0.00 0.00 0.00 0.00 0.00 0.00 0.00 0.00 0.01 0.00 0.01 0.01 0.02 0.01 0.00 0.00 0.00 0.01 0.00 0.00 0.00 0.00 0.00 0.00 0.00 0.00 0.00 0.02 0.00 0.00
0.00 0.00 0.00 0.00 0.00 0.00 0.00 0.00 0.00 0.00 0.00 0.00 0.00 0.00 0.00 0.01 0.01 0.01 0.00 0.01 0.01 0.00 0.00 0.00 0.00 0.03 0.05 0.02 0.00 0.00 0.00 0.00 0.00 0.00 0.00 0.00 0.00 0.00
0.00 0.00 0.00 0.00 0.00 0.00 0.00 0.00 0.00 0.00 0.00 0.00 0.00 0.00 0.01 0.01 0.01 0.01 0.00 0.01 0.01 0.01 0.01 0.00 0.01 0.01 0.05 0.03 0.05 0.00 0.00 0.00 0.00 0.00 0.00 0.00 0.00 0.00
0.00 0.00 0.00 0.00 0.00 0.00 0.00 0.00 0.00 0.00 0.00 0.01 0.00 0.00 0.00 0.01 0.01 0.00 0.00 0.01 0.02 0.02 0.02 0.00 0.00 0.00 0.03 0.07 0.08 0.00 0.00 0.00 0.00 0.01 0.01 0.05 0.02 0.01
0.00 0.00 0.00 0.00 0.00 0.00 0.00 0.00 0.00 0.00 0.00 0.00 0.00 0.00 0.00 0.01 0.01 0.01 0.01 0.01 0.01 0.01 0.01 0.00 0.00 0.00 0.01 0.05 0.03 0.01 0.00 0.00 0.00 0.00 0.00 0.02 0.05 0.09
0.00 0.00 0.00 0.00 0.00 0.00 0.00 0.00 0.00 0.00 0.00 0.00 0.00 0.00 0.00 0.01 0.01 0.01 0.01 0.01 0.01 0.01 0.01 0.01 0.00 0.00 0.01 0.02 0.03 0.02 0.01 0.00 0.00 0.00 0.00 0.00 0.00 0.00

GFSNE_prec_precacc24_102.txt.gz
Total_Precipitation_Accumulation
0.04 0.05 0.03 0.03 0.03 0.03 0.02 0.03 0.06 0.04 0.02 0.01 0.00 0.00 0.03 0.06 0.08 0.09 0.13 0.21 0.21 0.14 0.11 0.10 0.08 0.08 0.08 0.06 0.04 0.02 0.02 0.02 0.02 0.02 0.01 0.01 0.01 0.01
0.01 0.02 0.02 0.02 0.01 0.01 0.02 0.02 0.03 0.04 0.04 0.01 0.01 0.00 0.01 0.03 0.10 0.09 0.10 0.11 0.08 0.07 0.06 0.04 0.03 0.02 0.01 0.00 0.00 0.00 0.00 0.00 0.00 0.00 0.00 0.00 0.00 0.00
0.01 0.01 0.02 0.01 0.01 0.01 0.01 0.01 0.01 0.01 0.01 0.01 0.00 0.00 0.00 0.01 0.02 0.05 0.05 0.05 0.03 0.03 0.01 0.01 0.00 0.00 0.00 0.00 0.00 0.00 0.00 0.00 0.00 0.00 0.00 0.00 0.00 0.00
0.00 0.00 0.00 0.01 0.01 0.00 0.00 0.00 0.00 0.00 0.00 0.00 0.00 0.01 0.00 0.02 0.01 0.02 0.01 0.00 0.00 0.00 0.00 0.00 0.00 0.00 0.00 0.00 0.00 0.00 0.00 0.00 0.00 0.00 0.00 0.00 0.00 0.00
0.00 0.00 0.00 0.00 0.00 0.00 0.00 0.00 0.00 0.00 0.00 0.00 0.00 0.00 0.00 0.00 0.00 0.00 0.00 0.00 0.00 0.00 0.00 0.00 0.00 0.00 0.00 0.00 0.00 0.00 0.00 0.00 0.00 0.00 0.00 0.00 0.00 0.00
0.00 0.00 0.00 0.00 0.00 0.00 0.01 0.00 0.00 0.00 0.00 0.00 0.00 0.00 0.00 0.00 0.00 0.00 0.00 0.00 0.00 0.00 0.00 0.00 0.00 0.00 0.00 0.00 0.00 0.00 0.00 0.00 0.00 0.00 0.00 0.00 0.00 0.00
0.00 0.00 0.00 0.01 0.01 0.00 0.00 0.00 0.00 0.00 0.00 0.00 0.00 0.00 0.00 0.00 0.00 0.00 0.00 0.00 0.00 0.00 0.00 0.00 0.00 0.00 0.00 0.00 0.00 0.00 0.00 0.00 0.00 0.00 0.00 0.00 0.00 0.00
0.00 0.00 0.00 0.00 0.01 0.01 0.00 0.00 0.00 0.00 0.00 0.00 0.00 0.00 0.00 0.00 0.00 0.00 0.00 0.00 0.00 0.00 0.00 0.00 0.00 0.00 0.00 0.00 0.00 0.00 0.00 0.00 0.00 0.00 0.00 0.00 0.00 0.00
0.00 0.00 0.00 0.00 0.00 0.00 0.00 0.00 0.00 0.00 0.00 0.00 0.00 0.00 0.00 0.00 0.00 0.00 0.00 0.00 0.00 0.00 0.00 0.00 0.00 0.00 0.00 0.00 0.00 0.00 0.00 0.00 0.00 0.00 0.00 0.00 0.00 0.00
0.00 0.00 0.00 0.00 0.00 0.00 0.00 0.00 0.00 0.00 0.00 0.00 0.00 0.00 0.00 0.00 0.00 0.00 0.00 0.00 0.00 0.00 0.00 0.00 0.00 0.00 0.00 0.00 0.00 0.00 0.00 0.00 0.00 0.00 0.00 0.00 0.00 0.00
0.00 0.00 0.00 0.00 0.00 0.00 0.00 0.00 0.00 0.00 0.00 0.00 0.00 0.00 0.00 0.00 0.00 0.00 0.00 0.00 0.00 0.00 0.00 0.00 0.00 0.00 0.00 0.00 0.00 0.00 0.00 0.00 0.00 0.00 0.00 0.00 0.00 0.00
0.00 0.00 0.00 0.00 0.00 0.00 0.00 0.00 0.00 0.00 0.00 0.00 0.00 0.00 0.00 0.00 0.00 0.00 0.00 0.00 0.00 0.00 0.00 0.00 0.00 0.00 0.00 0.00 0.00 0.00 0.00 0.00 0.00 0.00 0.00 0.00 0.00 0.00
0.00 0.00 0.00 0.00 0.00 0.00 0.00 0.00 0.00 0.00 0.00 0.00 0.00 0.00 0.00 0.00 0.00 0.00 0.00 0.00 0.00 0.00 0.00 0.01 0.01 0.00 0.00 0.00 0.00 0.00 0.00 0.00 0.00 0.00 0.00 0.00 0.00 0.00
0.00 0.00 0.00 0.00 0.00 0.00 0.00 0.00 0.00 0.00 0.00 0.00 0.00 0.00 0.00 0.00 0.00 0.00 0.00 0.00 0.00 0.00 0.00 0.01 0.03 0.01 0.02 0.02 0.00 0.00 0.00 0.00 0.00 0.00 0.00 0.00 0.00 0.00
0.00 0.00 0.00 0.00 0.00 0.00 0.00 0.00 0.00 0.00 0.00 0.00 0.00 0.00 0.00 0.00 0.00 0.00 0.00 0.00 0.00 0.00 0.00 0.00 0.01 0.01 0.03 0.03 0.01 0.00 0.00 0.00 0.00 0.00 0.00 0.00 0.00 0.00
0.00 0.00 0.00 0.00 0.00 0.00 0.00 0.00 0.00 0.00 0.00 0.00 0.00 0.00 0.00 0.00 0.00 0.00 0.00 0.00 0.00 0.00 0.00 0.00 0.00 0.00 0.01 0.01 0.01 0.01 0.00 0.00 0.00 0.00 0.00 0.00 0.00 0.00
0.00 0.00 0.00 0.00 0.00 0.00 0.00 0.00 0.00 0.00 0.00 0.00 0.00 0.00 0.00 0.00 0.00 0.00 0.00 0.01 0.01 0.01 0.00 0.00 0.00 0.00 0.00 0.00 0.01 0.00 0.00 0.00 0.00 0.00 0.00 0.00 0.00 0.00
0.00 0.00 0.00 0.00 0.00 0.00 0.00 0.00 0.00 0.00 0.00 0.00 0.00 0.00 0.00 0.00 0.00 0.00 0.01 0.01 0.01 0.00 0.00 0.00 0.00 0.00 0.00 0.00 0.00 0.00 0.00 0.00 0.00 0.00 0.00 0.01 0.00 0.00
0.00 0.00 0.00 0.00 0.00 0.00 0.00 0.00 0.00 0.00 0.00 0.00 0.00 0.00 0.00 0.01 0.01 0.00 0.00 0.01 0.01 0.00 0.00 0.00 0.00 0.02 0.04 0.01 0.00 0.00 0.00 0.00 0.00 0.00 0.00 0.00 0.00 0.00
0.00 0.00 0.00 0.00 0.00 0.00 0.00 0.00 0.00 0.00 0.00 0.00 0.00 0.00 0.00 0.01 0.01 0.01 0.00 0.01 0.01 0.01 0.01 0.00 0.00 0.01 0.03 0.02 0.03 0.00 0.00 0.00 0.00 0.00 0.00 0.00 0.00 0.00
0.00 0.00 0.00 0.00 0.00 0.00 0.00 0.00 0.00 0.00 0.00 0.00 0.00 0.00 0.00 0.01 0.01 0.00 0.00 0.01 0.01 0.02 0.01 0.00 0.00 0.00 0.03 0.07 0.06 0.00 0.00 0.00 0.00 0.01 0.01 0.04 0.01 0.01
0.00 0.00 0.00 0.00 0.00 0.00 0.00 0.00 0.00 0.00 0.00 0.00 0.00 0.00 0.00 0.01 0.01 0.01 0.01 0.01 0.00 0.00 0.00 0.00 0.00 0.00 0.01 0.05 0.02 0.00 0.00 0.00 0.00 0.00 0.00 0.02 0.03 0.05
0.00 0.00 0.00 0.00 0.00 0.00 0.00 0.00 0.00 0.00 0.00 0.00 0.00 0.00 0.00 0.01 0.00 0.01 0.01 0.01 0.01 0.01 0.00 0.00 0.00 0.00 0.01 0.02 0.02 0.01 0.00 0.00 0.00 0.00 0.00 0.00 0.00 0.00

GFSNE_prec_precacc24_105.txt.gz
Total_Precipitation_Accumulation
0.04 0.05 0.03 0.03 0.03 0.05 0.05 0.06 0.10 0.03 0.02 0.00 0.00 0.00 0.00 0.00 0.01 0.00 0.00 0.04 0.07 0.05 0.05 0.04 0.04 0.05 0.05 0.04 0.03 0.03 0.03 0.03 0.02 0.02 0.01 0.01 0.01 0.01
0.01 0.02 0.02 0.02 0.01 0.01 0.02 0.03 0.04 0.05 0.05 0.01 0.01 0.00 0.00 0.00 0.01 0.00 0.00 0.02 0.02 0.02 0.02 0.03 0.02 0.01 0.01 0.00 0.00 0.00 0.00 0.00 0.00 0.00 0.00 0.00 0.00 0.00
0.01 0.01 0.02 0.01 0.01 0.01 0.01 0.01 0.01 0.01 0.01 0.01 0.01 0.00 0.00 0.00 0.00 0.00 0.00 0.00 0.00 0.01 0.00 0.00 0.00 0.00 0.00 0.00 0.00 0.00 0.00 0.00 0.00 0.00 0.00 0.00 0.00 0.00
0.00 0.00 0.00 0.01 0.01 0.01 0.00 0.00 0.00 0.00 0.00 0.00 0.01 0.01 0.00 0.01 0.00 0.00 0.00 0.00 0.00 0.01 0.00 0.00 0.00 0.00 0.00 0.00 0.00 0.00 0.00 0.00 0.00 0.00 0.00 0.00 0.00 0.00
0.00 0.00 0.00 0.00 0.00 0.00 0.00 0.00 0.00 0.00 0.01 0.01 0.01 0.02 0.01 0.01 0.00 0.00 0.00 0.00 0.00 0.00 0.00 0.00 0.00 0.00 0.00 0.00 0.00 0.00 0.00 0.00 0.00 0.00 0.00 0.00 0.00 0.00
0.00 0.00 0.00 0.00 0.00 0.01 0.01 0.01 0.01 0.01 0.01 0.01 0.01 0.01 0.00 0.00 0.00 0.00 0.00 0.00 0.00 0.00 0.00 0.00 0.00 0.00 0.00 0.00 0.00 0.00 0.00 0.00 0.00 0.00 0.00 0.00 0.00 0.00
0.00 0.00 0.00 0.01 0.01 0.00 0.00 0.00 0.01 0.01 0.00 0.00 0.00 0.00 0.00 0.00 0.00 0.00 0.00 0.00 0.00 0.00 0.00 0.00 0.00 0.00 0.00 0.00 0.00 0.00 0.00 0.00 0.00 0.00 0.00 0.00 0.00 0.00
0.00 0.00 0.00 0.00 0.00 0.00 0.01 0.00 0.00 0.00 0.00 0.00 0.00 0.00 0.00 0.00 0.00 0.00 0.00 0.00 0.00 0.00 0.00 0.00 0.00 0.00 0.00 0.00 0.00 0.00 0.00 0.00 0.00 0.00 0.00 0.00 0.00 0.00
0.00 0.00 0.00 0.00 0.00 0.00 0.00 0.00 0.00 0.00 0.00 0.00 0.00 0.00 0.00 0.00 0.00 0.00 0.00 0.00 0.00 0.00 0.00 0.00 0.00 0.00 0.00 0.00 0.00 0.00 0.00 0.00 0.00 0.00 0.00 0.00 0.00 0.00
0.00 0.00 0.00 0.00 0.00 0.00 0.00 0.00 0.00 0.00 0.00 0.00 0.00 0.00 0.00 0.00 0.00 0.00 0.00 0.00 0.00 0.00 0.00 0.00 0.00 0.00 0.00 0.00 0.00 0.00 0.00 0.00 0.00 0.00 0.00 0.00 0.00 0.00
0.00 0.00 0.00 0.00 0.01 0.00 0.00 0.00 0.00 0.00 0.00 0.00 0.00 0.00 0.00 0.00 0.00 0.00 0.00 0.00 0.00 0.00 0.00 0.00 0.00 0.00 0.00 0.00 0.00 0.00 0.00 0.00 0.00 0.00 0.00 0.00 0.00 0.00
0.00 0.00 0.02 0.00 0.01 0.00 0.00 0.00 0.00 0.00 0.00 0.00 0.00 0.00 0.00 0.00 0.00 0.00 0.00 0.00 0.00 0.00 0.00 0.00 0.00 0.00 0.00 0.00 0.00 0.00 0.00 0.00 0.00 0.00 0.00 0.00 0.00 0.00
0.00 0.00 0.00 0.02 0.00 0.00 0.00 0.00 0.00 0.00 0.00 0.00 0.00 0.00 0.00 0.00 0.00 0.00 0.00 0.00 0.00 0.00 0.00 0.00 0.01 0.00 0.00 0.00 0.00 0.00 0.00 0.00 0.00 0.00 0.00 0.00 0.00 0.00
0.00 0.00 0.00 0.00 0.00 0.00 0.00 0.00 0.00 0.00 0.00 0.00 0.00 0.00 0.00 0.00 0.00 0.00 0.00 0.00 0.00 0.00 0.00 0.01 0.02 0.01 0.02 0.01 0.00 0.00 0.00 0.00 0.00 0.00 0.00 0.00 0.00 0.00
0.00 0.00 0.00 0.00 0.00 0.00 0.00 0.00 0.00 0.00 0.00 0.00 0.00 0.00 0.00 0.00 0.00 0.00 0.00 0.00 0.00 0.00 0.00 0.00 0.01 0.01 0.02 0.02 0.01 0.00 0.00 0.00 0.00 0.00 0.00 0.00 0.00 0.00
0.00 0.00 0.00 0.00 0.00 0.00 0.00 0.00 0.00 0.00 0.00 0.00 0.00 0.00 0.00 0.00 0.00 0.00 0.00 0.00 0.00 0.00 0.00 0.00 0.00 0.00 0.01 0.01 0.01 0.01 0.00 0.00 0.00 0.00 0.00 0.00 0.00 0.00
0.00 0.00 0.00 0.00 0.00 0.00 0.00 0.00 0.00 0.00 0.00 0.00 0.00 0.00 0.00 0.00 0.00 0.00 0.00 0.00 0.01 0.01 0.00 0.00 0.00 0.00 0.00 0.00 0.01 0.00 0.00 0.00 0.00 0.00 0.00 0.00 0.00 0.00
0.00 0.00 0.00 0.00 0.00 0.00 0.00 0.00 0.00 0.00 0.00 0.00 0.00 0.00 0.00 0.00 0.00 0.00 0.01 0.01 0.01 0.00 0.00 0.00 0.00 0.00 0.00 0.00 0.00 0.00 0.00 0.00 0.00 0.00 0.00 0.01 0.00 0.00
0.00 0.00 0.00 0.00 0.00 0.00 0.00 0.00 0.00 0.00 0.00 0.00 0.00 0.00 0.00 0.00 0.00 0.00 0.00 0.01 0.01 0.00 0.00 0.00 0.00 0.02 0.03 0.01 0.00 0.00 0.00 0.00 0.00 0.00 0.00 0.00 0.00 0.00
0.00 0.00 0.00 0.00 0.00 0.00 0.00 0.00 0.00 0.00 0.00 0.00 0.00 0.00 0.00 0.00 0.01 0.01 0.00 0.01 0.01 0.00 0.00 0.00 0.00 0.01 0.02 0.01 0.02 0.00 0.00 0.00 0.00 0.00 0.00 0.00 0.00 0.00
0.00 0.00 0.00 0.00 0.00 0.00 0.00 0.00 0.00 0.00 0.00 0.00 0.00 0.00 0.00 0.00 0.00 0.00 0.00 0.00 0.01 0.01 0.01 0.00 0.00 0.00 0.03 0.05 0.04 0.00 0.00 0.00 0.00 0.01 0.01 0.03 0.01 0.00
0.00 0.00 0.00 0.00 0.00 0.00 0.00 0.00 0.00 0.00 0.00 0.00 0.00 0.00 0.00 0.00 0.00 0.01 0.00 0.00 0.00 0.00 0.00 0.00 0.00 0.00 0.01 0.04 0.02 0.00 0.00 0.00 0.00 0.00 0.00 0.02 0.02 0.03
0.00 0.00 0.00 0.00 0.00 0.00 0.00 0.00 0.00 0.00 0.00 0.00 0.00 0.00 0.00 0.00 0.00 0.00 0.00 0.00 0.00 0.00 0.00 0.00 0.00 0.00 0.01 0.02 0.02 0.01 0.00 0.00 0.00 0.00 0.00 0.00 0.00 0.00

GFSNE_prec_precacc24_108.txt.gz
Total_Precipitation_Accumulation
0.04 0.05 0.03 0.03 0.04 0.06 0.07 0.10 0.15 0.05 0.02 0.01 0.00 0.00 0.00 0.00 0.00 0.00 0.00 0.02 0.03 0.02 0.01 0.01 0.00 0.01 0.00 0.00 0.01 0.05 0.05 0.05 0.03 0.02 0.01 0.01 0.00 0.00
0.01 0.02 0.02 0.02 0.01 0.01 0.03 0.04 0.06 0.08 0.07 0.02 0.01 0.01 0.00 0.00 0.01 0.00 0.00 0.01 0.01 0.01 0.00 0.00 0.00 0.00 0.00 0.00 0.00 0.00 0.00 0.00 0.00 0.00 0.00 0.00 0.00 0.00
0.01 0.01 0.02 0.01 0.01 0.01 0.01 0.01 0.02 0.04 0.04 0.03 0.03 0.02 0.02 0.01 0.01 0.00 0.00 0.00 0.00 0.00 0.00 0.00 0.00 0.00 0.00 0.00 0.00 0.00 0.00 0.00 0.00 0.00 0.00 0.00 0.00 0.00
0.00 0.00 0.00 0.01 0.01 0.01 0.00 0.01 0.00 0.01 0.01 0.01 0.02 0.02 0.02 0.02 0.01 0.01 0.00 0.00 0.00 0.00 0.00 0.00 0.00 0.00 0.00 0.00 0.00 0.00 0.00 0.00 0.00 0.00 0.00 0.00 0.00 0.00
0.00 0.00 0.00 0.00 0.00 0.00 0.00 0.00 0.00 0.00 0.01 0.02 0.02 0.02 0.03 0.03 0.02 0.01 0.00 0.00 0.00 0.00 0.00 0.00 0.00 0.00 0.00 0.00 0.00 0.00 0.00 0.00 0.00 0.00 0.00 0.00 0.00 0.00
0.00 0.00 0.00 0.00 0.00 0.01 0.01 0.01 0.01 0.02 0.02 0.02 0.02 0.01 0.01 0.01 0.01 0.00 0.00 0.00 0.00 0.00 0.00 0.00 0.00 0.00 0.00 0.00 0.00 0.00 0.00 0.00 0.00 0.00 0.00 0.00 0.00 0.00
0.00 0.00 0.00 0.00 0.01 0.00 0.00 0.00 0.01 0.01 0.01 0.01 0.01 0.00 0.01 0.01 0.01 0.01 0.00 0.00 0.00 0.00 0.00 0.00 0.00 0.00 0.00 0.00 0.00 0.00 0.00 0.00 0.00 0.00 0.00 0.00 0.00 0.00
0.00 0.00 0.00 0.00 0.00 0.00 0.00 0.00 0.00 0.00 0.00 0.00 0.00 0.00 0.00 0.00 0.00 0.00 0.00 0.00 0.00 0.00 0.00 0.00 0.00 0.00 0.00 0.00 0.00 0.00 0.00 0.00 0.00 0.00 0.00 0.00 0.00 0.00
0.00 0.00 0.00 0.00 0.00 0.00 0.00 0.00 0.00 0.00 0.00 0.00 0.00 0.00 0.00 0.00 0.00 0.00 0.00 0.00 0.00 0.00 0.00 0.00 0.00 0.00 0.00 0.00 0.00 0.00 0.00 0.00 0.00 0.00 0.00 0.00 0.00 0.00
0.00 0.00 0.00 0.00 0.01 0.00 0.00 0.00 0.00 0.00 0.00 0.00 0.00 0.00 0.00 0.00 0.00 0.00 0.00 0.00 0.00 0.00 0.00 0.00 0.00 0.00 0.00 0.00 0.00 0.00 0.00 0.00 0.00 0.00 0.00 0.00 0.00 0.00
0.00 0.00 0.00 0.00 0.02 0.01 0.00 0.00 0.00 0.00 0.00 0.00 0.00 0.00 0.00 0.00 0.00 0.00 0.00 0.00 0.00 0.00 0.00 0.00 0.00 0.00 0.00 0.00 0.00 0.00 0.00 0.00 0.00 0.00 0.00 0.00 0.00 0.00
0.00 0.00 0.02 0.01 0.01 0.01 0.00 0.00 0.00 0.00 0.00 0.00 0.00 0.00 0.00 0.00 0.00 0.00 0.00 0.00 0.00 0.00 0.00 0.00 0.00 0.00 0.00 0.00 0.00 0.00 0.00 0.00 0.00 0.00 0.00 0.00 0.00 0.00
0.00 0.00 0.00 0.02 0.01 0.00 0.00 0.00 0.00 0.00 0.00 0.00 0.00 0.00 0.00 0.00 0.00 0.00 0.00 0.00 0.00 0.00 0.00 0.00 0.00 0.00 0.00 0.00 0.00 0.00 0.00 0.00 0.00 0.00 0.00 0.00 0.00 0.00
0.00 0.00 0.00 0.00 0.00 0.00 0.00 0.00 0.00 0.00 0.00 0.00 0.00 0.00 0.00 0.00 0.00 0.00 0.00 0.00 0.00 0.00 0.00 0.00 0.01 0.01 0.01 0.01 0.00 0.00 0.00 0.00 0.00 0.00 0.00 0.00 0.00 0.00
0.00 0.00 0.00 0.00 0.00 0.00 0.00 0.00 0.00 0.00 0.00 0.00 0.00 0.00 0.00 0.00 0.00 0.00 0.00 0.00 0.00 0.00 0.00 0.00 0.00 0.01 0.01 0.01 0.01 0.00 0.00 0.00 0.00 0.00 0.00 0.00 0.00 0.00
0.00 0.00 0.00 0.00 0.00 0.00 0.00 0.00 0.00 0.00 0.00 0.00 0.00 0.00 0.00 0.00 0.00 0.00 0.00 0.00 0.00 0.00 0.00 0.00 0.00 0.00 0.01 0.00 0.00 0.00 0.00 0.00 0.00 0.00 0.00 0.00 0.00 0.00
0.00 0.00 0.00 0.00 0.00 0.00 0.00 0.00 0.00 0.00 0.00 0.00 0.00 0.00 0.00 0.00 0.00 0.00 0.00 0.00 0.00 0.00 0.00 0.00 0.00 0.00 0.00 0.00 0.01 0.00 0.00 0.00 0.00 0.00 0.00 0.00 0.00 0.00
0.00 0.00 0.00 0.00 0.00 0.00 0.00 0.00 0.00 0.00 0.00 0.00 0.00 0.00 0.00 0.00 0.00 0.00 0.00 0.01 0.01 0.00 0.00 0.00 0.00 0.00 0.00 0.00 0.00 0.00 0.00 0.00 0.00 0.00 0.00 0.01 0.00 0.00
0.00 0.00 0.00 0.00 0.00 0.00 0.00 0.00 0.00 0.00 0.00 0.00 0.00 0.00 0.00 0.00 0.00 0.00 0.00 0.00 0.00 0.00 0.00 0.00 0.00 0.01 0.02 0.01 0.00 0.00 0.00 0.00 0.00 0.00 0.00 0.00 0.00 0.00
0.00 0.00 0.00 0.00 0.00 0.00 0.00 0.00 0.00 0.00 0.00 0.00 0.00 0.00 0.00 0.00 0.00 0.01 0.00 0.00 0.00 0.00 0.00 0.00 0.00 0.01 0.02 0.01 0.01 0.00 0.00 0.00 0.00 0.00 0.00 0.00 0.00 0.00
0.00 0.00 0.00 0.00 0.00 0.00 0.00 0.00 0.00 0.00 0.00 0.00 0.00 0.00 0.00 0.00 0.00 0.00 0.00 0.00 0.00 0.01 0.01 0.00 0.00 0.00 0.02 0.04 0.03 0.00 0.00 0.00 0.00 0.01 0.01 0.03 0.01 0.00
0.00 0.00 0.00 0.00 0.00 0.00 0.00 0.00 0.00 0.00 0.00 0.00 0.00 0.00 0.00 0.00 0.00 0.00 0.00 0.00 0.00 0.00 0.00 0.00 0.00 0.00 0.01 0.03 0.01 0.00 0.00 0.00 0.00 0.00 0.00 0.02 0.02 0.02
0.00 0.00 0.00 0.00 0.00 0.00 0.00 0.00 0.00 0.00 0.00 0.00 0.00 0.00 0.00 0.00 0.00 0.00 0.00 0.00 0.00 0.00 0.00 0.00 0.00 0.00 0.01 0.01 0.01 0.01 0.00 0.00 0.00 0.00 0.00 0.00 0.00 0.00

GFSNE_prec_precacc24_111.txt.gz
Total_Precipitation_Accumulation
0.04 0.05 0.03 0.03 0.04 0.06 0.08 0.11 0.17 0.06 0.03 0.01 0.00 0.00 0.01 0.02 0.04 0.02 0.02 0.04 0.02 0.02 0.01 0.01 0.00 0.01 0.00 0.00 0.01 0.07 0.08 0.10 0.10 0.04 0.01 0.00 0.00 0.00
0.01 0.02 0.02 0.02 0.01 0.01 0.03 0.04 0.06 0.10 0.08 0.02 0.01 0.01 0.01 0.01 0.02 0.01 0.02 0.05 0.03 0.01 0.00 0.00 0.00 0.00 0.00 0.00 0.00 0.02 0.04 0.06 0.05 0.02 0.00 0.00 0.00 0.00
0.01 0.01 0.02 0.01 0.01 0.01 0.01 0.01 0.02 0.04 0.05 0.03 0.04 0.03 0.02 0.02 0.02 0.01 0.01 0.00 0.01 0.01 0.00 0.00 0.00 0.00 0.00 0.00 0.00 0.00 0.00 0.00 0.00 0.00 0.00 0.00 0.00 0.00
0.00 0.00 0.00 0.01 0.01 0.01 0.00 0.01 0.00 0.01 0.01 0.01 0.02 0.03 0.02 0.02 0.02 0.01 0.01 0.00 0.00 0.00 0.00 0.00 0.00 0.00 0.00 0.00 0.00 0.00 0.00 0.00 0.00 0.00 0.00 0.00 0.00 0.00
0.00 0.00 0.00 0.00 0.00 0.00 0.00 0.00 0.00 0.01 0.02 0.02 0.03 0.03 0.04 0.05 0.03 0.02 0.01 0.00 0.00 0.01 0.00 0.00 0.00 0.00 0.00 0.00 0.00 0.00 0.00 0.00 0.00 0.00 0.00 0.00 0.00 0.00
0.00 0.00 0.00 0.00 0.00 0.01 0.01 0.01 0.01 0.02 0.02 0.02 0.03 0.02 0.02 0.02 0.01 0.01 0.00 0.00 0.00 0.00 0.00 0.00 0.00 0.00 0.00 0.00 0.00 0.00 0.00 0.00 0.00 0.00 0.00 0.00 0.00 0.00
0.00 0.00 0.00 0.00 0.01 0.00 0.00 0.00 0.01 0.01 0.02 0.02 0.03 0.02 0.03 0.03 0.02 0.01 0.01 0.01 0.00 0.00 0.00 0.00 0.00 0.00 0.00 0.00 0.00 0.00 0.00 0.00 0.00 0.00 0.00 0.00 0.00 0.00
0.00 0.00 0.00 0.00 0.00 0.00 0.00 0.00 0.00 0.00 0.00 0.00 0.00 0.01 0.01 0.00 0.00 0.00 0.00 0.00 0.00 0.00 0.00 0.00 0.00 0.00 0.00 0.00 0.00 0.00 0.00 0.00 0.00 0.00 0.00 0.00 0.00 0.00
0.00 0.00 0.00 0.00 0.00 0.00 0.00 0.00 0.00 0.01 0.00 0.00 0.00 0.00 0.00 0.00 0.00 0.00 0.00 0.00 0.00 0.00 0.00 0.00 0.00 0.00 0.00 0.00 0.00 0.00 0.00 0.00 0.00 0.00 0.00 0.00 0.00 0.00
0.00 0.00 0.00 0.00 0.01 0.00 0.00 0.00 0.00 0.00 0.00 0.00 0.00 0.00 0.00 0.00 0.00 0.00 0.00 0.00 0.00 0.00 0.00 0.00 0.00 0.00 0.00 0.00 0.00 0.00 0.00 0.00 0.00 0.00 0.00 0.00 0.00 0.00
0.00 0.00 0.00 0.00 0.02 0.01 0.00 0.00 0.00 0.00 0.00 0.00 0.00 0.00 0.00 0.00 0.00 0.00 0.00 0.00 0.00 0.00 0.00 0.00 0.00 0.00 0.00 0.00 0.00 0.00 0.00 0.00 0.00 0.00 0.00 0.00 0.00 0.00
0.00 0.00 0.02 0.01 0.01 0.01 0.00 0.00 0.00 0.00 0.00 0.00 0.00 0.00 0.00 0.00 0.00 0.00 0.00 0.00 0.00 0.00 0.00 0.00 0.00 0.00 0.00 0.00 0.00 0.00 0.00 0.00 0.00 0.00 0.00 0.00 0.00 0.00
0.00 0.00 0.00 0.02 0.01 0.00 0.00 0.00 0.00 0.00 0.00 0.00 0.00 0.00 0.00 0.00 0.00 0.00 0.00 0.00 0.00 0.00 0.00 0.00 0.00 0.00 0.00 0.00 0.00 0.00 0.00 0.00 0.00 0.00 0.00 0.00 0.00 0.00
0.00 0.00 0.00 0.00 0.00 0.00 0.00 0.00 0.00 0.00 0.00 0.00 0.00 0.00 0.00 0.00 0.00 0.00 0.00 0.00 0.00 0.00 0.00 0.00 0.00 0.00 0.01 0.00 0.00 0.00 0.00 0.00 0.00 0.00 0.00 0.00 0.00 0.00
0.00 0.00 0.00 0.00 0.00 0.00 0.00 0.00 0.00 0.00 0.00 0.00 0.00 0.00 0.00 0.00 0.00 0.00 0.00 0.00 0.00 0.00 0.00 0.00 0.00 0.00 0.01 0.01 0.00 0.00 0.00 0.00 0.00 0.00 0.00 0.00 0.00 0.00
0.00 0.00 0.00 0.00 0.00 0.00 0.00 0.00 0.00 0.00 0.00 0.00 0.00 0.00 0.00 0.00 0.00 0.00 0.00 0.00 0.00 0.00 0.00 0.00 0.00 0.00 0.01 0.00 0.00 0.00 0.00 0.00 0.00 0.00 0.00 0.00 0.00 0.00
0.00 0.00 0.00 0.00 0.00 0.00 0.00 0.00 0.00 0.00 0.00 0.00 0.00 0.00 0.00 0.00 0.00 0.00 0.00 0.00 0.00 0.00 0.00 0.00 0.00 0.00 0.00 0.00 0.01 0.00 0.00 0.00 0.00 0.00 0.00 0.00 0.00 0.00
0.00 0.00 0.00 0.00 0.00 0.00 0.00 0.00 0.00 0.00 0.00 0.00 0.00 0.00 0.00 0.00 0.00 0.00 0.00 0.00 0.00 0.00 0.00 0.00 0.00 0.00 0.00 0.00 0.00 0.00 0.00 0.00 0.00 0.00 0.00 0.01 0.00 0.00
0.00 0.00 0.00 0.00 0.00 0.00 0.00 0.00 0.00 0.00 0.00 0.00 0.00 0.00 0.00 0.00 0.00 0.00 0.00 0.00 0.00 0.00 0.00 0.00 0.00 0.01 0.02 0.01 0.00 0.00 0.00 0.00 0.00 0.00 0.00 0.00 0.00 0.00
0.00 0.00 0.00 0.00 0.00 0.00 0.00 0.00 0.00 0.00 0.00 0.00 0.00 0.00 0.00 0.00 0.00 0.00 0.00 0.00 0.00 0.00 0.00 0.00 0.00 0.01 0.01 0.01 0.01 0.00 0.00 0.00 0.00 0.00 0.00 0.00 0.00 0.00
0.00 0.00 0.00 0.00 0.00 0.00 0.00 0.00 0.00 0.00 0.00 0.00 0.00 0.00 0.00 0.00 0.00 0.00 0.00 0.00 0.00 0.00 0.00 0.00 0.00 0.00 0.02 0.03 0.02 0.00 0.00 0.00 0.00 0.01 0.01 0.02 0.01 0.00
0.00 0.00 0.00 0.00 0.00 0.00 0.00 0.00 0.00 0.00 0.00 0.00 0.00 0.00 0.00 0.00 0.00 0.00 0.00 0.00 0.00 0.00 0.00 0.00 0.00 0.00 0.01 0.03 0.01 0.00 0.00 0.00 0.00 0.00 0.00 0.01 0.02 0.02
0.00 0.00 0.00 0.00 0.01 0.01 0.01 0.00 0.00 0.00 0.00 0.00 0.00 0.00 0.00 0.00 0.00 0.00 0.00 0.00 0.00 0.00 0.00 0.00 0.00 0.00 0.00 0.01 0.01 0.01 0.00 0.00 0.00 0.00 0.00 0.00 0.00 0.00

GFSNE_prec_precacc24_114.txt.gz
Total_Precipitation_Accumulation
0.04 0.05 0.03 0.03 0.04 0.06 0.08 0.12 0.18 0.07 0.03 0.01 0.00 0.00 0.01 0.02 0.05 0.04 0.06 0.11 0.07 0.03 0.02 0.01 0.00 0.00 0.00 0.00 0.01 0.08 0.09 0.11 0.14 0.08 0.01 0.00 0.00 0.00
0.01 0.02 0.02 0.02 0.01 0.01 0.03 0.04 0.06 0.10 0.09 0.02 0.01 0.01 0.01 0.01 0.02 0.01 0.02 0.06 0.06 0.05 0.04 0.02 0.00 0.00 0.00 0.00 0.00 0.03 0.09 0.11 0.10 0.07 0.02 0.00 0.00 0.00
0.01 0.01 0.02 0.01 0.01 0.01 0.01 0.01 0.02 0.04 0.06 0.03 0.04 0.04 0.02 0.02 0.02 0.02 0.02 0.01 0.02 0.03 0.01 0.00 0.00 0.00 0.00 0.00 0.00 0.00 0.02 0.05 0.06 0.04 0.03 0.00 0.00 0.00
0.00 0.00 0.00 0.01 0.01 0.01 0.00 0.01 0.00 0.01 0.01 0.01 0.02 0.03 0.02 0.02 0.02 0.01 0.01 0.00 0.00 0.01 0.01 0.00 0.00 0.00 0.00 0.00 0.00 0.00 0.00 0.00 0.01 0.01 0.01 0.00 0.00 0.00
0.00 0.00 0.00 0.00 0.00 0.00 0.00 0.00 0.00 0.01 0.02 0.02 0.03 0.03 0.04 0.05 0.04 0.02 0.01 0.02 0.02 0.03 0.01 0.00 0.00 0.00 0.00 0.00 0.00 0.00 0.00 0.00 0.00 0.00 0.00 0.00 0.00 0.00
0.00 0.00 0.00 0.00 0.00 0.01 0.01 0.01 0.01 0.02 0.02 0.02 0.03 0.02 0.02 0.02 0.02 0.01 0.01 0.00 0.01 0.01 0.02 0.01 0.00 0.00 0.00 0.00 0.00 0.00 0.00 0.00 0.00 0.00 0.00 0.00 0.00 0.00
0.00 0.00 0.00 0.00 0.01 0.00 0.00 0.00 0.01 0.01 0.02 0.02 0.03 0.03 0.03 0.03 0.03 0.03 0.03 0.02 0.01 0.01 0.00 0.00 0.00 0.00 0.00 0.00 0.00 0.00 0.00 0.00 0.00 0.00 0.00 0.00 0.00 0.00
0.00 0.00 0.00 0.00 0.00 0.00 0.00 0.00 0.00 0.00 0.00 0.00 0.00 0.01 0.01 0.00 0.01 0.01 0.01 0.01 0.01 0.00 0.00 0.00 0.00 0.00 0.00 0.00 0.00 0.00 0.00 0.00 0.00 0.00 0.00 0.00 0.00 0.00
0.00 0.00 0.00 0.00 0.00 0.00 0.00 0.00 0.00 0.01 0.01 0.00 0.00 0.00 0.00 0.00 0.00 0.00 0.00 0.00 0.00 0.00 0.00 0.00 0.00 0.00 0.00 0.00 0.00 0.00 0.00 0.00 0.00 0.00 0.00 0.00 0.00 0.00
0.00 0.00 0.00 0.00 0.01 0.00 0.00 0.00 0.00 0.00 0.00 0.00 0.00 0.00 0.00 0.00 0.00 0.00 0.00 0.00 0.00 0.00 0.00 0.00 0.00 0.00 0.00 0.00 0.00 0.00 0.00 0.00 0.00 0.00 0.00 0.00 0.00 0.00
0.00 0.00 0.00 0.00 0.02 0.01 0.00 0.00 0.00 0.00 0.00 0.01 0.00 0.00 0.00 0.00 0.00 0.00 0.00 0.00 0.00 0.00 0.00 0.00 0.00 0.00 0.00 0.00 0.00 0.00 0.00 0.00 0.00 0.00 0.00 0.00 0.00 0.00
0.00 0.00 0.02 0.01 0.01 0.01 0.00 0.00 0.00 0.00 0.00 0.00 0.00 0.00 0.00 0.00 0.00 0.00 0.00 0.00 0.00 0.00 0.00 0.00 0.00 0.00 0.00 0.00 0.00 0.00 0.00 0.00 0.00 0.00 0.00 0.00 0.00 0.00
0.00 0.00 0.00 0.02 0.01 0.00 0.00 0.00 0.00 0.00 0.00 0.00 0.00 0.00 0.00 0.00 0.00 0.00 0.00 0.00 0.00 0.00 0.00 0.00 0.00 0.00 0.00 0.00 0.00 0.00 0.00 0.00 0.00 0.00 0.00 0.00 0.00 0.00
0.00 0.00 0.00 0.00 0.00 0.00 0.00 0.00 0.00 0.00 0.00 0.00 0.00 0.00 0.00 0.00 0.00 0.00 0.00 0.00 0.00 0.00 0.00 0.00 0.00 0.00 0.00 0.00 0.00 0.00 0.00 0.00 0.00 0.00 0.00 0.00 0.00 0.00
0.00 0.00 0.00 0.00 0.00 0.00 0.00 0.00 0.00 0.00 0.00 0.00 0.00 0.00 0.00 0.00 0.00 0.00 0.00 0.00 0.00 0.00 0.00 0.00 0.00 0.00 0.00 0.00 0.00 0.00 0.00 0.00 0.00 0.00 0.00 0.00 0.00 0.00
0.00 0.00 0.00 0.00 0.00 0.00 0.00 0.00 0.00 0.00 0.00 0.00 0.00 0.00 0.00 0.00 0.00 0.00 0.00 0.00 0.00 0.00 0.00 0.00 0.00 0.00 0.00 0.00 0.00 0.00 0.00 0.00 0.00 0.00 0.00 0.00 0.00 0.00
0.00 0.00 0.00 0.00 0.00 0.00 0.00 0.00 0.00 0.00 0.00 0.00 0.00 0.00 0.00 0.00 0.00 0.00 0.00 0.00 0.00 0.00 0.00 0.00 0.00 0.00 0.00 0.00 0.01 0.00 0.00 0.00 0.00 0.00 0.00 0.00 0.00 0.00
0.00 0.00 0.00 0.00 0.00 0.00 0.00 0.00 0.00 0.00 0.00 0.00 0.00 0.00 0.00 0.00 0.00 0.00 0.00 0.00 0.00 0.00 0.00 0.00 0.00 0.00 0.00 0.00 0.00 0.00 0.00 0.00 0.00 0.00 0.00 0.01 0.00 0.00
0.00 0.00 0.00 0.00 0.00 0.00 0.00 0.00 0.00 0.00 0.00 0.00 0.00 0.00 0.00 0.00 0.00 0.00 0.00 0.00 0.00 0.00 0.00 0.00 0.00 0.01 0.01 0.01 0.00 0.00 0.00 0.00 0.00 0.00 0.00 0.00 0.00 0.00
0.00 0.00 0.00 0.00 0.00 0.00 0.00 0.00 0.00 0.00 0.00 0.00 0.00 0.00 0.00 0.00 0.00 0.00 0.00 0.00 0.00 0.00 0.00 0.00 0.00 0.00 0.01 0.00 0.00 0.00 0.00 0.00 0.00 0.00 0.00 0.00 0.00 0.00
0.00 0.00 0.00 0.00 0.00 0.00 0.00 0.00 0.00 0.00 0.00 0.00 0.00 0.00 0.00 0.00 0.00 0.00 0.00 0.00 0.00 0.00 0.00 0.00 0.00 0.00 0.02 0.03 0.02 0.00 0.00 0.00 0.00 0.00 0.01 0.02 0.00 0.00
0.00 0.00 0.00 0.00 0.00 0.00 0.00 0.00 0.00 0.00 0.00 0.00 0.00 0.00 0.00 0.00 0.00 0.00 0.00 0.00 0.00 0.00 0.00 0.00 0.00 0.00 0.00 0.02 0.00 0.00 0.00 0.00 0.00 0.00 0.00 0.01 0.01 0.01
0.01 0.00 0.00 0.00 0.01 0.01 0.01 0.00 0.00 0.00 0.00 0.00 0.00 0.00 0.00 0.00 0.00 0.00 0.00 0.00 0.00 0.00 0.00 0.00 0.00 0.00 0.00 0.01 0.01 0.01 0.00 0.00 0.00 0.00 0.00 0.00 0.00 0.00

GFSNE_prec_precacc24_117.txt.gz
Total_Precipitation_Accumulation
0.04 0.04 0.03 0.03 0.04 0.06 0.08 0.12 0.18 0.07 0.02 0.01 0.00 0.00 0.01 0.02 0.05 0.04 0.06 0.10 0.09 0.05 0.02 0.02 0.02 0.02 0.01 0.00 0.01 0.08 0.09 0.12 0.16 0.11 0.03 0.02 0.05 0.03
0.00 0.01 0.01 0.02 0.01 0.01 0.03 0.04 0.06 0.10 0.09 0.02 0.01 0.01 0.01 0.01 0.02 0.01 0.02 0.06 0.07 0.07 0.06 0.05 0.04 0.03 0.02 0.00 0.00 0.03 0.10 0.16 0.18 0.12 0.05 0.03 0.02 0.01
0.00 0.00 0.01 0.01 0.01 0.01 0.01 0.01 0.02 0.04 0.06 0.03 0.04 0.04 0.02 0.02 0.02 0.02 0.02 0.01 0.02 0.04 0.02 0.01 0.00 0.00 0.00 0.00 0.00 0.00 0.03 0.11 0.14 0.15 0.15 0.08 0.04 0.02
0.00 0.00 0.00 0.01 0.01 0.01 0.00 0.01 0.00 0.01 0.01 0.02 0.02 0.03 0.02 0.02 0.02 0.01 0.01 0.00 0.00 0.02 0.01 0.01 0.00 0.00 0.00 0.00 0.00 0.00 0.00 0.01 0.03 0.06 0.07 0.05 0.03 0.02
0.00 0.00 0.00 0.00 0.00 0.00 0.00 0.00 0.00 0.01 0.02 0.02 0.03 0.03 0.04 0.05 0.04 0.02 0.01 0.02 0.02 0.06 0.02 0.01 0.01 0.00 0.00 0.00 0.01 0.01 0.00 0.00 0.00 0.01 0.02 0.01 0.01 0.01
0.00 0.00 0.00 0.00 0.00 0.01 0.01 0.01 0.01 0.02 0.02 0.02 0.03 0.02 0.02 0.02 0.02 0.01 0.01 0.00 0.01 0.01 0.04 0.03 0.01 0.00 0.00 0.00 0.01 0.00 0.00 0.00 0.00 0.00 0.00 0.00 0.00 0.00
0.00 0.00 0.00 0.00 0.01 0.00 0.00 0.00 0.01 0.01 0.02 0.02 0.03 0.03 0.03 0.03 0.03 0.03 0.03 0.03 0.02 0.02 0.02 0.01 0.00 0.00 0.00 0.00 0.00 0.00 0.00 0.00 0.00 0.00 0.00 0.00 0.00 0.00
0.00 0.00 0.00 0.00 0.00 0.00 0.00 0.00 0.00 0.00 0.00 0.00 0.00 0.01 0.01 0.01 0.01 0.02 0.02 0.02 0.01 0.00 0.00 0.00 0.00 0.00 0.00 0.00 0.00 0.00 0.00 0.00 0.00 0.00 0.00 0.00 0.00 0.00
0.00 0.00 0.00 0.00 0.00 0.00 0.00 0.00 0.00 0.01 0.01 0.00 0.00 0.00 0.00 0.00 0.00 0.00 0.00 0.01 0.01 0.00 0.00 0.00 0.00 0.00 0.00 0.00 0.00 0.00 0.00 0.00 0.00 0.00 0.00 0.00 0.00 0.00
0.00 0.00 0.00 0.00 0.01 0.00 0.00 0.00 0.00 0.00 0.00 0.00 0.00 0.00 0.00 0.00 0.00 0.00 0.00 0.00 0.00 0.00 0.00 0.00 0.00 0.00 0.00 0.00 0.00 0.00 0.00 0.00 0.00 0.00 0.00 0.00 0.00 0.00
0.00 0.00 0.00 0.00 0.02 0.01 0.00 0.00 0.00 0.00 0.00 0.01 0.00 0.00 0.01 0.01 0.00 0.00 0.00 0.00 0.00 0.00 0.00 0.00 0.00 0.00 0.00 0.00 0.00 0.00 0.00 0.00 0.00 0.00 0.00 0.00 0.00 0.00
0.00 0.00 0.02 0.01 0.01 0.01 0.00 0.00 0.00 0.00 0.00 0.00 0.00 0.00 0.00 0.00 0.01 0.00 0.00 0.00 0.00 0.00 0.00 0.00 0.00 0.00 0.00 0.00 0.00 0.00 0.00 0.00 0.00 0.00 0.00 0.00 0.00 0.00
0.00 0.00 0.00 0.02 0.01 0.00 0.00 0.00 0.00 0.00 0.00 0.00 0.00 0.00 0.00 0.00 0.00 0.00 0.00 0.00 0.00 0.01 0.00 0.00 0.00 0.00 0.00 0.00 0.00 0.00 0.00 0.00 0.00 0.00 0.00 0.00 0.00 0.00
0.00 0.00 0.00 0.00 0.00 0.00 0.00 0.00 0.00 0.00 0.00 0.00 0.00 0.00 0.00 0.00 0.00 0.00 0.00 0.00 0.00 0.00 0.00 0.00 0.00 0.00 0.00 0.00 0.00 0.00 0.00 0.00 0.00 0.00 0.00 0.00 0.00 0.00
0.00 0.00 0.00 0.00 0.00 0.00 0.00 0.00 0.00 0.00 0.00 0.00 0.00 0.00 0.00 0.00 0.00 0.00 0.00 0.00 0.00 0.00 0.00 0.00 0.00 0.00 0.00 0.00 0.00 0.00 0.00 0.00 0.00 0.00 0.00 0.00 0.00 0.00
0.00 0.00 0.00 0.00 0.00 0.00 0.00 0.00 0.00 0.00 0.00 0.00 0.00 0.00 0.00 0.00 0.00 0.00 0.00 0.00 0.00 0.00 0.00 0.00 0.00 0.00 0.00 0.00 0.00 0.00 0.00 0.00 0.00 0.00 0.00 0.00 0.00 0.00
0.00 0.00 0.00 0.00 0.00 0.00 0.00 0.00 0.00 0.00 0.00 0.00 0.00 0.00 0.00 0.00 0.00 0.00 0.00 0.00 0.00 0.00 0.00 0.00 0.00 0.00 0.00 0.00 0.00 0.00 0.00 0.00 0.00 0.00 0.00 0.00 0.00 0.00
0.00 0.00 0.00 0.00 0.00 0.00 0.00 0.00 0.00 0.00 0.00 0.00 0.00 0.00 0.00 0.00 0.00 0.00 0.00 0.00 0.00 0.00 0.00 0.00 0.00 0.00 0.00 0.00 0.00 0.00 0.00 0.00 0.00 0.00 0.00 0.01 0.00 0.00
0.00 0.00 0.00 0.00 0.00 0.00 0.00 0.00 0.00 0.00 0.00 0.00 0.00 0.00 0.00 0.00 0.00 0.00 0.00 0.00 0.00 0.00 0.00 0.00 0.00 0.01 0.01 0.00 0.00 0.00 0.00 0.00 0.00 0.00 0.00 0.00 0.00 0.00
0.00 0.00 0.00 0.00 0.00 0.00 0.00 0.00 0.00 0.00 0.00 0.00 0.00 0.00 0.00 0.00 0.00 0.00 0.00 0.00 0.00 0.00 0.00 0.00 0.00 0.00 0.00 0.00 0.00 0.00 0.00 0.00 0.00 0.00 0.00 0.00 0.00 0.00
0.00 0.00 0.00 0.00 0.00 0.00 0.00 0.00 0.00 0.00 0.00 0.00 0.00 0.00 0.00 0.00 0.00 0.00 0.00 0.00 0.00 0.00 0.00 0.00 0.00 0.00 0.01 0.02 0.01 0.00 0.00 0.00 0.00 0.00 0.01 0.02 0.00 0.00
0.00 0.00 0.00 0.00 0.00 0.00 0.00 0.00 0.00 0.00 0.00 0.00 0.00 0.00 0.00 0.00 0.00 0.00 0.00 0.00 0.00 0.00 0.00 0.00 0.00 0.00 0.00 0.01 0.00 0.00 0.00 0.00 0.00 0.00 0.00 0.01 0.01 0.01
0.03 0.01 0.00 0.00 0.01 0.01 0.02 0.01 0.01 0.00 0.00 0.00 0.01 0.00 0.00 0.00 0.00 0.00 0.00 0.00 0.00 0.00 0.00 0.00 0.00 0.00 0.00 0.00 0.01 0.00 0.00 0.00 0.00 0.00 0.00 0.00 0.00 0.00

GFSNE_prec_precacc24_120.txt.gz
Total_Precipitation_Accumulation
0.03 0.03 0.02 0.02 0.03 0.06 0.08 0.12 0.19 0.07 0.02 0.01 0.00 0.00 0.01 0.02 0.05 0.04 0.06 0.10 0.09 0.06 0.05 0.04 0.03 0.03 0.03 0.03 0.03 0.09 0.09 0.12 0.16 0.11 0.03 0.04 0.08 0.12
0.00 0.00 0.00 0.00 0.00 0.01 0.03 0.04 0.06 0.10 0.09 0.02 0.01 0.01 0.01 0.01 0.02 0.01 0.02 0.06 0.07 0.08 0.07 0.06 0.04 0.03 0.03 0.02 0.01 0.03 0.10 0.17 0.24 0.20 0.08 0.06 0.08 0.07
0.00 0.00 0.00 0.00 0.00 0.01 0.01 0.01 0.02 0.05 0.06 0.03 0.04 0.04 0.02 0.02 0.02 0.02 0.02 0.01 0.03 0.06 0.03 0.02 0.01 0.00 0.00 0.00 0.00 0.00 0.03 0.11 0.21 0.39 0.37 0.22 0.12 0.06
0.00 0.00 0.00 0.01 0.01 0.01 0.00 0.01 0.00 0.01 0.01 0.02 0.02 0.03 0.02 0.02 0.02 0.01 0.01 0.01 0.01 0.04 0.02 0.01 0.01 0.01 0.01 0.00 0.00 0.00 0.01 0.01 0.05 0.13 0.18 0.18 0.12 0.07
0.00 0.00 0.00 0.00 0.00 0.00 0.00 0.00 0.00 0.01 0.02 0.02 0.03 0.03 0.04 0.05 0.04 0.02 0.01 0.02 0.02 0.08 0.03 0.02 0.01 0.01 0.01 0.00 0.01 0.01 0.01 0.00 0.00 0.02 0.07 0.05 0.06 0.11
0.00 0.00 0.00 0.00 0.00 0.01 0.01 0.01 0.01 0.02 0.02 0.02 0.03 0.02 0.02 0.02 0.02 0.01 0.01 0.00 0.01 0.02 0.05 0.04 0.03 0.01 0.01 0.00 0.01 0.00 0.00 0.00 0.00 0.00 0.01 0.01 0.02 0.01
0.00 0.00 0.00 0.00 0.01 0.00 0.00 0.00 0.01 0.01 0.02 0.02 0.03 0.03 0.03 0.03 0.03 0.03 0.03 0.03 0.03 0.02 0.03 0.03 0.02 0.02 0.00 0.00 0.00 0.00 0.00 0.00 0.00 0.00 0.00 0.00 0.00 0.00
0.00 0.00 0.00 0.00 0.00 0.00 0.00 0.00 0.00 0.00 0.00 0.00 0.00 0.01 0.01 0.01 0.01 0.02 0.03 0.02 0.02 0.01 0.01 0.01 0.01 0.00 0.00 0.00 0.00 0.00 0.00 0.00 0.00 0.00 0.00 0.00 0.00 0.00
0.00 0.00 0.00 0.00 0.00 0.00 0.00 0.00 0.00 0.01 0.01 0.00 0.00 0.00 0.00 0.00 0.00 0.00 0.01 0.02 0.02 0.01 0.01 0.00 0.00 0.00 0.00 0.00 0.00 0.00 0.00 0.00 0.00 0.00 0.00 0.00 0.00 0.00
0.00 0.00 0.00 0.00 0.01 0.00 0.00 0.00 0.00 0.00 0.00 0.00 0.00 0.00 0.00 0.00 0.00 0.00 0.00 0.00 0.00 0.00 0.00 0.01 0.00 0.00 0.00 0.00 0.00 0.00 0.00 0.00 0.00 0.00 0.00 0.00 0.00 0.00
0.00 0.00 0.00 0.00 0.02 0.01 0.00 0.00 0.00 0.00 0.00 0.01 0.00 0.00 0.01 0.01 0.00 0.00 0.00 0.00 0.00 0.00 0.00 0.00 0.00 0.00 0.00 0.00 0.00 0.00 0.00 0.00 0.00 0.00 0.00 0.00 0.00 0.00
0.00 0.00 0.02 0.01 0.01 0.01 0.00 0.00 0.00 0.00 0.00 0.00 0.00 0.00 0.00 0.00 0.01 0.00 0.00 0.00 0.00 0.00 0.00 0.00 0.00 0.00 0.00 0.00 0.00 0.00 0.00 0.00 0.00 0.00 0.00 0.00 0.00 0.00
0.00 0.00 0.00 0.02 0.01 0.00 0.00 0.00 0.00 0.00 0.00 0.00 0.00 0.00 0.00 0.00 0.00 0.00 0.00 0.00 0.01 0.01 0.01 0.00 0.00 0.00 0.00 0.00 0.00 0.00 0.00 0.00 0.00 0.00 0.00 0.00 0.00 0.00
0.00 0.00 0.00 0.00 0.00 0.00 0.00 0.00 0.00 0.00 0.00 0.00 0.00 0.00 0.00 0.00 0.00 0.00 0.00 0.00 0.00 0.00 0.00 0.00 0.00 0.00 0.00 0.00 0.00 0.00 0.00 0.00 0.00 0.00 0.00 0.00 0.00 0.00
0.00 0.00 0.00 0.00 0.00 0.00 0.00 0.00 0.00 0.00 0.00 0.00 0.00 0.00 0.00 0.00 0.00 0.00 0.00 0.00 0.00 0.00 0.00 0.00 0.00 0.00 0.00 0.00 0.00 0.00 0.00 0.00 0.00 0.00 0.00 0.00 0.00 0.00
0.00 0.00 0.00 0.00 0.00 0.00 0.00 0.00 0.00 0.00 0.00 0.00 0.00 0.00 0.00 0.00 0.00 0.00 0.00 0.00 0.00 0.00 0.00 0.00 0.00 0.00 0.00 0.00 0.00 0.00 0.00 0.00 0.00 0.00 0.00 0.00 0.00 0.00
0.00 0.00 0.00 0.00 0.00 0.00 0.00 0.00 0.00 0.00 0.00 0.00 0.00 0.00 0.00 0.00 0.00 0.00 0.00 0.00 0.00 0.00 0.00 0.00 0.00 0.00 0.00 0.00 0.00 0.00 0.00 0.00 0.00 0.00 0.00 0.00 0.00 0.00
0.00 0.00 0.00 0.00 0.00 0.00 0.00 0.00 0.00 0.00 0.00 0.00 0.00 0.00 0.00 0.00 0.00 0.00 0.00 0.00 0.00 0.00 0.00 0.00 0.00 0.00 0.00 0.00 0.00 0.00 0.00 0.00 0.00 0.00 0.00 0.01 0.00 0.00
0.04 0.01 0.00 0.00 0.00 0.00 0.00 0.00 0.00 0.00 0.00 0.00 0.00 0.00 0.00 0.00 0.00 0.00 0.00 0.00 0.00 0.00 0.00 0.00 0.00 0.00 0.00 0.00 0.00 0.00 0.00 0.00 0.00 0.00 0.00 0.00 0.00 0.00
0.04 0.02 0.00 0.00 0.00 0.00 0.00 0.00 0.00 0.00 0.00 0.00 0.00 0.00 0.00 0.00 0.00 0.00 0.00 0.00 0.00 0.00 0.00 0.00 0.00 0.00 0.00 0.00 0.00 0.00 0.00 0.00 0.00 0.00 0.00 0.00 0.00 0.00
0.03 0.01 0.00 0.00 0.00 0.00 0.00 0.00 0.00 0.00 0.00 0.00 0.00 0.00 0.00 0.00 0.00 0.00 0.00 0.00 0.00 0.00 0.00 0.00 0.00 0.00 0.00 0.01 0.01 0.00 0.00 0.00 0.00 0.00 0.00 0.01 0.00 0.00
0.03 0.04 0.02 0.01 0.02 0.02 0.01 0.00 0.00 0.01 0.00 0.00 0.00 0.00 0.00 0.00 0.00 0.00 0.00 0.00 0.00 0.00 0.00 0.00 0.00 0.00 0.00 0.01 0.00 0.00 0.00 0.00 0.00 0.00 0.00 0.00 0.00 0.00
0.06 0.06 0.05 0.04 0.04 0.04 0.04 0.03 0.03 0.01 0.01 0.01 0.02 0.01 0.01 0.00 0.00 0.00 0.00 0.00 0.00 0.00 0.00 0.00 0.00 0.00 0.00 0.00 0.00 0.00 0.00 0.00 0.00 0.00 0.00 0.00 0.00 0.00

GFSNE_prec_precacc24_123.txt.gz
Total_Precipitation_Accumulation
0.01 0.02 0.01 0.01 0.02 0.05 0.07 0.12 0.18 0.07 0.02 0.01 0.00 0.00 0.01 0.02 0.05 0.04 0.06 0.10 0.08 0.06 0.05 0.06 0.05 0.04 0.04 0.05 0.05 0.09 0.09 0.12 0.16 0.11 0.03 0.05 0.16 0.17
0.00 0.00 0.00 0.00 0.00 0.01 0.02 0.03 0.05 0.09 0.08 0.02 0.01 0.01 0.01 0.01 0.02 0.01 0.02 0.06 0.07 0.08 0.08 0.07 0.05 0.04 0.03 0.02 0.01 0.03 0.10 0.17 0.24 0.21 0.09 0.08 0.13 0.15
0.00 0.00 0.00 0.00 0.00 0.00 0.01 0.01 0.02 0.05 0.06 0.03 0.04 0.04 0.02 0.02 0.02 0.02 0.02 0.01 0.03 0.06 0.04 0.02 0.01 0.00 0.00 0.00 0.00 0.00 0.03 0.11 0.21 0.52 0.69 0.37 0.30 0.22
0.01 0.01 0.00 0.00 0.00 0.00 0.00 0.01 0.00 0.01 0.01 0.02 0.02 0.03 0.02 0.02 0.02 0.01 0.01 0.01 0.01 0.05 0.02 0.01 0.01 0.01 0.01 0.00 0.00 0.00 0.01 0.01 0.05 0.18 0.60 0.47 0.26 0.17
0.04 0.02 0.00 0.00 0.00 0.00 0.00 0.00 0.00 0.01 0.02 0.02 0.03 0.03 0.04 0.05 0.04 0.02 0.01 0.02 0.02 0.08 0.03 0.02 0.02 0.01 0.01 0.00 0.01 0.01 0.01 0.00 0.00 0.02 0.12 0.21 0.24 0.34
0.02 0.02 0.00 0.00 0.00 0.01 0.01 0.01 0.01 0.02 0.02 0.02 0.03 0.02 0.02 0.02 0.02 0.01 0.01 0.00 0.01 0.02 0.06 0.05 0.04 0.01 0.01 0.01 0.01 0.00 0.00 0.00 0.00 0.01 0.01 0.03 0.06 0.06
0.01 0.00 0.00 0.00 0.00 0.00 0.00 0.00 0.01 0.01 0.02 0.02 0.03 0.03 0.03 0.03 0.03 0.03 0.03 0.03 0.03 0.02 0.03 0.03 0.02 0.02 0.01 0.01 0.00 0.00 0.00 0.00 0.00 0.00 0.01 0.01 0.01 0.03
0.00 0.00 0.00 0.00 0.00 0.00 0.00 0.00 0.00 0.00 0.00 0.00 0.00 0.01 0.01 0.01 0.01 0.02 0.03 0.02 0.02 0.01 0.01 0.01 0.01 0.01 0.01 0.00 0.01 0.00 0.00 0.00 0.00 0.00 0.02 0.01 0.01 0.00
0.00 0.00 0.00 0.00 0.00 0.00 0.00 0.00 0.00 0.01 0.01 0.00 0.00 0.00 0.00 0.00 0.00 0.00 0.01 0.02 0.02 0.01 0.01 0.01 0.00 0.00 0.00 0.00 0.00 0.00 0.00 0.00 0.00 0.00 0.01 0.02 0.01 0.00
0.00 0.00 0.00 0.00 0.01 0.00 0.00 0.00 0.00 0.00 0.00 0.00 0.00 0.00 0.00 0.00 0.00 0.00 0.00 0.00 0.00 0.00 0.00 0.01 0.00 0.00 0.00 0.00 0.00 0.00 0.00 0.00 0.00 0.00 0.00 0.00 0.00 0.00
0.00 0.00 0.00 0.00 0.02 0.01 0.00 0.00 0.00 0.00 0.00 0.01 0.00 0.00 0.01 0.01 0.00 0.00 0.00 0.00 0.00 0.00 0.00 0.00 0.00 0.00 0.00 0.00 0.00 0.00 0.00 0.00 0.00 0.00 0.00 0.00 0.00 0.00
0.00 0.00 0.02 0.01 0.01 0.01 0.00 0.00 0.00 0.00 0.00 0.00 0.00 0.00 0.00 0.00 0.01 0.00 0.00 0.00 0.00 0.00 0.00 0.00 0.00 0.00 0.00 0.00 0.00 0.00 0.00 0.00 0.00 0.00 0.00 0.00 0.00 0.00
0.00 0.00 0.00 0.02 0.01 0.00 0.00 0.00 0.00 0.00 0.00 0.00 0.00 0.00 0.00 0.00 0.00 0.00 0.00 0.00 0.01 0.01 0.01 0.01 0.00 0.00 0.00 0.00 0.00 0.00 0.00 0.00 0.00 0.00 0.00 0.00 0.00 0.00
0.00 0.00 0.00 0.00 0.00 0.00 0.00 0.00 0.00 0.00 0.00 0.00 0.00 0.00 0.00 0.00 0.00 0.00 0.00 0.00 0.00 0.00 0.00 0.00 0.00 0.00 0.00 0.00 0.00 0.00 0.00 0.00 0.00 0.00 0.00 0.00 0.00 0.00
0.00 0.00 0.00 0.00 0.00 0.00 0.00 0.00 0.00 0.00 0.00 0.00 0.00 0.00 0.00 0.00 0.00 0.00 0.00 0.00 0.00 0.00 0.00 0.00 0.00 0.00 0.00 0.00 0.00 0.00 0.00 0.00 0.00 0.00 0.00 0.00 0.00 0.00
0.00 0.00 0.00 0.00 0.00 0.00 0.00 0.00 0.00 0.00 0.00 0.00 0.00 0.00 0.00 0.00 0.00 0.00 0.00 0.00 0.00 0.00 0.00 0.00 0.00 0.00 0.00 0.00 0.00 0.00 0.00 0.00 0.00 0.00 0.00 0.00 0.00 0.00
0.00 0.00 0.00 0.00 0.00 0.00 0.00 0.00 0.00 0.00 0.00 0.00 0.00 0.00 0.00 0.00 0.00 0.00 0.00 0.00 0.00 0.00 0.00 0.00 0.00 0.00 0.00 0.00 0.00 0.00 0.00 0.00 0.00 0.00 0.00 0.00 0.00 0.00
0.06 0.02 0.01 0.01 0.01 0.01 0.00 0.00 0.00 0.00 0.00 0.00 0.00 0.00 0.00 0.00 0.00 0.00 0.00 0.00 0.00 0.00 0.00 0.00 0.00 0.00 0.00 0.00 0.00 0.00 0.00 0.00 0.00 0.00 0.00 0.01 0.00 0.00
0.26 0.14 0.11 0.09 0.08 0.06 0.03 0.00 0.00 0.00 0.00 0.00 0.00 0.00 0.00 0.00 0.00 0.00 0.00 0.00 0.00 0.00 0.00 0.00 0.00 0.00 0.00 0.00 0.00 0.00 0.00 0.00 0.00 0.00 0.00 0.00 0.00 0.00
0.22 0.19 0.20 0.19 0.15 0.09 0.02 0.00 0.00 0.00 0.00 0.00 0.00 0.00 0.00 0.00 0.00 0.00 0.00 0.00 0.00 0.00 0.00 0.00 0.00 0.00 0.00 0.00 0.00 0.00 0.00 0.00 0.00 0.00 0.00 0.00 0.00 0.00
0.19 0.19 0.17 0.17 0.14 0.08 0.02 0.00 0.00 0.00 0.00 0.00 0.00 0.00 0.00 0.00 0.00 0.00 0.00 0.00 0.00 0.00 0.00 0.00 0.00 0.00 0.00 0.00 0.00 0.00 0.00 0.00 0.00 0.00 0.00 0.00 0.00 0.00
0.11 0.16 0.16 0.14 0.12 0.10 0.06 0.03 0.01 0.01 0.00 0.00 0.00 0.00 0.00 0.00 0.00 0.00 0.00 0.00 0.00 0.00 0.00 0.00 0.00 0.00 0.00 0.01 0.00 0.00 0.00 0.00 0.00 0.00 0.00 0.00 0.00 0.00
0.12 0.13 0.15 0.15 0.13 0.11 0.09 0.08 0.05 0.02 0.02 0.02 0.02 0.02 0.03 0.01 0.00 0.00 0.00 0.00 0.00 0.00 0.00 0.00 0.00 0.00 0.00 0.00 0.00 0.00 0.00 0.00 0.00 0.00 0.00 0.00 0.00 0.00

GFSNE_prec_precacc24_126.txt.gz
Total_Precipitation_Accumulation
0.02 0.00 0.00 0.00 0.01 0.04 0.06 0.10 0.15 0.05 0.01 0.00 0.00 0.00 0.01 0.02 0.05 0.04 0.06 0.10 0.09 0.06 0.05 0.06 0.06 0.05 0.04 0.05 0.05 0.09 0.09 0.12 0.16 0.11 0.04 0.05 0.16 0.19
0.01 0.00 0.00 0.00 0.00 0.00 0.01 0.02 0.04 0.06 0.05 0.00 0.01 0.01 0.01 0.01 0.02 0.01 0.02 0.06 0.08 0.08 0.08 0.07 0.06 0.05 0.04 0.02 0.01 0.03 0.10 0.17 0.24 0.21 0.09 0.09 0.15 0.17
0.01 0.00 0.00 0.00 0.00 0.00 0.00 0.00 0.01 0.04 0.05 0.03 0.04 0.04 0.02 0.02 0.02 0.02 0.02 0.01 0.03 0.06 0.04 0.02 0.01 0.01 0.00 0.00 0.00 0.00 0.03 0.11 0.21 0.52 0.74 0.46 0.36 0.29
0.01 0.02 0.01 0.00 0.00 0.00 0.00 0.00 0.00 0.01 0.01 0.02 0.02 0.03 0.02 0.02 0.02 0.01 0.01 0.01 0.01 0.05 0.03 0.02 0.01 0.01 0.01 0.00 0.00 0.00 0.01 0.01 0.05 0.18 0.65 0.64 0.42 0.26
0.04 0.03 0.02 0.01 0.00 0.00 0.00 0.00 0.00 0.01 0.02 0.02 0.03 0.03 0.04 0.05 0.04 0.02 0.01 0.02 0.02 0.08 0.03 0.02 0.02 0.01 0.01 0.00 0.01 0.01 0.01 0.00 0.00 0.02 0.13 0.35 0.45 0.47
0.04 0.04 0.03 0.02 0.01 0.01 0.00 0.01 0.01 0.02 0.02 0.02 0.03 0.02 0.02 0.02 0.02 0.01 0.01 0.00 0.01 0.02 0.06 0.05 0.04 0.02 0.01 0.01 0.01 0.00 0.00 0.00 0.00 0.01 0.02 0.03 0.08 0.09
0.09 0.03 0.02 0.02 0.02 0.01 0.00 0.00 0.01 0.01 0.02 0.02 0.03 0.03 0.03 0.03 0.03 0.03 0.03 0.03 0.03 0.02 0.03 0.03 0.02 0.02 0.02 0.01 0.00 0.00 0.00 0.00 0.00 0.01 0.02 0.01 0.01 0.04
0.18 0.13 0.05 0.02 0.01 0.00 0.00 0.00 0.00 0.00 0.00 0.00 0.00 0.01 0.01 0.01 0.01 0.02 0.03 0.02 0.02 0.01 0.01 0.01 0.01 0.01 0.01 0.01 0.04 0.01 0.00 0.00 0.00 0.00 0.02 0.02 0.01 0.00
0.09 0.07 0.06 0.01 0.00 0.00 0.00 0.00 0.00 0.01 0.01 0.00 0.00 0.00 0.00 0.00 0.00 0.00 0.01 0.02 0.02 0.01 0.01 0.01 0.00 0.00 0.00 0.01 0.02 0.00 0.00 0.00 0.00 0.00 0.01 0.02 0.02 0.01
0.15 0.10 0.02 0.01 0.01 0.00 0.00 0.00 0.00 0.00 0.00 0.00 0.00 0.00 0.00 0.00 0.00 0.00 0.00 0.00 0.00 0.00 0.00 0.01 0.00 0.00 0.00 0.00 0.01 0.01 0.00 0.00 0.00 0.00 0.00 0.00 0.01 0.01
0.03 0.01 0.00 0.00 0.02 0.01 0.00 0.00 0.00 0.00 0.00 0.01 0.00 0.00 0.01 0.01 0.00 0.00 0.00 0.00 0.00 0.00 0.00 0.00 0.00 0.00 0.00 0.00 0.00 0.01 0.00 0.00 0.00 0.00 0.00 0.00 0.00 0.00
0.03 0.02 0.02 0.01 0.01 0.01 0.00 0.00 0.00 0.00 0.00 0.00 0.00 0.00 0.00 0.00 0.01 0.00 0.00 0.00 0.00 0.00 0.00 0.00 0.00 0.00 0.00 0.00 0.00 0.00 0.00 0.00 0.00 0.00 0.00 0.00 0.00 0.00
0.01 0.01 0.02 0.03 0.01 0.00 0.00 0.00 0.00 0.00 0.00 0.00 0.00 0.00 0.00 0.00 0.00 0.00 0.00 0.00 0.01 0.01 0.01 0.01 0.00 0.00 0.00 0.00 0.00 0.00 0.00 0.00 0.00 0.00 0.00 0.00 0.00 0.00
0.00 0.00 0.00 0.00 0.00 0.00 0.00 0.00 0.00 0.00 0.00 0.00 0.00 0.00 0.00 0.00 0.00 0.00 0.00 0.00 0.00 0.00 0.00 0.00 0.00 0.00 0.00 0.00 0.00 0.00 0.00 0.00 0.00 0.00 0.00 0.00 0.00 0.01
0.04 0.03 0.01 0.00 0.00 0.00 0.00 0.00 0.00 0.00 0.00 0.00 0.00 0.00 0.00 0.00 0.00 0.00 0.00 0.00 0.00 0.00 0.00 0.00 0.00 0.00 0.00 0.00 0.00 0.00 0.00 0.00 0.00 0.00 0.00 0.00 0.00 0.00
0.00 0.00 0.00 0.00 0.00 0.00 0.00 0.00 0.00 0.00 0.00 0.00 0.00 0.00 0.00 0.00 0.00 0.00 0.00 0.00 0.00 0.00 0.00 0.00 0.00 0.00 0.00 0.00 0.00 0.00 0.00 0.00 0.00 0.00 0.00 0.00 0.00 0.00
0.02 0.01 0.00 0.00 0.00 0.00 0.00 0.00 0.00 0.00 0.00 0.00 0.00 0.00 0.00 0.00 0.00 0.00 0.00 0.00 0.00 0.00 0.00 0.00 0.00 0.00 0.00 0.00 0.00 0.00 0.00 0.00 0.00 0.00 0.00 0.00 0.00 0.00
0.23 0.12 0.08 0.05 0.03 0.03 0.04 0.04 0.03 0.01 0.00 0.00 0.00 0.00 0.00 0.00 0.00 0.00 0.00 0.00 0.00 0.00 0.00 0.00 0.00 0.00 0.00 0.00 0.00 0.00 0.00 0.00 0.00 0.00 0.00 0.00 0.00 0.00
0.41 0.28 0.28 0.27 0.25 0.26 0.26 0.23 0.17 0.11 0.06 0.01 0.00 0.00 0.00 0.00 0.00 0.00 0.00 0.00 0.00 0.00 0.00 0.00 0.00 0.00 0.00 0.00 0.00 0.00 0.00 0.00 0.00 0.00 0.00 0.00 0.00 0.00
0.30 0.25 0.29 0.33 0.36 0.37 0.33 0.27 0.19 0.14 0.07 0.02 0.01 0.00 0.00 0.00 0.00 0.00 0.00 0.00 0.00 0.00 0.00 0.00 0.00 0.00 0.00 0.00 0.00 0.00 0.00 0.00 0.00 0.00 0.00 0.00 0.00 0.00
0.24 0.27 0.26 0.28 0.30 0.28 0.23 0.19 0.15 0.11 0.06 0.03 0.01 0.01 0.00 0.00 0.00 0.00 0.00 0.00 0.00 0.00 0.00 0.00 0.00 0.00 0.00 0.01 0.00 0.00 0.00 0.00 0.00 0.00 0.00 0.00 0.00 0.00
0.12 0.18 0.21 0.24 0.26 0.26 0.22 0.18 0.15 0.13 0.09 0.06 0.04 0.03 0.02 0.02 0.01 0.00 0.00 0.00 0.00 0.00 0.00 0.00 0.00 0.00 0.00 0.01 0.00 0.00 0.00 0.00 0.00 0.00 0.00 0.00 0.00 0.00
0.14 0.17 0.19 0.23 0.25 0.26 0.25 0.23 0.20 0.15 0.14 0.12 0.09 0.06 0.06 0.04 0.02 0.02 0.01 0.01 0.00 0.00 0.00 0.00 0.00 0.00 0.00 0.00 0.00 0.00 0.00 0.00 0.00 0.00 0.00 0.00 0.00 0.00

GFSNE_prec_precacc24_129.txt.gz
Total_Precipitation_Accumulation
0.03 0.04 0.04 0.03 0.01 0.01 0.03 0.06 0.10 0.04 0.01 0.00 0.00 0.00 0.01 0.02 0.05 0.04 0.06 0.10 0.08 0.06 0.05 0.06 0.06 0.05 0.04 0.05 0.05 0.08 0.08 0.12 0.16 0.11 0.04 0.05 0.16 0.19
0.04 0.06 0.04 0.00 0.00 0.00 0.00 0.01 0.02 0.04 0.04 0.00 0.00 0.01 0.01 0.00 0.02 0.01 0.02 0.06 0.07 0.08 0.08 0.08 0.06 0.05 0.04 0.02 0.01 0.03 0.10 0.17 0.24 0.21 0.09 0.09 0.16 0.18
0.04 0.04 0.03 0.00 0.00 0.00 0.00 0.00 0.01 0.03 0.05 0.02 0.03 0.03 0.02 0.02 0.02 0.02 0.02 0.01 0.03 0.06 0.05 0.03 0.01 0.01 0.00 0.00 0.00 0.00 0.03 0.11 0.21 0.52 0.74 0.46 0.40 0.33
0.03 0.04 0.02 0.00 0.00 0.00 0.00 0.00 0.00 0.00 0.01 0.01 0.01 0.02 0.02 0.01 0.02 0.01 0.01 0.01 0.01 0.05 0.03 0.02 0.01 0.01 0.01 0.00 0.00 0.00 0.01 0.01 0.05 0.18 0.65 0.65 0.50 0.31
0.09 0.06 0.03 0.01 0.01 0.00 0.00 0.00 0.00 0.01 0.01 0.01 0.01 0.01 0.03 0.04 0.04 0.02 0.01 0.02 0.02 0.08 0.03 0.02 0.02 0.01 0.01 0.00 0.01 0.01 0.01 0.00 0.00 0.03 0.13 0.36 0.61 0.59
0.09 0.08 0.07 0.04 0.02 0.01 0.00 0.00 0.00 0.01 0.01 0.01 0.02 0.01 0.01 0.02 0.02 0.01 0.01 0.00 0.01 0.02 0.06 0.05 0.04 0.02 0.02 0.01 0.01 0.00 0.00 0.00 0.00 0.02 0.02 0.03 0.10 0.15
0.14 0.08 0.04 0.03 0.04 0.02 0.01 0.00 0.00 0.01 0.01 0.02 0.03 0.03 0.03 0.03 0.03 0.03 0.03 0.03 0.03 0.02 0.03 0.03 0.02 0.02 0.02 0.02 0.01 0.00 0.00 0.00 0.00 0.01 0.02 0.01 0.01 0.04
0.25 0.19 0.11 0.08 0.07 0.09 0.10 0.07 0.03 0.01 0.00 0.00 0.00 0.01 0.01 0.01 0.01 0.02 0.03 0.02 0.02 0.01 0.01 0.01 0.01 0.01 0.01 0.01 0.04 0.01 0.00 0.00 0.00 0.00 0.02 0.02 0.01 0.00
0.37 0.35 0.39 0.40 0.35 0.24 0.17 0.10 0.04 0.02 0.01 0.00 0.00 0.00 0.00 0.00 0.00 0.00 0.01 0.02 0.02 0.01 0.01 0.01 0.00 0.00 0.00 0.01 0.03 0.01 0.00 0.00 0.00 0.00 0.01 0.02 0.03 0.01
0.72 0.66 0.55 0.45 0.37 0.27 0.15 0.04 0.01 0.00 0.00 0.00 0.00 0.00 0.00 0.00 0.00 0.00 0.00 0.00 0.00 0.00 0.00 0.01 0.00 0.00 0.00 0.00 0.02 0.01 0.00 0.00 0.00 0.00 0.00 0.00 0.01 0.01
0.37 0.40 0.40 0.35 0.30 0.16 0.07 0.03 0.01 0.00 0.00 0.01 0.00 0.00 0.01 0.01 0.00 0.00 0.00 0.00 0.00 0.00 0.00 0.00 0.00 0.00 0.00 0.00 0.00 0.01 0.00 0.00 0.00 0.00 0.00 0.00 0.00 0.00
0.18 0.16 0.15 0.13 0.10 0.06 0.03 0.02 0.02 0.01 0.00 0.00 0.00 0.00 0.00 0.00 0.01 0.00 0.00 0.00 0.00 0.00 0.00 0.00 0.00 0.00 0.00 0.00 0.00 0.00 0.00 0.00 0.00 0.00 0.00 0.00 0.00 0.00
0.16 0.18 0.20 0.21 0.17 0.14 0.10 0.07 0.05 0.03 0.01 0.00 0.00 0.00 0.00 0.00 0.00 0.00 0.00 0.00 0.01 0.01 0.01 0.01 0.00 0.00 0.00 0.00 0.00 0.00 0.00 0.00 0.00 0.00 0.00 0.00 0.01 0.00
0.06 0.05 0.04 0.05 0.04 0.05 0.05 0.02 0.01 0.00 0.00 0.00 0.00 0.00 0.00 0.00 0.00 0.00 0.00 0.00 0.00 0.00 0.00 0.00 0.00 0.00 0.00 0.00 0.00 0.00 0.00 0.00 0.00 0.00 0.00 0.00 0.01 0.01
0.10 0.12 0.12 0.11 0.11 0.10 0.08 0.07 0.05 0.03 0.01 0.00 0.00 0.00 0.00 0.00 0.00 0.00 0.00 0.00 0.00 0.00 0.00 0.00 0.00 0.00 0.00 0.00 0.00 0.00 0.00 0.00 0.00 0.00 0.00 0.00 0.00 0.00
0.02 0.05 0.06 0.07 0.07 0.06 0.06 0.05 0.03 0.02 0.01 0.00 0.00 0.00 0.00 0.00 0.00 0.00 0.00 0.00 0.00 0.00 0.00 0.00 0.00 0.00 0.00 0.00 0.00 0.00 0.00 0.00 0.00 0.00 0.00 0.00 0.00 0.00
0.03 0.01 0.01 0.02 0.02 0.03 0.03 0.04 0.05 0.04 0.03 0.02 0.02 0.00 0.00 0.00 0.00 0.00 0.00 0.00 0.00 0.00 0.00 0.00 0.00 0.00 0.00 0.00 0.00 0.00 0.00 0.00 0.00 0.00 0.00 0.00 0.00 0.00
0.25 0.13 0.11 0.10 0.10 0.11 0.16 0.19 0.21 0.17 0.12 0.08 0.06 0.02 0.01 0.00 0.00 0.00 0.00 0.00 0.00 0.00 0.00 0.00 0.00 0.00 0.00 0.00 0.00 0.00 0.00 0.00 0.00 0.00 0.00 0.00 0.00 0.00
0.42 0.29 0.31 0.33 0.34 0.37 0.38 0.38 0.35 0.28 0.23 0.19 0.11 0.06 0.04 0.02 0.00 0.00 0.00 0.00 0.00 0.00 0.00 0.00 0.00 0.00 0.00 0.00 0.00 0.00 0.00 0.00 0.00 0.00 0.00 0.00 0.00 0.00
0.31 0.26 0.30 0.35 0.39 0.42 0.40 0.36 0.30 0.27 0.24 0.17 0.12 0.09 0.07 0.04 0.02 0.00 0.00 0.00 0.00 0.00 0.00 0.00 0.00 0.00 0.00 0.00 0.00 0.00 0.00 0.00 0.00 0.00 0.00 0.00 0.00 0.00
0.25 0.28 0.27 0.31 0.33 0.31 0.27 0.23 0.21 0.19 0.15 0.13 0.11 0.10 0.08 0.05 0.03 0.01 0.00 0.00 0.00 0.00 0.00 0.00 0.00 0.00 0.00 0.01 0.00 0.00 0.00 0.00 0.00 0.00 0.00 0.00 0.00 0.00
0.12 0.18 0.21 0.24 0.27 0.29 0.28 0.25 0.22 0.20 0.17 0.13 0.10 0.10 0.09 0.07 0.04 0.04 0.02 0.01 0.00 0.00 0.00 0.00 0.00 0.00 0.01 0.01 0.00 0.00 0.00 0.00 0.00 0.00 0.00 0.00 0.00 0.00
0.15 0.17 0.20 0.24 0.25 0.28 0.30 0.30 0.28 0.23 0.22 0.20 0.17 0.14 0.13 0.09 0.05 0.06 0.05 0.04 0.01 0.00 0.00 0.00 0.00 0.00 0.01 0.00 0.00 0.00 0.00 0.00 0.00 0.00 0.00 0.00 0.00 0.00

GFSNE_prec_precacc24_132.txt.gz
Total_Precipitation_Accumulation
0.03 0.04 0.05 0.03 0.01 0.01 0.01 0.02 0.05 0.02 0.00 0.00 0.00 0.00 0.01 0.02 0.05 0.04 0.06 0.10 0.08 0.06 0.06 0.06 0.06 0.05 0.05 0.05 0.04 0.04 0.04 0.08 0.15 0.11 0.04 0.05 0.16 0.19
0.06 0.07 0.07 0.05 0.04 0.04 0.03 0.01 0.01 0.01 0.01 0.00 0.00 0.00 0.00 0.00 0.01 0.01 0.02 0.06 0.07 0.08 0.08 0.08 0.06 0.05 0.04 0.02 0.01 0.03 0.09 0.17 0.24 0.21 0.09 0.09 0.16 0.18
0.06 0.04 0.04 0.06 0.05 0.04 0.01 0.00 0.00 0.01 0.02 0.00 0.01 0.01 0.01 0.01 0.02 0.02 0.02 0.01 0.03 0.06 0.04 0.03 0.02 0.01 0.00 0.00 0.00 0.00 0.03 0.11 0.21 0.52 0.74 0.46 0.40 0.34
0.05 0.05 0.06 0.06 0.04 0.03 0.01 0.00 0.00 0.01 0.00 0.00 0.00 0.00 0.00 0.00 0.00 0.01 0.00 0.01 0.01 0.05 0.02 0.02 0.01 0.01 0.01 0.00 0.00 0.00 0.01 0.01 0.05 0.18 0.65 0.65 0.51 0.33
0.16 0.12 0.12 0.10 0.07 0.05 0.06 0.06 0.04 0.02 0.01 0.01 0.01 0.01 0.01 0.02 0.02 0.01 0.01 0.02 0.02 0.08 0.03 0.02 0.02 0.01 0.01 0.01 0.01 0.01 0.01 0.00 0.00 0.03 0.13 0.37 0.63 0.62
0.14 0.13 0.14 0.12 0.10 0.10 0.08 0.06 0.03 0.02 0.01 0.00 0.01 0.01 0.01 0.01 0.01 0.01 0.01 0.00 0.01 0.02 0.06 0.05 0.04 0.02 0.02 0.01 0.01 0.00 0.00 0.00 0.00 0.02 0.02 0.03 0.10 0.16
0.17 0.11 0.09 0.08 0.08 0.06 0.05 0.03 0.01 0.01 0.01 0.01 0.03 0.03 0.03 0.03 0.02 0.02 0.03 0.03 0.03 0.02 0.03 0.03 0.02 0.02 0.02 0.02 0.01 0.00 0.00 0.00 0.00 0.02 0.02 0.01 0.01 0.04
0.28 0.22 0.14 0.12 0.13 0.15 0.16 0.14 0.09 0.06 0.04 0.03 0.02 0.01 0.00 0.01 0.01 0.02 0.03 0.02 0.02 0.01 0.01 0.01 0.01 0.01 0.01 0.01 0.05 0.01 0.00 0.00 0.00 0.00 0.02 0.02 0.01 0.00
0.39 0.38 0.41 0.44 0.44 0.40 0.37 0.35 0.32 0.29 0.19 0.11 0.06 0.01 0.00 0.00 0.00 0.00 0.01 0.02 0.02 0.01 0.01 0.01 0.00 0.00 0.00 0.01 0.03 0.01 0.00 0.00 0.00 0.00 0.01 0.02 0.03 0.01
0.93 0.86 0.75 0.64 0.63 0.65 0.60 0.56 0.50 0.44 0.31 0.19 0.10 0.04 0.02 0.00 0.00 0.00 0.00 0.00 0.00 0.00 0.00 0.01 0.00 0.00 0.00 0.00 0.02 0.01 0.00 0.00 0.00 0.00 0.00 0.00 0.01 0.01
0.58 0.62 0.69 0.75 0.79 0.72 0.61 0.54 0.41 0.26 0.19 0.15 0.09 0.06 0.04 0.03 0.02 0.00 0.00 0.00 0.00 0.00 0.00 0.00 0.00 0.00 0.00 0.00 0.00 0.01 0.00 0.00 0.00 0.00 0.00 0.00 0.00 0.00
0.37 0.33 0.35 0.32 0.35 0.35 0.31 0.27 0.20 0.16 0.16 0.13 0.10 0.06 0.04 0.04 0.04 0.01 0.00 0.00 0.00 0.00 0.00 0.00 0.00 0.00 0.00 0.00 0.00 0.00 0.00 0.00 0.00 0.00 0.00 0.00 0.00 0.00
0.24 0.32 0.38 0.42 0.37 0.37 0.35 0.30 0.27 0.27 0.23 0.17 0.15 0.12 0.09 0.05 0.02 0.00 0.00 0.00 0.01 0.01 0.01 0.01 0.00 0.00 0.00 0.00 0.00 0.00 0.00 0.00 0.00 0.00 0.00 0.00 0.01 0.00
0.08 0.10 0.13 0.16 0.17 0.20 0.22 0.23 0.22 0.18 0.16 0.13 0.11 0.08 0.05 0.02 0.01 0.00 0.00 0.00 0.00 0.00 0.00 0.00 0.00 0.00 0.00 0.00 0.00 0.00 0.00 0.00 0.00 0.00 0.00 0.00 0.01 0.01
0.11 0.13 0.13 0.13 0.15 0.17 0.20 0.22 0.22 0.20 0.21 0.19 0.16 0.14 0.10 0.05 0.02 0.01 0.00 0.00 0.00 0.00 0.00 0.00 0.00 0.00 0.00 0.00 0.00 0.00 0.00 0.00 0.00 0.00 0.00 0.00 0.00 0.00
0.02 0.05 0.07 0.08 0.09 0.09 0.12 0.13 0.13 0.11 0.12 0.10 0.09 0.08 0.05 0.02 0.01 0.00 0.00 0.00 0.00 0.00 0.00 0.00 0.00 0.00 0.00 0.00 0.00 0.00 0.00 0.00 0.00 0.00 0.00 0.00 0.00 0.00
0.03 0.01 0.01 0.02 0.03 0.05 0.08 0.13 0.16 0.17 0.16 0.14 0.16 0.14 0.09 0.05 0.02 0.01 0.00 0.00 0.00 0.00 0.00 0.00 0.00 0.00 0.00 0.00 0.00 0.00 0.00 0.00 0.00 0.00 0.00 0.00 0.00 0.00
0.25 0.13 0.11 0.10 0.10 0.13 0.18 0.24 0.30 0.30 0.24 0.22 0.23 0.19 0.13 0.08 0.06 0.04 0.01 0.00 0.00 0.00 0.00 0.00 0.00 0.00 0.00 0.00 0.00 0.00 0.00 0.00 0.00 0.00 0.00 0.00 0.00 0.00
0.41 0.29 0.31 0.34 0.36 0.38 0.39 0.39 0.37 0.30 0.29 0.30 0.23 0.19 0.16 0.15 0.12 0.07 0.04 0.03 0.01 0.00 0.00 0.00 0.00 0.00 0.00 0.00 0.00 0.00 0.00 0.00 0.00 0.00 0.00 0.00 0.00 0.00
0.31 0.27 0.30 0.36 0.40 0.43 0.42 0.38 0.32 0.30 0.27 0.21 0.20 0.18 0.19 0.18 0.15 0.10 0.08 0.06 0.04 0.01 0.00 0.00 0.00 0.00 0.00 0.00 0.00 0.00 0.00 0.00 0.00 0.00 0.00 0.00 0.00 0.00
0.25 0.29 0.27 0.31 0.33 0.33 0.29 0.26 0.24 0.22 0.18 0.16 0.15 0.16 0.17 0.19 0.16 0.13 0.12 0.09 0.06 0.03 0.00 0.00 0.00 0.00 0.00 0.01 0.00 0.00 0.00 0.00 0.00 0.00 0.00 0.00 0.00 0.00
0.13 0.19 0.22 0.25 0.28 0.30 0.28 0.26 0.24 0.23 0.20 0.17 0.14 0.16 0.17 0.18 0.15 0.13 0.13 0.10 0.07 0.04 0.03 0.01 0.00 0.00 0.01 0.01 0.00 0.00 0.00 0.00 0.00 0.00 0.00 0.00 0.00 0.00
0.15 0.17 0.20 0.23 0.25 0.28 0.30 0.31 0.30 0.25 0.25 0.26 0.24 0.21 0.23 0.20 0.16 0.16 0.13 0.11 0.08 0.07 0.07 0.03 0.00 0.01 0.01 0.01 0.00 0.00 0.00 0.00 0.00 0.00 0.00 0.00 0.00 0.00

GFSNE_prec_precacc24_135.txt.gz
Total_Precipitation_Accumulation
0.04 0.05 0.05 0.03 0.01 0.01 0.01 0.01 0.02 0.00 0.00 0.00 0.00 0.00 0.00 0.00 0.01 0.02 0.04 0.07 0.08 0.06 0.06 0.06 0.06 0.05 0.05 0.05 0.03 0.01 0.01 0.02 0.07 0.07 0.03 0.05 0.16 0.19
0.06 0.09 0.09 0.06 0.04 0.05 0.06 0.04 0.03 0.04 0.01 0.00 0.00 0.00 0.00 0.00 0.00 0.00 0.00 0.02 0.05 0.08 0.08 0.09 0.06 0.05 0.04 0.02 0.01 0.01 0.06 0.11 0.19 0.19 0.09 0.09 0.16 0.18
0.07 0.06 0.05 0.09 0.07 0.07 0.06 0.06 0.06 0.07 0.05 0.02 0.01 0.00 0.00 0.00 0.00 0.00 0.01 0.01 0.02 0.06 0.04 0.03 0.02 0.01 0.00 0.00 0.00 0.00 0.02 0.11 0.21 0.52 0.74 0.46 0.40 0.34
0.09 0.08 0.08 0.08 0.06 0.06 0.06 0.07 0.08 0.08 0.04 0.03 0.01 0.00 0.00 0.00 0.00 0.00 0.00 0.00 0.01 0.04 0.02 0.02 0.01 0.01 0.01 0.00 0.00 0.00 0.01 0.01 0.05 0.18 0.65 0.65 0.51 0.33
0.22 0.18 0.18 0.18 0.13 0.14 0.17 0.18 0.18 0.14 0.08 0.05 0.03 0.02 0.01 0.00 0.01 0.00 0.00 0.01 0.02 0.07 0.03 0.02 0.02 0.01 0.01 0.01 0.01 0.01 0.01 0.00 0.00 0.03 0.13 0.37 0.64 0.62
0.28 0.27 0.28 0.25 0.20 0.20 0.21 0.16 0.14 0.11 0.09 0.06 0.04 0.02 0.01 0.00 0.01 0.00 0.00 0.00 0.01 0.02 0.06 0.05 0.04 0.02 0.02 0.02 0.01 0.00 0.00 0.00 0.00 0.02 0.02 0.03 0.10 0.16
0.36 0.24 0.18 0.16 0.16 0.15 0.13 0.08 0.06 0.06 0.07 0.07 0.07 0.06 0.05 0.02 0.02 0.03 0.04 0.03 0.02 0.02 0.03 0.03 0.02 0.02 0.02 0.02 0.01 0.00 0.00 0.00 0.00 0.02 0.02 0.01 0.01 0.04
0.43 0.28 0.19 0.20 0.21 0.24 0.25 0.21 0.15 0.13 0.11 0.08 0.06 0.04 0.03 0.03 0.04 0.06 0.05 0.03 0.02 0.01 0.01 0.01 0.01 0.01 0.01 0.01 0.06 0.02 0.00 0.00 0.00 0.00 0.02 0.02 0.01 0.00
0.57 0.52 0.52 0.50 0.50 0.46 0.44 0.43 0.42 0.43 0.38 0.28 0.23 0.16 0.11 0.09 0.10 0.07 0.03 0.02 0.02 0.01 0.01 0.01 0.00 0.00 0.00 0.01 0.04 0.01 0.00 0.00 0.00 0.00 0.01 0.02 0.03 0.01
1.04 0.97 0.85 0.74 0.73 0.78 0.72 0.69 0.66 0.64 0.58 0.51 0.45 0.39 0.33 0.26 0.16 0.06 0.03 0.01 0.00 0.00 0.00 0.01 0.00 0.00 0.00 0.00 0.02 0.01 0.01 0.00 0.00 0.00 0.00 0.00 0.01 0.01
0.68 0.75 0.83 0.87 0.92 0.88 0.78 0.79 0.76 0.72 0.72 0.67 0.55 0.46 0.38 0.29 0.20 0.14 0.10 0.06 0.03 0.00 0.00 0.00 0.00 0.00 0.00 0.00 0.00 0.01 0.00 0.00 0.00 0.00 0.00 0.00 0.00 0.00
0.40 0.37 0.42 0.42 0.49 0.50 0.48 0.51 0.53 0.53 0.50 0.47 0.45 0.41 0.38 0.34 0.27 0.19 0.15 0.10 0.06 0.02 0.00 0.00 0.00 0.00 0.00 0.00 0.00 0.00 0.00 0.00 0.00 0.00 0.00 0.00 0.00 0.00
0.26 0.34 0.42 0.48 0.47 0.47 0.46 0.42 0.42 0.48 0.47 0.45 0.47 0.46 0.42 0.37 0.31 0.24 0.16 0.10 0.06 0.04 0.01 0.01 0.00 0.00 0.00 0.00 0.00 0.00 0.00 0.00 0.00 0.00 0.00 0.00 0.01 0.00
0.08 0.10 0.13 0.18 0.20 0.25 0.27 0.29 0.29 0.25 0.22 0.21 0.21 0.20 0.20 0.19 0.19 0.17 0.13 0.09 0.05 0.02 0.01 0.00 0.00 0.00 0.00 0.00 0.00 0.00 0.00 0.00 0.00 0.00 0.00 0.00 0.01 0.01
0.11 0.13 0.13 0.13 0.15 0.18 0.22 0.26 0.28 0.24 0.26 0.26 0.22 0.19 0.16 0.14 0.11 0.09 0.08 0.07 0.04 0.01 0.00 0.00 0.00 0.00 0.00 0.00 0.00 0.00 0.00 0.00 0.00 0.00 0.00 0.00 0.00 0.00
0.02 0.05 0.07 0.08 0.09 0.10 0.13 0.15 0.15 0.14 0.16 0.15 0.14 0.15 0.14 0.11 0.08 0.06 0.06 0.05 0.03 0.01 0.00 0.00 0.00 0.00 0.00 0.00 0.00 0.00 0.00 0.00 0.00 0.00 0.00 0.00 0.00 0.00
0.03 0.01 0.01 0.02 0.03 0.05 0.09 0.15 0.20 0.21 0.19 0.17 0.20 0.21 0.18 0.15 0.12 0.10 0.10 0.09 0.05 0.02 0.03 0.01 0.00 0.00 0.00 0.00 0.00 0.00 0.00 0.00 0.00 0.00 0.00 0.00 0.00 0.00
0.25 0.13 0.11 0.10 0.10 0.13 0.18 0.24 0.30 0.32 0.25 0.25 0.26 0.23 0.19 0.16 0.14 0.14 0.12 0.09 0.07 0.06 0.06 0.03 0.01 0.00 0.00 0.00 0.00 0.00 0.00 0.00 0.00 0.00 0.00 0.00 0.00 0.00
0.41 0.29 0.31 0.34 0.36 0.39 0.39 0.40 0.38 0.31 0.30 0.32 0.25 0.20 0.19 0.21 0.20 0.15 0.12 0.12 0.10 0.10 0.09 0.07 0.03 0.01 0.00 0.00 0.00 0.00 0.00 0.00 0.00 0.00 0.00 0.00 0.00 0.00
0.31 0.27 0.31 0.36 0.41 0.43 0.42 0.39 0.33 0.31 0.29 0.23 0.21 0.20 0.22 0.23 0.23 0.16 0.13 0.12 0.12 0.14 0.13 0.08 0.04 0.02 0.01 0.00 0.00 0.00 0.00 0.00 0.00 0.00 0.00 0.00 0.00 0.00
0.25 0.29 0.28 0.31 0.34 0.33 0.29 0.26 0.24 0.23 0.20 0.18 0.17 0.18 0.19 0.24 0.22 0.18 0.18 0.18 0.18 0.15 0.11 0.05 0.03 0.04 0.02 0.01 0.01 0.00 0.00 0.00 0.00 0.00 0.00 0.00 0.00 0.00
0.13 0.19 0.22 0.25 0.28 0.30 0.28 0.26 0.25 0.24 0.21 0.18 0.16 0.18 0.20 0.22 0.19 0.18 0.18 0.19 0.17 0.11 0.11 0.12 0.12 0.06 0.05 0.04 0.02 0.00 0.00 0.00 0.00 0.00 0.00 0.00 0.00 0.00
0.14 0.17 0.20 0.23 0.25 0.27 0.30 0.31 0.30 0.26 0.27 0.28 0.26 0.23 0.25 0.24 0.19 0.22 0.21 0.20 0.17 0.15 0.16 0.15 0.09 0.06 0.08 0.07 0.03 0.01 0.00 0.00 0.00 0.00 0.00 0.00 0.00 0.00

GFSNE_prec_precacc24_138.txt.gz
Total_Precipitation_Accumulation
0.05 0.06 0.05 0.03 0.01 0.01 0.00 0.00 0.02 0.01 0.00 0.00 0.00 0.00 0.00 0.00 0.00 0.00 0.00 0.01 0.03 0.05 0.05 0.06 0.06 0.05 0.05 0.05 0.03 0.01 0.00 0.01 0.02 0.03 0.02 0.04 0.16 0.19
0.07 0.09 0.09 0.06 0.04 0.05 0.06 0.04 0.04 0.06 0.03 0.02 0.04 0.03 0.02 0.00 0.00 0.00 0.00 0.01 0.02 0.04 0.04 0.07 0.06 0.05 0.04 0.02 0.01 0.00 0.01 0.06 0.15 0.15 0.07 0.09 0.15 0.18
0.07 0.06 0.06 0.09 0.08 0.08 0.07 0.07 0.07 0.10 0.11 0.10 0.06 0.04 0.02 0.01 0.00 0.00 0.00 0.00 0.01 0.04 0.03 0.03 0.02 0.01 0.00 0.00 0.00 0.00 0.01 0.06 0.15 0.47 0.71 0.46 0.40 0.34
0.09 0.08 0.08 0.08 0.07 0.08 0.10 0.11 0.13 0.16 0.17 0.11 0.06 0.04 0.02 0.01 0.01 0.00 0.00 0.00 0.00 0.04 0.02 0.02 0.01 0.01 0.01 0.00 0.00 0.00 0.01 0.01 0.04 0.17 0.64 0.65 0.52 0.34
0.22 0.18 0.18 0.20 0.17 0.20 0.25 0.27 0.30 0.29 0.22 0.16 0.09 0.05 0.03 0.02 0.02 0.02 0.02 0.01 0.01 0.05 0.02 0.02 0.02 0.01 0.01 0.01 0.01 0.01 0.01 0.00 0.00 0.03 0.13 0.37 0.64 0.63
0.29 0.29 0.31 0.29 0.27 0.29 0.32 0.28 0.30 0.23 0.18 0.15 0.11 0.07 0.06 0.05 0.07 0.07 0.05 0.04 0.04 0.04 0.05 0.04 0.04 0.02 0.02 0.02 0.02 0.00 0.00 0.00 0.00 0.02 0.02 0.03 0.10 0.16
0.46 0.39 0.32 0.31 0.30 0.30 0.31 0.24 0.20 0.18 0.16 0.15 0.13 0.11 0.09 0.09 0.09 0.10 0.13 0.12 0.09 0.06 0.03 0.03 0.02 0.02 0.02 0.02 0.01 0.01 0.00 0.00 0.00 0.02 0.02 0.01 0.01 0.04
0.86 0.67 0.54 0.52 0.47 0.50 0.52 0.44 0.36 0.31 0.25 0.19 0.15 0.11 0.06 0.05 0.08 0.13 0.16 0.15 0.12 0.05 0.02 0.03 0.02 0.01 0.01 0.01 0.06 0.02 0.00 0.00 0.00 0.00 0.02 0.02 0.01 0.00
0.88 0.82 0.81 0.78 0.76 0.72 0.69 0.68 0.70 0.76 0.69 0.58 0.47 0.32 0.22 0.19 0.22 0.33 0.33 0.26 0.19 0.08 0.06 0.05 0.01 0.01 0.00 0.01 0.04 0.01 0.01 0.00 0.00 0.00 0.01 0.02 0.03 0.01
1.26 1.22 1.10 1.00 0.99 1.02 0.95 0.91 0.87 0.87 0.83 0.80 0.79 0.70 0.61 0.51 0.41 0.35 0.31 0.29 0.24 0.14 0.06 0.03 0.01 0.01 0.00 0.00 0.02 0.01 0.01 0.01 0.00 0.00 0.00 0.00 0.01 0.01
0.74 0.81 0.89 0.94 0.99 0.94 0.83 0.84 0.83 0.81 0.85 0.82 0.72 0.66 0.62 0.57 0.48 0.43 0.39 0.32 0.26 0.17 0.11 0.09 0.05 0.03 0.00 0.00 0.00 0.01 0.00 0.00 0.00 0.00 0.00 0.00 0.00 0.00
0.40 0.37 0.42 0.42 0.49 0.51 0.49 0.52 0.55 0.54 0.53 0.51 0.51 0.49 0.48 0.48 0.46 0.42 0.41 0.38 0.35 0.29 0.23 0.20 0.12 0.07 0.01 0.00 0.00 0.00 0.00 0.01 0.01 0.00 0.00 0.00 0.00 0.00
0.26 0.34 0.42 0.49 0.47 0.48 0.47 0.43 0.45 0.49 0.48 0.46 0.47 0.47 0.45 0.43 0.40 0.38 0.35 0.32 0.31 0.28 0.21 0.18 0.11 0.06 0.02 0.00 0.00 0.00 0.00 0.00 0.00 0.00 0.00 0.00 0.01 0.00
0.08 0.10 0.14 0.18 0.20 0.26 0.28 0.31 0.31 0.28 0.24 0.22 0.22 0.21 0.22 0.22 0.22 0.22 0.20 0.19 0.18 0.16 0.15 0.13 0.08 0.05 0.02 0.00 0.00 0.00 0.00 0.00 0.00 0.00 0.00 0.00 0.01 0.02
0.11 0.13 0.13 0.13 0.15 0.18 0.22 0.27 0.29 0.25 0.27 0.27 0.24 0.23 0.22 0.21 0.19 0.16 0.14 0.13 0.14 0.13 0.13 0.11 0.07 0.05 0.02 0.00 0.00 0.00 0.00 0.00 0.00 0.00 0.00 0.00 0.00 0.00
0.02 0.05 0.07 0.08 0.09 0.10 0.14 0.15 0.16 0.16 0.18 0.16 0.16 0.18 0.19 0.17 0.15 0.14 0.15 0.16 0.16 0.12 0.11 0.11 0.07 0.04 0.02 0.00 0.00 0.00 0.00 0.00 0.00 0.00 0.00 0.00 0.00 0.00
0.03 0.01 0.01 0.02 0.03 0.05 0.09 0.15 0.20 0.22 0.21 0.19 0.24 0.25 0.22 0.20 0.18 0.18 0.20 0.21 0.18 0.13 0.20 0.20 0.16 0.11 0.06 0.02 0.01 0.00 0.00 0.00 0.00 0.00 0.00 0.00 0.00 0.00
0.25 0.13 0.11 0.10 0.10 0.13 0.18 0.24 0.30 0.33 0.26 0.26 0.28 0.25 0.22 0.20 0.20 0.22 0.22 0.18 0.15 0.14 0.18 0.17 0.13 0.10 0.06 0.04 0.02 0.01 0.00 0.00 0.00 0.00 0.00 0.00 0.00 0.00
0.41 0.29 0.31 0.34 0.36 0.39 0.40 0.41 0.38 0.31 0.30 0.32 0.27 0.22 0.22 0.24 0.26 0.20 0.17 0.19 0.17 0.18 0.21 0.22 0.17 0.12 0.10 0.05 0.03 0.02 0.01 0.00 0.00 0.00 0.00 0.00 0.00 0.00
0.31 0.27 0.31 0.36 0.41 0.44 0.43 0.40 0.34 0.31 0.29 0.23 0.22 0.21 0.24 0.27 0.26 0.19 0.16 0.16 0.17 0.19 0.20 0.19 0.14 0.08 0.09 0.08 0.08 0.04 0.02 0.01 0.00 0.00 0.00 0.00 0.00 0.00
0.25 0.29 0.28 0.31 0.34 0.33 0.29 0.26 0.25 0.24 0.21 0.19 0.17 0.19 0.21 0.26 0.24 0.19 0.20 0.20 0.23 0.21 0.15 0.08 0.06 0.11 0.14 0.10 0.05 0.04 0.04 0.02 0.01 0.00 0.00 0.00 0.00 0.00
0.13 0.19 0.22 0.25 0.28 0.30 0.29 0.27 0.25 0.25 0.22 0.19 0.17 0.19 0.21 0.24 0.21 0.20 0.21 0.21 0.20 0.14 0.13 0.16 0.20 0.19 0.10 0.08 0.06 0.09 0.07 0.03 0.01 0.01 0.00 0.00 0.00 0.00
0.14 0.17 0.20 0.24 0.25 0.27 0.30 0.31 0.30 0.26 0.27 0.28 0.27 0.24 0.26 0.26 0.21 0.24 0.23 0.22 0.21 0.19 0.20 0.21 0.17 0.13 0.10 0.12 0.11 0.08 0.04 0.02 0.01 0.01 0.01 0.00 0.00 0.00

GFSNE_prec_precacc24_141.txt.gz
Total_Precipitation_Accumulation
0.05 0.07 0.08 0.04 0.02 0.01 0.01 0.00 0.01 0.01 0.00 0.00 0.00 0.00 0.01 0.01 0.00 0.00 0.00 0.01 0.01 0.03 0.05 0.05 0.04 0.03 0.03 0.05 0.03 0.01 0.00 0.00 0.00 0.00 0.01 0.03 0.11 0.16
0.07 0.09 0.10 0.07 0.06 0.06 0.07 0.04 0.04 0.07 0.04 0.02 0.04 0.04 0.04 0.02 0.02 0.01 0.01 0.01 0.01 0.02 0.03 0.04 0.03 0.03 0.02 0.02 0.01 0.00 0.00 0.01 0.07 0.09 0.04 0.06 0.14 0.17
0.07 0.06 0.06 0.10 0.09 0.10 0.08 0.08 0.08 0.11 0.12 0.11 0.08 0.05 0.05 0.02 0.02 0.01 0.01 0.00 0.01 0.02 0.02 0.02 0.01 0.01 0.00 0.00 0.00 0.00 0.00 0.00 0.07 0.37 0.59 0.39 0.36 0.32
0.09 0.09 0.08 0.09 0.08 0.08 0.10 0.11 0.14 0.17 0.17 0.14 0.12 0.08 0.05 0.03 0.03 0.02 0.02 0.01 0.01 0.03 0.02 0.01 0.01 0.01 0.01 0.00 0.00 0.00 0.00 0.00 0.02 0.13 0.58 0.61 0.48 0.31
0.23 0.19 0.19 0.21 0.17 0.20 0.26 0.28 0.31 0.31 0.25 0.20 0.16 0.08 0.05 0.04 0.05 0.05 0.03 0.02 0.02 0.03 0.02 0.02 0.02 0.01 0.01 0.00 0.00 0.00 0.01 0.00 0.00 0.02 0.11 0.35 0.63 0.62
0.30 0.30 0.31 0.30 0.28 0.30 0.34 0.30 0.32 0.29 0.25 0.22 0.18 0.12 0.08 0.06 0.11 0.13 0.11 0.09 0.10 0.14 0.14 0.10 0.06 0.03 0.02 0.01 0.01 0.00 0.00 0.00 0.00 0.02 0.02 0.03 0.10 0.16
0.47 0.40 0.35 0.40 0.42 0.44 0.44 0.36 0.34 0.33 0.34 0.30 0.26 0.23 0.16 0.14 0.14 0.16 0.24 0.24 0.22 0.17 0.14 0.12 0.07 0.04 0.03 0.03 0.01 0.01 0.00 0.00 0.00 0.01 0.02 0.01 0.01 0.04
0.93 0.77 0.67 0.74 0.66 0.69 0.68 0.63 0.59 0.59 0.56 0.51 0.40 0.31 0.20 0.14 0.15 0.25 0.32 0.38 0.34 0.16 0.10 0.14 0.11 0.07 0.03 0.02 0.06 0.02 0.00 0.00 0.00 0.00 0.02 0.02 0.01 0.00
0.94 0.86 0.86 0.89 0.91 0.86 0.86 0.87 0.89 0.97 0.93 0.83 0.73 0.52 0.40 0.32 0.37 0.49 0.49 0.43 0.35 0.22 0.17 0.20 0.12 0.07 0.04 0.04 0.06 0.02 0.01 0.00 0.00 0.00 0.01 0.02 0.03 0.01
1.29 1.27 1.18 1.08 1.07 1.10 1.02 0.98 0.95 0.94 0.91 0.88 0.91 0.84 0.76 0.67 0.62 0.54 0.44 0.42 0.39 0.26 0.18 0.16 0.09 0.06 0.05 0.05 0.08 0.04 0.02 0.01 0.00 0.00 0.00 0.00 0.01 0.01
0.76 0.82 0.91 0.95 1.02 0.97 0.84 0.85 0.83 0.82 0.86 0.82 0.72 0.66 0.63 0.58 0.50 0.46 0.42 0.36 0.31 0.24 0.19 0.18 0.13 0.12 0.11 0.09 0.06 0.06 0.05 0.03 0.00 0.00 0.00 0.00 0.00 0.00
0.40 0.37 0.42 0.42 0.49 0.51 0.49 0.52 0.55 0.54 0.53 0.51 0.51 0.49 0.48 0.48 0.46 0.43 0.41 0.39 0.35 0.31 0.27 0.27 0.19 0.20 0.20 0.12 0.07 0.05 0.04 0.03 0.02 0.00 0.01 0.00 0.00 0.00
0.26 0.34 0.42 0.49 0.47 0.48 0.47 0.43 0.45 0.49 0.48 0.46 0.47 0.47 0.46 0.44 0.40 0.39 0.36 0.34 0.32 0.28 0.22 0.24 0.17 0.15 0.16 0.10 0.06 0.05 0.03 0.01 0.01 0.01 0.00 0.00 0.01 0.00
0.08 0.10 0.14 0.18 0.20 0.26 0.28 0.31 0.31 0.28 0.24 0.22 0.23 0.23 0.24 0.25 0.26 0.26 0.24 0.24 0.22 0.20 0.18 0.17 0.13 0.12 0.14 0.12 0.09 0.07 0.05 0.02 0.00 0.00 0.00 0.00 0.01 0.02
0.11 0.13 0.13 0.13 0.15 0.18 0.22 0.27 0.29 0.25 0.27 0.27 0.25 0.24 0.24 0.25 0.24 0.21 0.19 0.20 0.20 0.20 0.22 0.19 0.16 0.16 0.16 0.12 0.09 0.07 0.08 0.06 0.03 0.01 0.00 0.00 0.00 0.00
0.02 0.05 0.07 0.08 0.09 0.10 0.14 0.15 0.16 0.16 0.18 0.16 0.16 0.18 0.20 0.18 0.17 0.17 0.20 0.21 0.25 0.20 0.22 0.25 0.24 0.20 0.18 0.15 0.11 0.09 0.07 0.05 0.02 0.01 0.00 0.00 0.00 0.00
0.03 0.01 0.01 0.02 0.03 0.05 0.09 0.15 0.20 0.23 0.21 0.19 0.24 0.25 0.22 0.21 0.19 0.21 0.26 0.27 0.25 0.17 0.27 0.35 0.37 0.34 0.28 0.21 0.19 0.13 0.10 0.07 0.03 0.02 0.01 0.00 0.00 0.00
0.25 0.13 0.11 0.10 0.10 0.13 0.19 0.24 0.30 0.33 0.26 0.26 0.28 0.25 0.23 0.21 0.22 0.24 0.27 0.25 0.21 0.19 0.23 0.25 0.26 0.25 0.22 0.19 0.19 0.19 0.17 0.12 0.06 0.04 0.02 0.01 0.00 0.00
0.41 0.29 0.31 0.34 0.36 0.39 0.40 0.41 0.38 0.31 0.30 0.33 0.28 0.23 0.23 0.25 0.28 0.21 0.18 0.23 0.23 0.23 0.26 0.32 0.31 0.25 0.21 0.15 0.13 0.18 0.19 0.14 0.11 0.07 0.03 0.01 0.00 0.00
0.31 0.27 0.31 0.36 0.41 0.44 0.43 0.40 0.34 0.31 0.29 0.24 0.23 0.21 0.25 0.28 0.28 0.21 0.17 0.19 0.21 0.24 0.26 0.24 0.22 0.17 0.20 0.21 0.22 0.16 0.18 0.15 0.11 0.08 0.04 0.03 0.02 0.01
0.25 0.29 0.28 0.31 0.34 0.33 0.29 0.26 0.25 0.24 0.21 0.19 0.18 0.20 0.21 0.27 0.26 0.21 0.22 0.23 0.27 0.26 0.19 0.10 0.07 0.19 0.28 0.22 0.12 0.08 0.16 0.15 0.09 0.08 0.05 0.04 0.03 0.02
0.12 0.18 0.22 0.25 0.28 0.30 0.29 0.27 0.25 0.25 0.22 0.20 0.17 0.19 0.21 0.25 0.23 0.21 0.22 0.24 0.23 0.17 0.16 0.17 0.23 0.27 0.15 0.11 0.09 0.15 0.17 0.17 0.10 0.07 0.05 0.03 0.02 0.02
0.12 0.16 0.19 0.24 0.25 0.27 0.29 0.31 0.30 0.26 0.27 0.28 0.27 0.24 0.26 0.26 0.21 0.25 0.24 0.24 0.24 0.22 0.23 0.24 0.19 0.17 0.12 0.14 0.15 0.13 0.09 0.09 0.08 0.07 0.06 0.04 0.03 0.01

GFSNE_prec_precacc24_144.txt.gz
Total_Precipitation_Accumulation
0.12 0.15 0.15 0.11 0.14 0.13 0.11 0.13 0.14 0.10 0.03 0.00 0.00 0.00 0.01 0.01 0.00 0.00 0.00 0.00 0.00 0.01 0.02 0.03 0.03 0.02 0.02 0.02 0.02 0.00 0.00 0.00 0.00 0.00 0.00 0.01 0.08 0.07
0.16 0.16 0.16 0.12 0.13 0.16 0.18 0.16 0.17 0.20 0.12 0.02 0.04 0.04 0.04 0.02 0.02 0.01 0.01 0.01 0.01 0.02 0.02 0.03 0.02 0.02 0.01 0.00 0.00 0.00 0.00 0.00 0.00 0.02 0.01 0.03 0.07 0.11
0.14 0.12 0.11 0.14 0.11 0.11 0.11 0.13 0.15 0.19 0.19 0.12 0.08 0.06 0.05 0.02 0.02 0.01 0.01 0.01 0.01 0.01 0.02 0.02 0.01 0.01 0.00 0.00 0.00 0.00 0.00 0.00 0.00 0.13 0.37 0.25 0.29 0.28
0.13 0.12 0.12 0.12 0.09 0.10 0.11 0.12 0.14 0.18 0.20 0.16 0.12 0.08 0.05 0.03 0.03 0.02 0.02 0.01 0.01 0.01 0.02 0.01 0.01 0.01 0.01 0.00 0.00 0.00 0.00 0.00 0.00 0.05 0.47 0.47 0.40 0.26
0.27 0.23 0.22 0.23 0.19 0.21 0.27 0.29 0.31 0.31 0.25 0.22 0.16 0.09 0.05 0.04 0.06 0.06 0.05 0.03 0.02 0.02 0.02 0.03 0.03 0.02 0.02 0.01 0.01 0.00 0.00 0.00 0.00 0.01 0.06 0.31 0.57 0.51
0.36 0.34 0.34 0.31 0.28 0.31 0.34 0.31 0.33 0.29 0.26 0.23 0.21 0.16 0.12 0.09 0.13 0.14 0.11 0.10 0.11 0.14 0.16 0.11 0.08 0.06 0.05 0.04 0.03 0.01 0.01 0.00 0.00 0.01 0.01 0.02 0.08 0.15
0.56 0.44 0.36 0.41 0.43 0.44 0.45 0.38 0.38 0.42 0.47 0.50 0.44 0.37 0.29 0.23 0.21 0.20 0.33 0.33 0.30 0.22 0.18 0.15 0.11 0.09 0.08 0.07 0.06 0.04 0.03 0.02 0.01 0.01 0.02 0.01 0.01 0.04
0.96 0.79 0.67 0.74 0.68 0.74 0.73 0.67 0.63 0.63 0.62 0.57 0.47 0.39 0.24 0.16 0.18 0.31 0.40 0.47 0.44 0.19 0.12 0.18 0.17 0.16 0.10 0.06 0.10 0.06 0.03 0.02 0.01 0.01 0.02 0.02 0.01 0.00
0.95 0.87 0.87 0.91 0.96 0.89 0.94 0.95 0.96 1.07 1.00 0.86 0.76 0.54 0.42 0.35 0.41 0.52 0.51 0.44 0.37 0.23 0.20 0.24 0.14 0.08 0.04 0.04 0.10 0.07 0.06 0.05 0.04 0.02 0.02 0.03 0.03 0.01
1.33 1.31 1.23 1.12 1.12 1.14 1.05 1.01 0.98 0.97 0.93 0.89 0.92 0.84 0.77 0.68 0.64 0.57 0.48 0.46 0.42 0.27 0.19 0.17 0.09 0.06 0.05 0.06 0.14 0.12 0.09 0.09 0.08 0.05 0.03 0.02 0.01 0.02
0.87 0.93 0.99 1.02 1.08 1.01 0.85 0.85 0.83 0.82 0.86 0.82 0.72 0.66 0.63 0.58 0.50 0.46 0.42 0.36 0.31 0.24 0.19 0.18 0.13 0.11 0.11 0.09 0.08 0.13 0.12 0.10 0.09 0.08 0.05 0.03 0.02 0.02
0.43 0.40 0.44 0.43 0.50 0.51 0.49 0.52 0.55 0.54 0.53 0.51 0.51 0.49 0.48 0.48 0.46 0.43 0.41 0.39 0.35 0.31 0.26 0.27 0.19 0.19 0.20 0.12 0.08 0.07 0.09 0.11 0.12 0.09 0.08 0.07 0.05 0.03
0.26 0.34 0.42 0.49 0.47 0.48 0.47 0.43 0.45 0.50 0.48 0.46 0.47 0.47 0.46 0.44 0.40 0.39 0.37 0.35 0.34 0.29 0.25 0.28 0.18 0.16 0.17 0.11 0.06 0.06 0.05 0.06 0.10 0.10 0.08 0.06 0.05 0.03
0.08 0.10 0.14 0.18 0.20 0.26 0.28 0.31 0.32 0.28 0.24 0.22 0.23 0.23 0.24 0.25 0.26 0.26 0.25 0.26 0.28 0.26 0.24 0.29 0.23 0.18 0.21 0.20 0.13 0.09 0.07 0.07 0.08 0.10 0.09 0.10 0.09 0.08
0.11 0.13 0.13 0.13 0.15 0.18 0.22 0.27 0.29 0.25 0.27 0.27 0.25 0.24 0.24 0.25 0.24 0.21 0.20 0.22 0.25 0.27 0.30 0.30 0.31 0.29 0.29 0.25 0.18 0.12 0.14 0.14 0.12 0.14 0.16 0.15 0.12 0.08
0.03 0.05 0.07 0.08 0.09 0.10 0.14 0.16 0.16 0.16 0.18 0.16 0.16 0.18 0.20 0.18 0.17 0.18 0.20 0.21 0.26 0.20 0.22 0.29 0.32 0.32 0.31 0.27 0.25 0.20 0.18 0.19 0.16 0.17 0.21 0.22 0.21 0.16
0.03 0.01 0.01 0.02 0.03 0.05 0.09 0.15 0.20 0.23 0.21 0.19 0.25 0.26 0.23 0.22 0.20 0.22 0.27 0.28 0.25 0.17 0.27 0.35 0.40 0.42 0.38 0.33 0.31 0.23 0.23 0.24 0.20 0.23 0.27 0.25 0.23 0.20
0.25 0.13 0.11 0.10 0.10 0.13 0.19 0.24 0.30 0.33 0.26 0.27 0.28 0.26 0.23 0.22 0.22 0.24 0.27 0.26 0.22 0.19 0.24 0.25 0.28 0.31 0.28 0.25 0.27 0.30 0.33 0.31 0.26 0.25 0.25 0.23 0.20 0.20
0.38 0.28 0.31 0.34 0.36 0.39 0.40 0.41 0.38 0.31 0.30 0.33 0.28 0.23 0.23 0.26 0.29 0.22 0.19 0.25 0.24 0.24 0.27 0.33 0.33 0.31 0.27 0.18 0.15 0.26 0.34 0.29 0.31 0.28 0.21 0.19 0.17 0.18
0.28 0.26 0.30 0.36 0.41 0.44 0.43 0.40 0.34 0.31 0.29 0.24 0.23 0.22 0.25 0.29 0.28 0.21 0.18 0.20 0.23 0.25 0.26 0.24 0.23 0.23 0.27 0.25 0.28 0.19 0.28 0.28 0.23 0.23 0.18 0.20 0.18 0.16
0.22 0.27 0.27 0.31 0.34 0.33 0.29 0.27 0.25 0.24 0.21 0.19 0.18 0.20 0.22 0.28 0.26 0.21 0.23 0.24 0.29 0.29 0.22 0.11 0.07 0.21 0.33 0.28 0.17 0.10 0.22 0.27 0.20 0.18 0.16 0.17 0.17 0.14
0.09 0.15 0.19 0.23 0.26 0.28 0.28 0.26 0.25 0.24 0.22 0.20 0.17 0.19 0.22 0.26 0.24 0.22 0.23 0.25 0.24 0.18 0.18 0.18 0.23 0.31 0.20 0.14 0.11 0.18 0.23 0.27 0.19 0.14 0.12 0.11 0.11 0.11
0.08 0.11 0.15 0.19 0.21 0.24 0.27 0.29 0.28 0.25 0.27 0.28 0.26 0.23 0.25 0.26 0.22 0.25 0.25 0.24 0.24 0.23 0.24 0.26 0.21 0.20 0.15 0.17 0.19 0.16 0.12 0.14 0.13 0.13 0.13 0.12 0.11 0.09

GFSNE_prec_precacc24_147.txt.gz
Total_Precipitation_Accumulation
0.21 0.26 0.26 0.18 0.19 0.22 0.25 0.23 0.25 0.27 0.12 0.02 0.02 0.01 0.02 0.02 0.00 0.00 0.00 0.00 0.00 0.01 0.01 0.01 0.01 0.01 0.01 0.00 0.00 0.00 0.00 0.00 0.00 0.00 0.00 0.00 0.00 0.01
0.26 0.25 0.26 0.21 0.19 0.26 0.36 0.40 0.42 0.43 0.33 0.09 0.07 0.06 0.06 0.05 0.04 0.02 0.02 0.01 0.01 0.02 0.02 0.02 0.01 0.01 0.01 0.00 0.00 0.00 0.00 0.00 0.00 0.00 0.00 0.01 0.02 0.03
0.19 0.17 0.17 0.23 0.23 0.22 0.20 0.24 0.28 0.36 0.35 0.16 0.09 0.06 0.05 0.02 0.02 0.01 0.01 0.01 0.01 0.01 0.01 0.01 0.01 0.01 0.00 0.00 0.00 0.00 0.00 0.00 0.00 0.00 0.05 0.10 0.10 0.13
0.17 0.15 0.17 0.19 0.17 0.18 0.17 0.16 0.18 0.22 0.24 0.17 0.12 0.08 0.06 0.03 0.03 0.02 0.02 0.01 0.01 0.01 0.02 0.01 0.01 0.01 0.01 0.01 0.00 0.00 0.00 0.00 0.00 0.00 0.05 0.18 0.26 0.17
0.30 0.29 0.27 0.30 0.26 0.29 0.33 0.32 0.33 0.33 0.27 0.22 0.16 0.09 0.05 0.04 0.06 0.06 0.05 0.04 0.02 0.03 0.03 0.02 0.03 0.02 0.02 0.02 0.01 0.00 0.00 0.00 0.00 0.00 0.01 0.15 0.40 0.29
0.38 0.37 0.39 0.38 0.38 0.40 0.42 0.35 0.37 0.32 0.28 0.24 0.21 0.17 0.12 0.10 0.19 0.22 0.22 0.21 0.21 0.21 0.17 0.12 0.09 0.06 0.05 0.04 0.03 0.02 0.01 0.01 0.01 0.01 0.01 0.00 0.04 0.10
0.64 0.57 0.47 0.50 0.55 0.56 0.52 0.42 0.41 0.44 0.48 0.50 0.46 0.42 0.37 0.32 0.31 0.28 0.36 0.34 0.31 0.22 0.18 0.15 0.11 0.10 0.08 0.09 0.07 0.05 0.05 0.05 0.05 0.05 0.04 0.03 0.01 0.01
1.00 0.86 0.78 0.84 0.75 0.78 0.75 0.71 0.68 0.68 0.65 0.64 0.55 0.47 0.32 0.24 0.23 0.34 0.41 0.47 0.45 0.19 0.12 0.18 0.17 0.16 0.09 0.07 0.11 0.09 0.07 0.07 0.07 0.08 0.09 0.09 0.06 0.03
1.02 0.91 0.90 0.93 0.99 0.92 0.97 0.98 1.00 1.12 1.05 0.92 0.81 0.63 0.49 0.41 0.45 0.54 0.52 0.45 0.38 0.23 0.20 0.24 0.14 0.07 0.04 0.04 0.10 0.08 0.08 0.09 0.10 0.11 0.10 0.09 0.08 0.05
1.34 1.33 1.24 1.14 1.14 1.17 1.08 1.05 1.03 1.02 0.99 0.94 0.95 0.87 0.79 0.69 0.64 0.57 0.48 0.46 0.42 0.27 0.20 0.17 0.09 0.06 0.05 0.06 0.13 0.12 0.09 0.09 0.09 0.08 0.08 0.07 0.06 0.06
0.87 0.94 1.02 1.05 1.17 1.09 0.90 0.91 0.89 0.85 0.91 0.86 0.74 0.67 0.64 0.59 0.50 0.46 0.42 0.36 0.31 0.24 0.19 0.18 0.13 0.11 0.11 0.09 0.08 0.13 0.12 0.11 0.10 0.10 0.09 0.09 0.08 0.08
0.50 0.48 0.54 0.50 0.60 0.59 0.54 0.54 0.55 0.54 0.53 0.51 0.51 0.49 0.48 0.48 0.46 0.43 0.41 0.39 0.35 0.31 0.27 0.27 0.19 0.19 0.20 0.12 0.08 0.07 0.09 0.12 0.13 0.11 0.12 0.12 0.12 0.11
0.31 0.38 0.45 0.53 0.49 0.49 0.48 0.43 0.45 0.50 0.49 0.46 0.47 0.47 0.46 0.44 0.40 0.39 0.37 0.35 0.34 0.29 0.27 0.31 0.19 0.16 0.18 0.11 0.06 0.06 0.05 0.07 0.11 0.12 0.12 0.14 0.15 0.16
0.09 0.11 0.14 0.18 0.21 0.26 0.29 0.32 0.32 0.28 0.24 0.22 0.23 0.23 0.24 0.25 0.26 0.26 0.25 0.26 0.28 0.26 0.24 0.31 0.26 0.20 0.24 0.23 0.14 0.09 0.07 0.07 0.09 0.12 0.14 0.19 0.24 0.27
0.11 0.13 0.13 0.13 0.15 0.18 0.23 0.27 0.29 0.25 0.27 0.27 0.25 0.24 0.24 0.25 0.24 0.21 0.20 0.22 0.25 0.27 0.31 0.30 0.32 0.30 0.31 0.28 0.20 0.12 0.14 0.14 0.13 0.14 0.18 0.23 0.25 0.27
0.03 0.05 0.07 0.08 0.09 0.10 0.14 0.16 0.16 0.16 0.18 0.16 0.16 0.18 0.20 0.18 0.17 0.18 0.20 0.21 0.26 0.20 0.22 0.29 0.32 0.32 0.33 0.28 0.25 0.20 0.18 0.20 0.17 0.19 0.26 0.30 0.32 0.33
0.03 0.01 0.01 0.02 0.03 0.05 0.09 0.15 0.20 0.23 0.21 0.19 0.25 0.26 0.23 0.22 0.20 0.22 0.27 0.28 0.26 0.18 0.27 0.35 0.40 0.43 0.39 0.34 0.32 0.23 0.24 0.25 0.23 0.29 0.36 0.36 0.34 0.36
0.18 0.11 0.10 0.10 0.10 0.13 0.18 0.24 0.30 0.33 0.26 0.27 0.28 0.26 0.23 0.22 0.22 0.24 0.27 0.26 0.23 0.19 0.24 0.25 0.28 0.32 0.28 0.25 0.27 0.30 0.33 0.32 0.29 0.30 0.34 0.37 0.34 0.37
0.16 0.15 0.21 0.26 0.29 0.33 0.37 0.41 0.38 0.31 0.30 0.33 0.28 0.23 0.23 0.26 0.29 0.22 0.19 0.25 0.24 0.24 0.27 0.33 0.34 0.33 0.30 0.18 0.15 0.26 0.35 0.30 0.34 0.33 0.27 0.27 0.25 0.30
0.10 0.09 0.11 0.17 0.26 0.34 0.40 0.40 0.34 0.31 0.29 0.24 0.23 0.22 0.25 0.29 0.28 0.22 0.19 0.21 0.24 0.26 0.27 0.24 0.23 0.24 0.31 0.27 0.30 0.19 0.28 0.31 0.27 0.28 0.23 0.26 0.26 0.24
0.06 0.10 0.10 0.14 0.19 0.25 0.27 0.26 0.25 0.24 0.21 0.19 0.18 0.20 0.22 0.29 0.27 0.22 0.23 0.25 0.30 0.29 0.22 0.11 0.07 0.22 0.36 0.32 0.19 0.10 0.22 0.30 0.25 0.23 0.20 0.23 0.22 0.20
0.02 0.03 0.06 0.11 0.16 0.20 0.23 0.24 0.24 0.24 0.22 0.19 0.17 0.19 0.22 0.26 0.24 0.22 0.23 0.25 0.24 0.19 0.18 0.18 0.23 0.31 0.22 0.17 0.13 0.18 0.23 0.28 0.21 0.18 0.17 0.16 0.15 0.16
0.03 0.04 0.05 0.09 0.13 0.18 0.22 0.24 0.26 0.24 0.26 0.27 0.25 0.22 0.24 0.26 0.22 0.25 0.25 0.25 0.25 0.24 0.25 0.26 0.21 0.20 0.16 0.19 0.22 0.18 0.14 0.16 0.14 0.15 0.16 0.17 0.16 0.13